[[{"header":{"parameterUnit":"m.s-1","parameterCategory":1,"la1":30.6,"la2":28.766,"lo1":-90.7593,"lo2":-88.6598,"dy":0.0162,"dx":0.0183,"nx":116,"ny":114,"refTime":"2023-11-03T18:00:00:Z","depth":0,"parameterNumber":2,"parameterNumberName":"U-component_of_WINDS"},"data":[0.0,0.0,0.0,0.0,0.0,0.0,0.0,0.0,0.0,0.0,0.0,0.0,0.0,0.0,0.0,0.0,0.0,0.0,0.0,0.0,0.0,0.0,0.0,0.0,0.0,0.0,0.0,0.0,0.0,0.0,0.0,0.0,0.0,0.0,0.0,0.0,0.0,0.0,0.0,0.0,0.0,0.0,0.0,0.0,0.0,0.0,0.0,0.0,0.0,0.0,0.0,0.0,0.0,0.0,0.0,0.0,0.0,0.0,0.0,0.0,0.0,0.0,0.0,0.0,0.0,0.0,0.0,0.0,0.0,0.0,0.0,0.0,0.0,0.0,0.0,0.0,0.0,0.0,0.0,0.0,0.0,0.0,0.0,0.0,0.0,0.0,0.0,0.0,0.0,0.0,0.0,0.0,0.0,0.0,0.0,0.0,0.0,0.0,0.0,0.0,0.0,0.0,0.0,0.0,0.0,0.0,0.0,0.0,0.0,0.0,0.0,0.0,0.0,0.0,0.0,0.0,0.0,0.0,0.0,0.0,0.0,0.0,0.0,0.0,0.0,0.0,0.0,0.0,0.0,0.0,0.0,0.0,0.0,0.0,0.0,0.0,0.0,0.0,0.0,0.0,0.0,0.0,0.0,0.0,0.0,0.0,0.0,0.0,0.0,0.0,0.0,0.0,0.0,0.0,0.0,0.0,0.0,0.0,0.0,0.0,0.0,0.0,0.0,0.0,0.0,0.0,0.0,0.0,0.0,0.0,0.0,0.0,0.0,0.0,0.0,0.0,0.0,0.0,0.0,0.0,0.0,0.0,0.0,0.0,0.0,0.0,0.0,0.0,0.0,0.0,0.0,0.0,0.0,0.0,0.0,0.0,0.0,0.0,0.0,0.0,0.0,0.0,0.0,0.0,0.0,0.0,0.0,0.0,0.0,0.0,0.0,0.0,0.0,0.0,0.0,0.0,0.0,0.0,0.0,0.0,0.0,0.0,0.0,0.0,0.0,0.0,0.0,0.0,0.0,0.0,0.0,0.0,0.0,0.0,0.0,0.0,0.0,0.0,0.0,0.0,0.0,0.0,0.0,0.0,0.0,0.0,0.0,0.0,0.0,0.0,0.0,0.0,0.0,0.0,0.0,0.0,0.0,0.0,0.0,0.0,0.0,0.0,0.0,0.0,0.0,0.0,0.0,0.0,0.0,0.0,0.0,0.0,0.0,0.0,0.0,0.0,0.0,0.0,0.0,0.0,0.0,0.0,0.0,0.0,0.0,0.0,0.0,0.0,0.0,0.0,0.0,0.0,0.0,0.0,0.0,0.0,0.0,0.0,0.0,0.0,0.0,0.0,0.0,0.0,0.0,0.0,0.0,0.0,0.0,0.0,0.0,0.0,0.0,0.0,0.0,0.0,0.0,0.0,0.0,0.0,0.0,0.0,0.0,0.0,0.0,0.0,0.0,0.0,0.0,0.0,0.0,0.0,0.0,0.0,0.0,0.0,0.0,0.0,0.0,0.0,0.0,0.0,0.0,0.0,0.0,0.0,0.0,0.0,0.0,0.0,0.0,0.0,0.0,0.0,0.0,0.0,0.0,0.0,0.0,0.0,0.0,0.0,0.0,0.0,0.0,0.0,0.0,0.0,0.0,0.0,0.0,0.0,0.0,0.0,0.0,0.0,0.0,0.0,0.0,0.0,0.0,0.0,0.0,0.0,0.0,0.0,0.0,0.0,0.0,0.0,0.0,0.0,0.0,0.0,0.0,0.0,0.0,0.0,0.0,0.0,0.0,0.0,0.0,0.0,0.0,0.0,0.0,0.0,0.0,0.0,0.0,0.0,0.0,0.0,0.0,0.0,0.0,0.0,0.0,0.0,0.0,0.0,0.0,0.0,0.0,0.0,0.0,0.0,0.0,0.0,0.0,0.0,0.0,0.0,0.0,0.0,0.0,0.0,0.0,0.0,0.0,0.0,0.0,0.0,0.0,0.0,0.0,0.0,0.0,0.0,0.0,0.0,0.0,0.0,0.0,0.0,0.0,0.0,0.0,0.0,0.0,0.0,0.0,0.0,0.0,0.0,0.0,0.0,0.0,0.0,0.0,0.0,0.0,0.0,0.0,0.0,0.0,0.0,0.0,0.0,0.0,0.0,0.0,0.0,0.0,0.0,0.0,0.0,0.0,0.0,0.0,0.0,0.0,0.0,0.0,0.0,0.0,0.0,0.0,0.0,0.0,0.0,0.0,0.0,0.0,0.0,0.0,0.0,0.0,0.0,0.0,0.0,0.0,0.0,0.0,0.0,0.0,0.0,0.0,0.0,0.0,0.0,0.0,0.0,0.0,0.0,0.0,0.0,0.0,0.0,0.0,0.0,0.0,0.0,0.0,0.0,0.0,0.0,0.0,0.0,0.0,0.0,0.0,0.0,0.0,0.0,0.0,0.0,0.0,0.0,0.0,0.0,0.0,0.0,0.0,0.0,0.0,0.0,0.0,0.0,0.0,0.0,0.0,0.0,0.0,0.0,0.0,0.0,0.0,0.0,0.0,0.0,0.0,0.0,0.0,0.0,0.0,0.0,0.0,0.0,0.0,0.0,0.0,0.0,0.0,0.0,0.0,0.0,0.0,0.0,0.0,0.0,0.0,0.0,0.0,0.0,0.0,0.0,0.0,0.0,0.0,0.0,0.0,0.0,0.0,0.0,0.0,0.0,0.0,0.0,0.0,0.0,0.0,0.0,0.0,0.0,0.0,0.0,0.0,0.0,0.0,0.0,0.0,0.0,0.0,0.0,0.0,0.0,0.0,0.0,0.0,0.0,0.0,0.0,0.0,0.0,0.0,0.0,0.0,0.0,0.0,0.0,0.0,0.0,0.0,0.0,0.0,0.0,0.0,0.0,0.0,0.0,0.0,0.0,0.0,0.0,0.0,0.0,0.0,0.0,0.0,0.0,0.0,0.0,0.0,0.0,0.0,0.0,0.0,0.0,0.0,0.0,0.0,0.0,0.0,0.0,0.0,0.0,0.0,0.0,0.0,0.0,0.0,0.0,0.0,0.0,0.0,0.0,0.0,0.0,0.0,0.0,0.0,0.0,0.0,0.0,0.0,0.0,0.0,0.0,0.0,0.0,0.0,0.0,0.0,0.0,0.0,0.0,0.0,0.0,0.0,0.0,0.0,0.0,0.0,0.0,0.0,0.0,0.0,0.0,0.0,0.0,0.0,0.0,0.0,0.0,0.0,0.0,0.0,0.0,0.0,0.0,0.0,0.0,0.0,0.0,0.0,0.0,0.0,0.0,0.0,0.0,0.0,0.0,0.0,0.0,0.0,0.0,0.0,0.0,0.0,0.0,0.0,0.0,0.0,0.0,0.0,0.0,0.0,0.0,0.0,0.0,0.0,0.0,0.0,0.0,0.0,0.0,0.0,0.0,0.0,0.0,0.0,0.0,0.0,0.0,0.0,0.0,0.0,0.0,0.0,0.0,0.0,0.0,0.0,0.0,0.0,0.0,0.0,0.0,0.0,0.0,0.0,0.0,0.0,0.0,0.0,0.0,0.0,0.0,0.0,0.0,0.0,0.0,0.0,0.0,0.0,0.0,0.0,0.0,0.0,0.0,0.0,0.0,0.0,0.0,0.0,0.0,0.0,0.0,0.0,0.0,0.0,0.0,0.0,0.0,0.0,0.0,0.0,0.0,0.0,0.0,0.0,0.0,0.0,0.0,0.0,0.0,0.0,0.0,0.0,0.0,0.0,0.0,0.0,0.0,0.0,0.0,0.0,0.0,0.0,0.0,0.0,0.0,0.0,0.0,0.0,0.0,0.0,0.0,0.0,0.0,0.0,0.0,0.0,0.0,0.0,0.0,0.0,0.0,0.0,0.0,0.0,0.0,0.0,0.0,0.0,0.0,0.0,0.0,0.0,0.0,0.0,0.0,0.0,0.0,0.0,0.0,0.0,0.0,0.0,0.0,0.0,0.0,0.0,0.0,0.0,0.0,0.0,0.0,0.0,0.0,0.0,0.0,0.0,0.0,0.0,0.0,0.0,0.0,0.0,0.0,0.0,0.0,0.0,0.0,0.0,0.0,0.0,0.0,0.0,0.0,0.0,0.0,0.0,0.0,0.0,0.0,0.0,0.0,0.0,0.0,0.0,0.0,0.0,0.0,0.0,0.0,0.0,0.0,0.0,0.0,0.0,0.0,0.0,0.0,0.0,0.0,0.0,0.0,0.0,0.0,0.0,0.0,0.0,0.0,0.0,0.0,0.0,0.0,0.0,0.0,0.0,0.0,0.0,0.0,0.0,0.0,0.0,0.0,0.0,0.0,0.0,0.0,0.0,0.0,0.0,0.0,0.0,0.0,0.0,0.0,0.0,0.0,0.0,0.0,0.0,0.0,0.0,0.0,0.0,0.0,0.0,0.0,0.0,0.0,0.0,0.0,0.0,0.0,0.0,0.0,0.0,0.0,0.0,0.0,0.0,0.0,0.0,0.0,0.0,0.0,0.0,0.0,0.0,0.0,0.0,0.0,0.0,0.0,0.0,0.0,0.0,0.0,0.0,0.0,0.0,0.0,0.0,0.0,0.0,0.0,0.0,0.0,0.0,0.0,0.0,0.0,0.0,0.0,0.0,0.0,0.0,0.0,0.0,0.0,0.0,0.0,0.0,0.0,0.0,0.0,0.0,0.0,0.0,0.0,0.0,0.0,0.0,0.0,0.0,0.0,0.0,0.0,0.0,0.0,0.0,0.0,0.0,0.0,0.0,0.0,0.0,0.0,0.0,0.0,0.0,0.0,0.0,0.0,0.0,0.0,0.0,0.0,0.0,0.0,0.0,0.0,0.0,0.0,0.0,0.0,0.0,0.0,0.0,0.0,0.0,0.0,0.0,0.0,0.0,0.0,0.0,0.0,0.0,0.0,0.0,0.0,0.0,0.0,0.0,0.0,0.0,0.0,0.0,0.0,0.0,0.0,0.0,0.0,0.0,0.0,0.0,0.0,0.0,0.0,0.0,0.0,0.0,0.0,0.0,0.0,0.0,0.0,0.0,0.0,0.0,0.0,0.0,0.0,0.0,0.0,0.0,0.0,0.0,0.0,0.0,0.0,0.0,0.0,0.0,0.0,0.0,0.0,0.0,0.0,0.0,0.0,0.0,0.0,0.0,0.0,0.0,0.0,0.0,0.0,0.0,0.0,0.0,0.0,0.0,0.0,0.0,0.0,0.0,0.0,0.0,0.0,0.0,0.0,0.0,0.0,0.0,0.0,0.0,0.0,0.0,0.0,0.0,0.0,0.0,0.0,0.0,0.0,0.0,0.0,0.0,0.0,0.0,0.0,0.0,0.0,0.0,0.0,0.0,0.0,0.0,0.0,0.0,0.0,0.0,0.0,0.0,0.0,0.0,0.0,0.0,0.0,0.0,0.0,0.0,0.0,0.0,0.0,0.0,0.0,0.0,0.0,0.0,0.0,0.0,0.0,0.0,0.0,0.0,0.0,0.0,0.0,0.0,0.0,0.0,0.0,0.0,0.0,0.0,0.0,0.0,0.0,0.0,0.0,0.0,0.0,0.0,0.0,0.0,0.0,0.0,0.0,0.0,0.0,0.0,0.0,0.0,0.0,0.0,0.0,0.0,0.0,0.0,0.0,0.0,0.0,0.0,0.0,0.0,0.0,0.0,0.0,0.0,0.0,0.0,0.0,0.0,0.0,0.0,0.0,0.0,0.0,0.0,0.0,0.0,0.0,0.0,0.0,0.0,0.0,0.0,0.0,0.0,0.0,0.0,0.0,0.0,0.0,0.0,0.0,0.0,0.0,0.0,0.0,0.0,0.0,0.0,0.0,0.0,0.0,0.0,0.0,0.0,0.0,0.0,0.0,0.0,0.0,0.0,0.0,0.0,0.0,0.0,0.0,0.0,0.0,0.0,0.0,0.0,0.0,0.0,0.0,0.0,0.0,0.0,0.0,0.0,0.0,0.0,0.0,0.0,0.0,0.0,0.0,0.0,0.0,0.0,0.0,0.0,0.0,0.0,0.0,0.0,0.0,0.0,0.0,0.0,0.0,0.0,0.0,0.0,0.0,0.0,0.0,0.0,0.0,0.0,0.0,0.0,0.0,0.0,0.0,0.0,0.0,-2.3008,-2.2656,0.0,0.0,0.0,0.0,0.0,0.0,0.0,0.0,0.0,0.0,0.0,0.0,0.0,0.0,0.0,0.0,0.0,0.0,0.0,0.0,0.0,0.0,0.0,0.0,0.0,0.0,0.0,0.0,0.0,0.0,0.0,0.0,0.0,0.0,0.0,0.0,0.0,0.0,0.0,0.0,0.0,0.0,0.0,0.0,0.0,0.0,0.0,0.0,0.0,0.0,0.0,0.0,0.0,0.0,0.0,0.0,0.0,0.0,0.0,0.0,0.0,0.0,0.0,0.0,0.0,0.0,0.0,0.0,0.0,0.0,0.0,0.0,0.0,0.0,0.0,0.0,0.0,0.0,0.0,0.0,0.0,0.0,0.0,0.0,0.0,0.0,0.0,0.0,0.0,0.0,0.0,0.0,0.0,0.0,0.0,0.0,0.0,0.0,0.0,0.0,0.0,0.0,0.0,0.0,0.0,0.0,0.0,0.0,0.0,0.0,0.0,0.0,0.0,0.0,-2.4082,-2.3184,0.0,0.0,0.0,0.0,0.0,0.0,0.0,0.0,0.0,0.0,0.0,0.0,0.0,0.0,0.0,0.0,0.0,0.0,0.0,0.0,0.0,0.0,0.0,0.0,0.0,0.0,0.0,0.0,0.0,0.0,0.0,0.0,0.0,0.0,0.0,0.0,0.0,0.0,0.0,0.0,0.0,0.0,0.0,0.0,0.0,0.0,0.0,0.0,0.0,0.0,0.0,0.0,0.0,0.0,0.0,0.0,0.0,0.0,0.0,0.0,0.0,0.0,0.0,0.0,0.0,0.0,0.0,0.0,0.0,0.0,0.0,0.0,0.0,0.0,0.0,0.0,0.0,0.0,0.0,0.0,0.0,0.0,0.0,0.0,0.0,0.0,0.0,0.0,0.0,0.0,0.0,0.0,0.0,0.0,0.0,0.0,0.0,0.0,0.0,0.0,0.0,0.0,0.0,0.0,0.0,0.0,0.0,0.0,-2.875,-2.875,-2.875,-2.875,-2.875,-2.8594,-2.5762,-2.4336,-2.3984,-2.3848,0.0,0.0,0.0,0.0,0.0,0.0,0.0,0.0,0.0,0.0,0.0,0.0,0.0,0.0,0.0,0.0,0.0,0.0,0.0,0.0,0.0,0.0,-3.0898,-3.0898,-3.1699,0.0,0.0,0.0,0.0,0.0,0.0,0.0,0.0,0.0,0.0,0.0,0.0,0.0,-3.7128,-3.7775,-3.7675,-3.6952,-3.6006,0.0,0.0,0.0,0.0,0.0,0.0,0.0,0.0,0.0,0.0,0.0,0.0,0.0,0.0,0.0,0.0,0.0,0.0,0.0,0.0,0.0,0.0,0.0,0.0,0.0,0.0,0.0,0.0,0.0,0.0,0.0,0.0,0.0,0.0,0.0,0.0,0.0,0.0,0.0,0.0,0.0,0.0,0.0,-2.5703,-2.5703,0.0,0.0,0.0,0.0,0.0,0.0,0.0,0.0,0.0,0.0,0.0,0.0,0.0,-2.9316,-2.9434,-3.0176,-3.0566,-3.0566,-3.0566,-3.0566,-3.0566,-3.0566,-3.0566,-3.0527,-3.0078,0.0,-2.7559,-2.6797,0.0,0.0,0.0,0.0,0.0,0.0,0.0,0.0,0.0,0.0,0.0,0.0,0.0,0.0,0.0,0.0,0.0,0.0,0.0,0.0,0.0,-3.0898,-3.0898,-3.0898,-3.2109,-3.3027,0.0,0.0,0.0,0.0,0.0,0.0,0.0,0.0,0.0,0.0,-3.7598,-3.8027,-3.8047,-3.8357,-3.8288,-3.7854,-3.7338,-3.6542,-3.5544,-3.5521,0.0,0.0,0.0,0.0,0.0,0.0,0.0,0.0,0.0,0.0,0.0,0.0,0.0,0.0,0.0,0.0,0.0,0.0,0.0,0.0,0.0,0.0,0.0,0.0,0.0,0.0,0.0,0.0,0.0,0.0,0.0,0.0,0.0,0.0,0.0,0.0,0.0,0.0,0.0,-2.6426,-2.6602,-2.7109,-2.6738,-2.6621,0.0,0.0,0.0,0.0,0.0,0.0,0.0,0.0,0.0,-3.0488,-3.0859,-3.1504,-3.2461,-3.2832,-3.3281,-3.3769,-3.3769,-3.3769,-3.3769,-3.3769,-3.3496,-3.3047,-3.3047,-3.2324,-3.1035,-2.9219,-2.8164,-2.7656,0.0,0.0,0.0,0.0,-2.6015,-2.5954,0.0,0.0,0.0,0.0,0.0,0.0,0.0,0.0,0.0,0.0,0.0,0.0,-3.0898,-3.0898,-3.0898,-3.0898,-3.2422,-3.3398,-3.3398,0.0,0.0,0.0,0.0,0.0,0.0,0.0,0.0,-3.7637,-3.8516,-3.8926,-3.8945,-3.916,-3.9099,-3.8788,-3.8675,-3.7633,-3.5935,-3.5849,-3.5692,0.0,0.0,0.0,0.0,0.0,0.0,0.0,0.0,0.0,0.0,0.0,0.0,0.0,0.0,0.0,0.0,0.0,0.0,0.0,0.0,0.0,0.0,0.0,0.0,0.0,0.0,0.0,0.0,0.0,0.0,0.0,0.0,0.0,0.0,0.0,0.0,0.0,0.0,-2.7324,-2.7656,-2.8535,-2.8066,-2.8008,0.0,0.0,0.0,0.0,0.0,0.0,-3.0898,-3.1738,-3.25,-3.3144,-3.3398,-3.4101,-3.5351,-3.5586,-3.6016,-3.668,-3.668,-3.668,-3.668,-3.668,-3.6309,-3.5703,-3.5703,-3.5195,-3.418,-3.1406,-2.9883,-2.9277,-2.9043,-2.8828,-2.8633,-2.8633,-2.8496,-2.8203,0.0,0.0,0.0,0.0,0.0,0.0,0.0,0.0,0.0,0.0,0.0,-3.0898,-3.0898,-3.0898,-3.0898,-3.0898,-3.2422,-3.3398,-3.3398,-3.5039,0.0,0.0,0.0,0.0,0.0,0.0,0.0,-3.8535,-3.9414,-3.9824,-3.9844,-4.0684,-4.0625,-3.9824,-3.9619,-3.852,-3.6841,-3.6704,-3.6192,-3.55,0.0,0.0,0.0,0.0,0.0,0.0,0.0,0.0,0.0,0.0,0.0,0.0,0.0,0.0,0.0,0.0,0.0,0.0,0.0,0.0,0.0,0.0,0.0,0.0,0.0,0.0,0.0,0.0,0.0,0.0,0.0,0.0,0.0,0.0,0.0,0.0,0.0,0.0,0.0,-2.9434,-2.9492,0.0,0.0,0.0,0.0,-3.1934,-3.2754,-3.3574,-3.4394,-3.5273,-3.5762,-3.5801,-3.6601,-3.707,-3.7168,-3.7988,-3.8437,-3.8476,-3.8476,-3.8476,-3.8476,-3.8476,-3.8457,-3.8398,-3.8398,-3.791,-3.6836,-3.3457,-3.2031,-3.1914,-3.1094,-3.0254,-2.9531,-2.9531,-2.9004,-2.8281,0.0,0.0,0.0,0.0,0.0,0.0,0.0,0.0,0.0,-2.8301,-2.9824,-3.0898,-3.0898,-3.1406,-3.1738,-3.1738,-3.3262,-3.4238,-3.4238,0.0,0.0,0.0,0.0,0.0,0.0,0.0,-3.9121,-3.9434,-4.082,-4.1504,-4.1523,-4.2402,-4.2322,-4.1447,-4.1273,-4.0207,-3.8463,-3.7803,-3.7046,-3.6269,-3.6269,-3.5962,0.0,0.0,0.0,0.0,0.0,0.0,0.0,0.0,0.0,0.0,0.0,0.0,0.0,0.0,0.0,0.0,0.0,0.0,0.0,0.0,0.0,0.0,0.0,0.0,0.0,0.0,0.0,0.0,0.0,0.0,0.0,0.0,0.0,0.0,0.0,0.0,0.0,-3.1875,-3.2051,0.0,-3.3262,-3.3848,-3.4316,-3.4629,-3.543,-3.6055,-3.6367,-3.7207,-3.7676,-3.7676,-3.7969,-3.8418,-3.8965,-3.9277,-3.9726,-4.0273,-4.0273,-4.0273,-4.0273,-4.0273,-3.9961,-3.9434,-3.9434,-3.8945,-3.8047,-3.6816,-3.5332,-3.3711,-3.2851,-3.2324,-3.2051,-3.2051,-3.1855,-3.1582,0.0,0.0,0.0,0.0,0.0,0.0,0.0,0.0,0.0,-2.8301,-2.9824,-3.1016,-3.1309,-3.1855,-3.2422,-3.2988,-3.4336,-3.5254,-3.5566,0.0,0.0,0.0,0.0,0.0,0.0,-3.9883,-4.0469,-4.0742,-4.2148,-4.2832,-4.2851,-4.3437,-4.3354,-4.2731,-4.2601,-4.1698,-4.0233,-3.9576,-3.845,-3.7142,-3.7142,-3.6635,-3.5904,0.0,0.0,0.0,0.0,0.0,0.0,0.0,0.0,0.0,0.0,0.0,0.0,0.0,0.0,0.0,0.0,0.0,0.0,0.0,0.0,0.0,0.0,0.0,0.0,0.0,0.0,0.0,0.0,0.0,0.0,0.0,0.0,0.0,0.0,0.0,-3.2695,-3.4101,-3.4531,-3.5059,-3.5937,-3.6543,-3.6875,-3.6875,-3.7676,-3.8184,-3.8184,-3.9004,-3.9473,-3.9473,-3.9473,-3.9746,-4.0332,-4.0332,-4.0625,-4.1191,-4.1191,-4.1191,-4.1191,-4.1191,-4.0879,-4.0332,-4.0332,-4.0019,-3.9453,-3.916,-3.8027,-3.6367,-3.5488,-3.4961,-3.4687,-3.4394,-3.4082,-3.3809,0.0,0.0,0.0,0.0,0.0,0.0,0.0,0.0,0.0,-2.8301,-2.9824,-3.123,-3.2109,-3.2226,-3.291,-3.459,-3.5547,-3.6406,-3.7285,-3.8125,0.0,0.0,0.0,0.0,-3.9961,-4.0801,-4.1621,-4.2441,-4.3301,-4.373,-4.373,-4.3769,-4.3725,-4.3621,-4.3509,-4.2928,-4.2034,-4.1894,-4.0412,-3.8104,-3.8065,-3.7526,-3.6731,0.0,0.0,0.0,0.0,0.0,0.0,0.0,0.0,0.0,0.0,0.0,0.0,0.0,0.0,0.0,0.0,0.0,0.0,0.0,0.0,0.0,0.0,0.0,0.0,0.0,0.0,0.0,0.0,0.0,0.0,0.0,0.0,0.0,-3.2559,-3.373,-3.5098,-3.5976,-3.6855,-3.7715,-3.8555,-3.8672,-3.8672,-3.8672,-3.9453,-3.9941,-3.9922,-4.0723,-4.1191,-4.1191,-4.1191,-4.1191,-4.1191,-4.1191,-4.1191,-4.1191,-4.1191,-4.1191,-4.1191,-4.1191,-4.1191,-4.1191,-4.1191,-4.1191,-4.1133,-4.0293,-3.9941,-3.9844,-3.8945,-3.8086,-3.7246,-3.6387,-3.5547,-3.4707,0.0,0.0,0.0,0.0,0.0,0.0,0.0,0.0,-2.8301,-2.8301,-2.9824,-3.123,-3.2109,-3.2715,-3.3769,-3.5488,-3.6445,-3.7305,-3.8184,0.0,0.0,0.0,0.0,0.0,-4.168,-4.1953,-4.248,-4.334,-4.4219,-4.4648,-4.4668,-4.5293,-4.516,-4.4409,-4.4363,-4.3779,-4.2799,-4.2763,-4.197,-4.0662,-3.9431,-3.8411,-3.7565,0.0,0.0,0.0,0.0,0.0,0.0,0.0,0.0,0.0,0.0,0.0,0.0,0.0,0.0,0.0,0.0,0.0,0.0,0.0,0.0,0.0,0.0,0.0,0.0,0.0,0.0,0.0,0.0,0.0,0.0,0.0,0.0,-3.5435,-3.5019,-3.5898,-3.6914,-3.7773,-3.8652,-3.9277,-3.9512,-4.0117,-4.0488,-4.0488,-4.0703,-4.0799,-4.0704,-4.0917,-4.1054,-4.1054,-4.1054,-4.1054,-4.1054,-4.115,-4.115,-4.1054,-4.115,-4.1191,-4.1191,-4.1191,-4.1191,-4.1191,-4.1191,-4.1191,-4.1172,-4.0937,-4.084,-4.0684,-3.9199,-3.8457,-3.8203,-3.7969,-3.7734,-3.7402,0.0,0.0,0.0,0.0,0.0,0.0,0.0,0.0,-2.8301,-2.8301,-2.9824,-3.123,-3.2109,-3.293,-3.4101,-3.5859,-3.7129,-3.8203,-3.9082,0.0,0.0,0.0,0.0,-4.1406,-4.2383,-4.3125,-4.373,-4.4238,-4.5117,-4.5547,-4.5566,-4.6055,-4.5916,-4.5203,-4.5203,-4.461,-4.3605,-4.3605,-4.3124,-4.2239,-4.0893,-3.9623,-3.8488,-3.7988,-3.7565,-3.7065,-3.5738,-3.4718,-3.3814,-3.2602,0.0,0.0,0.0,0.0,0.0,0.0,0.0,0.0,0.0,0.0,0.0,0.0,0.0,0.0,0.0,0.0,0.0,0.0,0.0,0.0,0.0,0.0,0.0,0.0,-3.648,-3.7533,-3.7617,-3.8025,-3.8489,-3.8996,-3.9837,-4.0364,-4.0364,-4.0813,-4.1149,-4.1191,-4.115,-4.108,-4.0998,-4.0952,-4.0917,-4.0917,-4.0917,-4.0917,-4.0917,-4.0992,-4.0992,-4.0917,-4.1052,-4.1126,-4.1126,-4.1171,-4.1191,-4.1191,-4.1191,-4.1191,-4.1191,-4.1191,-4.1191,-4.1094,0.0,0.0,0.0,0.0,-3.8906,-3.8535,0.0,0.0,0.0,0.0,0.0,0.0,0.0,0.0,-2.8301,-2.8301,-2.9824,-3.123,-3.2109,-3.2832,-3.4004,-3.584,-3.7402,-3.8769,0.0,0.0,0.0,-4.1328,-4.2012,-4.248,-4.2695,-4.4297,-4.5195,-4.5293,-4.6172,-4.6582,-4.6582,-4.6582,-4.6406,-4.6076,-4.6044,-4.547,-4.4474,-4.4449,-4.397,-4.3162,-4.2297,-4.1008,-3.9573,-3.9381,-3.8815,-3.8027,-3.7161,-3.6269,-3.525,-3.3718,0.0,0.0,0.0,0.0,0.0,0.0,0.0,0.0,0.0,0.0,0.0,0.0,0.0,0.0,0.0,0.0,0.0,0.0,0.0,0.0,0.0,0.0,0.0,0.0,-3.8207,-3.9745,-3.9976,-3.9896,-3.9828,-3.9841,-4.0522,-4.0986,-4.0986,-4.0986,-4.1025,-4.1149,-4.1031,-4.0964,-4.0976,-4.085,0.0,0.0,0.0,-4.08,-4.08,-4.0793,-4.0793,-4.0781,-4.0914,-4.099,-4.0998,-4.1127,-4.1191,-4.1191,-4.1191,-4.1191,-4.1191,-4.1191,-4.1191,-4.1191,-4.1191,-4.1191,-4.1113,-4.0332,-3.9551,-3.8887,0.0,0.0,0.0,0.0,0.0,0.0,0.0,0.0,-2.8301,-2.8301,-2.9824,-3.123,-3.2109,-3.2344,-3.3398,-3.5781,-3.6309,-3.7461,0.0,0.0,-4.1484,-4.2148,-4.2324,-4.3066,-4.4473,-4.5527,-4.6387,-4.7109,-4.7969,-4.8398,-4.8398,-4.8398,-4.7942,-4.7106,-4.6999,-4.6404,-4.551,-4.5382,-4.4855,-4.3989,-4.3181,-4.2239,-4.1181,-3.9815,-3.9207,-3.8931,-3.8065,-3.6769,-3.5442,-3.5115,-3.3519,-3.1679,-3.1506,0.0,0.0,0.0,0.0,0.0,0.0,0.0,0.0,0.0,0.0,0.0,0.0,0.0,0.0,0.0,0.0,0.0,0.0,0.0,0.0,-3.8669,-3.9207,-3.9733,-4.0529,-4.055,-4.0565,-4.073,-4.0791,-4.0847,-4.0847,-4.0847,-4.0854,-4.0874,-4.0857,-4.0813,-4.0752,-4.074,-4.0724,-4.0724,-4.0724,-4.0724,-4.0724,-4.077,-4.077,-4.0724,-4.0796,0.0,-4.0996,-4.1025,-4.1102,-4.1191,-4.1191,-4.1191,-4.1191,-4.1191,-4.1191,-4.1191,-4.1191,-4.1191,-4.1172,-4.1016,-4.084,-4.0605,0.0,0.0,0.0,0.0,0.0,0.0,0.0,0.0,-2.8301,-2.8301,-2.9824,-3.1074,-3.1504,-3.1934,-3.2871,-3.4551,-3.6289,0.0,0.0,-4.0723,-4.1562,-4.2363,-4.2812,-4.3652,-4.4961,-4.6289,-4.7168,-4.7598,-4.8476,-4.8906,-4.8906,-4.8906,-4.8354,-4.7396,-4.726,-4.6673,-4.579,-4.5668,-4.5344,-4.4836,-4.3605,-4.2835,-4.2258,-4.0546,-3.99,-3.9785,-3.895,-3.7834,-3.6615,-3.5788,-3.4372,-3.2795,-3.1968,-3.141,-3.0962,0.0,0.0,0.0,0.0,0.0,0.0,0.0,0.0,0.0,0.0,0.0,0.0,0.0,0.0,-3.5895,0.0,0.0,-3.8529,-3.9359,-3.9813,-4.022,-4.0723,-4.0732,-4.0735,-4.0843,-4.0785,-4.0747,-4.0747,-4.0747,-4.0757,-4.0793,-4.0766,-4.0736,-4.0703,-4.0643,-4.0596,-4.0596,-4.0596,-4.0596,-4.0596,-4.0623,-4.0665,-4.0697,-4.0761,-4.087,-4.0996,-4.1077,-4.1148,-4.1191,-4.1191,-4.1191,-4.1191,-4.1191,-4.1191,-4.1191,-4.1191,-4.1191,-4.1191,-4.1191,-4.1191,-4.1133,0.0,0.0,0.0,0.0,0.0,0.0,0.0,0.0,0.0,-2.8281,-2.9668,-3.0703,-3.0879,-3.1523,-3.2344,0.0,0.0,0.0,0.0,-4.0469,-4.1387,-4.2363,-4.3223,-4.4101,-4.498,-4.6719,-4.7598,-4.7598,-4.8476,-4.8906,-4.8906,-4.8906,-4.8354,-4.7396,-4.726,-4.6673,-4.579,-4.5668,-4.5498,-4.5229,-4.3701,-4.3008,-4.2681,-4.1112,-4.0496,-4.0419,-3.9765,-3.8873,-3.7796,-3.6442,-3.5199,-3.3936,-3.241,-3.1833,-3.1564,-3.0865,-3.0654,0.0,0.0,0.0,0.0,0.0,0.0,0.0,0.0,0.0,-3.4921,-3.5066,-3.6369,-3.7438,-3.7309,-3.8586,-3.9629,-3.9623,-4.0197,-4.0678,-4.0738,-4.0693,-4.0655,-4.0655,-4.0655,-4.0655,-4.0655,-4.0655,-4.069,-4.0743,-4.0688,-4.0655,-4.0655,-4.0575,-4.0534,-4.0496,-4.0534,-4.0534,-4.0496,-4.0496,-4.0552,-4.0655,-4.0747,-4.0843,-4.0962,-4.1103,-4.1171,-4.1191,-4.1191,-4.1191,-4.1191,-4.1191,-4.1191,-4.1191,-4.1191,-4.1191,-4.1191,-4.1191,-4.1191,-4.1191,0.0,0.0,0.0,0.0,0.0,0.0,0.0,0.0,0.0,-2.8203,-2.9141,-3.0039,-3.082,-3.0996,0.0,0.0,0.0,0.0,-3.8633,-3.9551,-4.0742,-4.2324,-4.3223,-4.4101,-4.498,-4.6719,-4.7598,-4.7598,-4.8476,-4.8906,-4.8906,-4.8906,-4.8354,-4.7396,-4.726,-4.6673,-4.579,-4.5668,-4.5152,-4.4374,-4.3451,-4.2643,-4.1835,-4.0881,-4.0496,-4.0496,-4.04,-3.9361,-3.7969,-3.7777,-3.6142,-3.4032,-3.3064,-3.2275,-3.1679,-3.1583,0.0,-3.1718,-3.2429,-3.267,-3.2725,-3.2777,-3.3461,-3.4322,0.0,0.0,-3.6729,-3.7449,-3.8426,-3.9118,-3.9035,-3.9863,-4.0513,-4.0403,-4.045,-4.0515,-4.0537,-4.0523,-4.0527,-4.0527,-4.0527,-4.0527,-4.0527,-4.0527,-4.0534,-4.0518,-4.0523,-4.0527,-4.0527,-4.0623,-4.0623,-4.0504,-4.0616,-4.0623,-4.0496,-4.0496,-4.0504,-4.0508,-4.0649,-4.0742,-4.0839,-4.0959,-4.1081,-4.1191,-4.1191,-4.1191,-4.1191,-4.1191,-4.1191,-4.1191,-4.1191,-4.1191,-4.1191,-4.1191,-4.1191,-4.1191,0.0,0.0,0.0,0.0,0.0,0.0,0.0,0.0,0.0,0.0,0.0,-2.9922,-3.0801,0.0,0.0,0.0,0.0,0.0,-3.7031,-3.8848,-4.0449,-4.1641,-4.25,-4.3359,-4.4219,-4.5957,-4.6836,-4.6836,-4.8223,-4.8906,-4.8906,-4.8821,-4.8298,-4.7396,-4.7213,-4.6362,-4.5034,-4.4897,-4.4355,-4.3528,-4.2681,-4.2143,-4.1654,-4.0315,-3.9804,-3.9804,-3.9804,-3.9027,0.0,0.0,-3.5892,-3.4052,-3.316,-3.2679,-3.2314,-3.1833,-3.2025,0.0,-3.2814,-3.3281,-3.3812,0.0,-3.5078,-3.5956,-3.6766,-3.7634,-3.8355,-3.8695,-3.9446,-4.0034,-3.9992,-4.0314,-4.0566,0.0,-4.0496,-4.0496,-4.0496,-4.0496,-4.0496,-4.0496,-4.0496,-4.0496,-4.0496,-4.0574,-4.0616,-4.0616,-4.0653,-4.0665,-4.0623,-4.071,-4.0701,-4.0623,-4.0661,-4.0667,-4.0616,-4.0616,-4.0616,-4.0616,-4.0701,-4.0809,-4.0917,-4.0966,-4.1078,-4.1191,-4.1191,-4.1191,-4.1191,-4.1191,-4.1191,-4.1191,-4.1191,-4.1191,-4.1191,-4.1191,-4.1191,-4.1191,0.0,0.0,0.0,0.0,0.0,0.0,0.0,0.0,0.0,0.0,0.0,0.0,0.0,0.0,0.0,0.0,0.0,0.0,0.0,-3.7773,-3.9434,-4.0781,-4.1621,-4.2461,-4.332,-4.4805,-4.5586,-4.5586,-4.6855,-4.7461,-4.7438,-4.7339,-4.6916,-4.6245,-4.6091,-4.5299,-4.4116,-4.4005,-4.3489,-4.2701,-4.2038,-4.1519,-4.0989,-3.9758,-3.8996,-3.8604,-3.8854,-3.8238,0.0,0.0,-3.5584,-3.409,-3.3449,-3.3256,-3.3141,-3.2564,-3.3122,-3.3949,-3.3949,-3.4584,-3.5391,-3.6019,-3.6815,-3.7584,-3.82,-3.9008,-3.9631,-3.9631,-4.0092,-4.0496,-4.0496,-4.0496,-4.0496,-4.0496,-4.0496,-4.0496,-4.0496,-4.0496,-4.0496,-4.0496,-4.0496,-4.0519,-4.0552,-4.063,-4.0715,-4.074,-4.0757,-4.0752,-4.0703,-4.0757,-4.0766,-4.0703,-4.0761,-4.0762,-4.0721,-4.0721,-4.0721,-4.0721,-4.0813,-4.0911,-4.0996,-4.1049,-4.1105,-4.1191,-4.1191,-4.1191,-4.1191,-4.1191,-4.1191,-4.1191,-4.1191,-4.1191,-4.1191,-4.1191,-4.1191,-4.1191,0.0,0.0,0.0,0.0,0.0,0.0,0.0,0.0,0.0,0.0,0.0,0.0,0.0,0.0,0.0,0.0,0.0,0.0,0.0,-3.6074,-3.7266,-3.9824,-4.0762,-4.1601,-4.2422,-4.332,-4.3789,-4.3789,-4.3828,-4.3824,-4.3753,-4.3753,-4.3598,-4.3323,-4.3317,-4.3252,-4.3132,-4.3143,-4.2624,-4.1846,-4.1808,-4.0835,-3.9381,-3.9323,-3.8257,-3.6885,-3.7738,0.0,0.0,0.0,-3.5584,-3.4205,-3.4167,-3.4167,0.0,-3.4129,-3.5295,-3.6577,-3.6577,-3.7219,-3.7892,-3.7911,-3.8584,-3.9227,-3.9246,-3.9881,-4.0458,-4.0458,-4.0477,-4.0496,-4.0496,-4.0496,-4.0496,-4.0496,-4.0496,-4.0496,-4.0496,-4.0496,-4.0496,-4.0496,-4.0496,-4.0552,0.0,-4.0697,-4.074,-4.0785,-4.0747,-4.0703,-4.0697,-4.0757,-4.0766,-4.0703,-4.0896,-4.0922,-4.0793,-4.0793,-4.0793,-4.0793,-4.0925,-4.0994,-4.0998,-4.1129,-4.1191,-4.1191,-4.1191,-4.1191,-4.1191,-4.1191,-4.1191,-4.1191,-4.1191,-4.1191,-4.1191,-4.1191,-4.1191,-4.1191,0.0,0.0,0.0,0.0,0.0,0.0,0.0,0.0,0.0,0.0,0.0,0.0,0.0,0.0,0.0,0.0,0.0,0.0,0.0,-3.4512,-3.5781,-3.7246,-3.8144,-3.9277,-4.0703,-4.1601,-4.2305,-4.2832,-4.3418,-4.3667,-4.3595,-4.3509,-4.3368,-4.3208,-4.3139,-4.2811,-4.2239,-4.2239,-4.1431,-4.0142,-4.0142,-3.9104,-3.7526,-3.6988,-3.6065,-3.5007,0.0,0.0,0.0,-3.4276,-3.3449,-3.2622,-3.316,-3.3333,-3.366,-3.5353,-3.6257,-3.6827,-3.7411,-3.82,-3.8854,-3.8854,-3.9477,-4.0092,-4.0092,-4.0304,-4.0496,-4.0496,-4.0496,-4.0496,-4.0496,-4.0496,-4.0496,-4.0496,-4.0496,-4.0496,-4.0496,-4.0496,-4.0496,-4.0496,-4.0496,0.0,0.0,0.0,0.0,-4.0797,-4.087,-4.0848,-4.0709,-4.0757,-4.0781,-4.0761,-4.0832,-4.0854,-4.0797,-4.088,-4.087,-4.0736,-4.0902,-4.0996,-4.0998,-4.1149,-4.1191,-4.1191,-4.1191,-4.1191,-4.1191,-4.1191,-4.1191,-4.1191,-4.1191,-4.1191,-4.1191,-4.1191,-4.1191,-4.1191,0.0,0.0,0.0,0.0,0.0,0.0,0.0,0.0,0.0,0.0,0.0,0.0,0.0,0.0,0.0,0.0,0.0,0.0,0.0,0.0,-3.4316,-3.5488,-3.6074,-3.7187,-3.8926,-3.9512,-4.0215,-4.1035,-4.1561,-4.176,-4.1707,-4.1579,-4.1479,-4.1338,-4.1301,-4.0969,-4.045,-4.045,-3.9815,-3.8815,-3.8488,-3.7526,-3.6173,-3.5353,-3.4314,0.0,0.0,0.0,0.0,-3.2891,-3.2372,-3.1891,-3.3006,-3.3776,-3.4584,-3.6212,-3.7142,-3.7757,-3.8315,-3.9084,-3.9727,-3.9727,-4.0112,-4.0496,-4.0496,-4.0496,-4.0496,-4.0496,-4.0496,-4.0496,-4.0496,-4.0496,-4.0496,-4.0496,-4.0496,-4.0496,-4.0496,-4.0496,-4.0496,-4.0496,-4.0496,-4.0552,0.0,0.0,0.0,-4.0797,-4.0866,-4.0843,-4.0709,-4.0747,-4.0757,-4.0757,-4.0796,-4.0797,-4.0797,-4.0899,-4.087,-4.0742,-4.095,-4.1051,-4.0998,-4.1149,-4.1191,-4.1191,-4.1191,-4.1191,-4.1191,-4.1191,-4.1191,-4.1191,-4.1191,-4.1191,-4.1191,-4.1191,-4.1191,-4.1191,0.0,0.0,0.0,0.0,0.0,0.0,0.0,0.0,0.0,0.0,0.0,0.0,0.0,0.0,0.0,0.0,0.0,0.0,0.0,0.0,0.0,-3.4492,-3.457,-3.5371,-3.7129,-3.7168,-3.7597,-3.8457,-3.8322,-3.8234,-3.8163,-3.8103,-3.8001,-3.7873,-3.7873,-3.7873,-3.7873,-3.7873,-3.7853,-3.7738,-3.6911,-3.6058,-3.5212,-3.4391,0.0,0.0,0.0,0.0,0.0,0.0,0.0,0.0,-3.3628,-3.5315,-3.6712,-3.675,-3.7969,-3.9304,-3.9361,-3.9919,-4.0496,-4.0496,-4.0496,-4.0496,-4.0496,-4.0477,-4.0439,-4.0439,-4.04,-4.0362,0.0,0.0,-4.0439,-4.0439,-4.0477,-4.0496,-4.0496,-4.0496,-4.0496,0.0,0.0,0.0,0.0,0.0,0.0,-4.0909,0.0,-4.075,-4.0763,-4.0763,-4.075,-4.0697,-4.0752,-4.0789,-4.0789,-4.0789,-4.0797,-4.0809,-4.1077,-4.1127,-4.1002,-4.1149,-4.1191,-4.1191,-4.1191,-4.1191,-4.1191,-4.1191,-4.1191,-4.1191,-4.1191,-4.1191,-4.1191,-4.1191,-4.1191,-4.1191,0.0,0.0,0.0,0.0,0.0,0.0,0.0,0.0,0.0,0.0,0.0,0.0,0.0,0.0,0.0,0.0,0.0,0.0,0.0,0.0,0.0,0.0,0.0,0.0,0.0,0.0,0.0,0.0,0.0,-3.6398,-3.6299,-3.6266,-3.6223,-3.6135,-3.6135,-3.6135,-3.6135,-3.6135,-3.5757,-3.5148,0.0,-3.3968,-3.2641,0.0,0.0,0.0,0.0,0.0,0.0,0.0,0.0,0.0,0.0,-3.4834,-3.6827,-3.7488,-3.843,-3.9438,-4.0035,-4.0342,-4.0496,-4.0496,-4.0496,-4.0496,-4.0496,-4.0035,-3.9611,-3.9611,-3.9084,-3.8642,0.0,0.0,0.0,-3.9611,-4.0112,0.0,-4.0496,-4.0496,0.0,-4.0496,0.0,-4.0762,-4.1443,-4.152,0.0,0.0,-4.1983,-4.1629,-4.1508,-4.152,-4.1277,-4.0711,-4.0718,-4.0735,-4.0735,-4.0735,-4.0799,-4.0955,-4.1021,-4.1081,-4.115,-4.1172,-4.1191,-4.1191,-4.1191,-4.1191,-4.1191,-4.1191,-4.1191,-4.1191,-4.1191,-4.1191,-4.1191,-4.1191,-4.1191,-4.1191,0.0,0.0,0.0,0.0,0.0,0.0,0.0,0.0,0.0,0.0,0.0,0.0,0.0,0.0,0.0,0.0,0.0,0.0,0.0,0.0,0.0,0.0,0.0,0.0,0.0,0.0,0.0,0.0,0.0,0.0,0.0,-3.4447,-3.4395,-3.4365,-3.4365,-3.4365,-3.4365,-3.4365,0.0,0.0,0.0,0.0,0.0,0.0,0.0,0.0,0.0,0.0,0.0,0.0,0.0,-3.2968,-3.3353,-3.5218,-3.745,-3.8315,0.0,-3.9938,-4.0381,-4.0496,-4.0496,-4.0496,-4.0496,-4.0419,-4.0054,-3.9631,-3.9188,-3.8815,-3.8334,0.0,-3.8007,-3.8392,0.0,0.0,0.0,0.0,-4.0458,-4.0496,-4.0496,0.0,-4.0843,0.0,-4.175,-4.2162,-4.272,0.0,-4.2919,-4.2278,-4.1816,-4.1788,-4.1439,-4.0648,-4.061,-4.061,-4.061,-4.0661,-4.0735,-4.079,-4.086,-4.0939,-4.0986,-4.1014,-4.1054,-4.1105,-4.1105,-4.1149,-4.1191,-4.1191,-4.1191,-4.1191,-4.1191,-4.1191,-4.1191,-4.1191,-4.1191,-4.1191,0.0,0.0,0.0,0.0,0.0,0.0,0.0,0.0,0.0,0.0,0.0,0.0,0.0,0.0,0.0,0.0,0.0,0.0,0.0,0.0,0.0,0.0,0.0,0.0,0.0,0.0,0.0,0.0,0.0,0.0,0.0,0.0,0.0,0.0,0.0,0.0,0.0,0.0,0.0,0.0,0.0,0.0,0.0,0.0,0.0,0.0,0.0,0.0,0.0,0.0,-3.15,-3.3045,-3.3936,-3.5949,-3.8161,-3.9034,-3.9881,-4.0496,-4.0496,-4.0496,-4.0496,-4.0496,-4.0496,-4.0285,-3.9477,-3.9207,-3.8873,-3.8007,0.0,-3.7661,-3.7661,-3.7757,-3.8104,-3.8996,0.0,-3.9573,-4.04,-4.0496,-4.0496,-4.0496,-4.1162,-4.172,-4.1942,-4.2662,-4.347,-4.4393,-4.372,-4.2874,-4.2019,-4.1962,-4.1527,-4.0535,-4.0496,-4.0496,-4.0496,-4.0616,-4.063,-4.0542,-4.0692,-4.0771,-4.0713,-4.0775,-4.087,-4.0996,-4.0988,-4.1052,-4.1171,-4.1171,-4.1171,-4.1171,-4.1191,-4.1191,-4.1191,-4.1191,-4.1191,-4.1191,0.0,0.0,0.0,0.0,0.0,0.0,0.0,0.0,0.0,0.0,0.0,0.0,0.0,0.0,0.0,0.0,0.0,0.0,0.0,0.0,0.0,0.0,0.0,0.0,0.0,0.0,0.0,0.0,0.0,0.0,0.0,0.0,0.0,0.0,0.0,0.0,0.0,0.0,0.0,0.0,0.0,0.0,0.0,0.0,0.0,0.0,0.0,0.0,0.0,0.0,-3.15,-3.3045,-3.3936,-3.5949,-3.8161,-3.9034,-3.9881,-4.0496,-4.0496,-4.0496,-4.0496,-4.0496,-4.0496,-4.0285,-3.9477,-3.8738,0.0,0.0,-3.6404,-3.5923,-3.5923,-3.6481,-3.7219,-3.8084,0.0,0.0,0.0,0.0,-4.0496,0.0,0.0,0.0,0.0,-4.3008,0.0,0.0,-4.4586,-4.3739,-4.2912,-4.2874,-4.2143,-4.0554,-4.0496,-4.0496,-4.0496,-4.0527,-4.0588,-4.0681,-4.0696,-4.0747,-4.0768,-4.0789,-4.087,-4.0994,-4.0877,-4.0914,-4.1028,-4.1028,-4.1028,-4.1051,-4.115,-4.1191,-4.1191,-4.1191,-4.1191,-4.1191,0.0,0.0,0.0,0.0,0.0,0.0,0.0,0.0,0.0,0.0,-2.5629,-2.5787,0.0,0.0,0.0,0.0,0.0,0.0,0.0,0.0,0.0,0.0,0.0,0.0,0.0,0.0,-2.8867,-2.9259,0.0,0.0,0.0,-2.9102,-2.9102,0.0,0.0,0.0,0.0,0.0,0.0,0.0,0.0,0.0,0.0,0.0,0.0,0.0,0.0,0.0,0.0,0.0,-3.1231,-3.2506,-3.3801,-3.5949,-3.8161,-3.9034,-3.9881,-4.0496,-4.0496,-4.0496,-4.0496,-4.0496,-4.0189,-3.9669,-3.8815,0.0,0.0,0.0,-3.5769,-3.55,-3.55,-3.5827,0.0,0.0,0.0,0.0,0.0,0.0,0.0,0.0,0.0,0.0,0.0,-4.2835,-4.3431,-4.4239,-4.3912,-4.3508,-4.3124,-4.2239,-4.1362,-4.0535,-4.0496,-4.0496,-4.0496,-4.0496,-4.0523,-4.0589,-4.0589,-4.0617,-4.0653,-4.1111,-4.1158,-4.0871,-4.128,-4.1252,-4.0908,-4.0964,-4.0996,-4.1017,-4.1077,-4.1149,-4.1191,-4.1191,-4.1191,-4.1191,0.0,0.0,0.0,0.0,0.0,0.0,0.0,-2.5637,-2.5602,-2.5602,-2.5547,-2.5545,-2.5657,-2.566,0.0,0.0,0.0,0.0,0.0,0.0,0.0,0.0,0.0,0.0,0.0,0.0,0.0,-2.8093,-2.796,0.0,0.0,0.0,0.0,0.0,-2.7895,-2.7895,0.0,0.0,0.0,0.0,0.0,-2.7895,0.0,0.0,0.0,0.0,0.0,0.0,0.0,0.0,-3.0981,-3.1929,-3.3256,-3.5411,-3.7719,-3.8938,-3.9746,-4.0285,-4.0458,-4.0496,-4.0458,-4.0285,-3.9765,-3.9015,-3.7969,-3.7199,0.0,0.0,-3.55,-3.55,-3.55,0.0,-3.5769,0.0,-3.7276,0.0,0.0,0.0,0.0,0.0,0.0,0.0,0.0,-4.2431,0.0,-4.3085,-4.2931,-4.2816,-4.2816,-4.1362,-4.0496,-4.0496,-4.0496,-4.0496,-4.0496,-4.0496,-4.0496,-4.0496,-4.0496,-4.0496,-4.0516,-4.12,-4.1229,-4.0742,-4.1445,-4.1378,-4.0788,-4.089,-4.0936,-4.0936,-4.0952,-4.1049,-4.115,-4.115,-4.1171,-4.1191,0.0,0.0,0.0,0.0,0.0,0.0,0.0,-2.5637,-2.5602,-2.5602,-2.5547,-2.5496,-2.5526,-2.5526,0.0,0.0,0.0,0.0,0.0,0.0,0.0,0.0,0.0,0.0,0.0,0.0,0.0,-2.8093,-2.796,0.0,0.0,0.0,0.0,0.0,0.0,-2.7895,-2.7895,-2.7895,0.0,0.0,0.0,0.0,0.0,0.0,0.0,0.0,0.0,0.0,0.0,0.0,0.0,-3.1737,-3.1891,-3.3673,-3.6192,-3.8604,0.0,0.0,-4.0304,-4.0496,-4.0323,-3.9592,-3.9361,-3.8854,-3.7199,0.0,0.0,-3.5673,-3.55,-3.55,-3.55,-3.55,-3.5769,0.0,0.0,-3.7411,0.0,0.0,0.0,0.0,0.0,0.0,0.0,-4.1865,-4.2258,-4.3047,-4.2374,-4.1923,-4.1923,-4.1008,-4.0496,-4.0496,-4.0496,-4.0496,-4.0496,-4.0496,-4.0496,-4.0496,-4.0496,-4.0496,-4.0496,-4.0573,-4.0658,-4.0692,-4.0653,-4.0661,-4.0701,-4.0713,-4.0718,-4.0735,-4.0792,-4.0908,-4.1021,-4.1021,-4.1102,-4.1191,0.0,0.0,0.0,0.0,0.0,0.0,0.0,-2.5529,-2.5485,-2.5471,-2.5418,-2.5372,-2.5372,-2.5372,-2.5418,0.0,0.0,0.0,0.0,0.0,0.0,0.0,0.0,0.0,0.0,0.0,-2.6165,-2.6473,-2.6379,0.0,0.0,0.0,0.0,0.0,0.0,-2.6351,-2.6351,0.0,0.0,0.0,0.0,0.0,0.0,0.0,0.0,0.0,0.0,0.0,0.0,0.0,0.0,0.0,-3.1371,-3.241,0.0,0.0,-3.7738,-3.8584,-3.8911,-3.8988,-3.8911,-3.8604,-3.8123,-3.7546,-3.6865,0.0,-3.5885,-3.5577,-3.55,-3.55,-3.55,-3.55,-3.5596,-3.5923,0.0,0.0,0.0,0.0,0.0,0.0,0.0,0.0,0.0,0.0,-4.1162,-4.1516,-4.12,-4.1008,-4.1008,-4.0689,-4.0496,-4.0496,-4.0496,-4.0496,-4.0496,-4.0496,-4.0496,-4.0496,-4.0496,-4.0496,-4.0516,-4.1046,-4.1035,-4.0607,-4.117,-4.1086,-4.0595,-4.0681,-4.0697,-4.0703,-4.0726,-4.0807,-4.0874,-4.0874,-4.0914,-4.0959,0.0,0.0,0.0,0.0,0.0,0.0,-2.5491,-2.5444,-2.5406,-2.539,-2.5329,-2.5308,-2.5308,-2.5308,-2.5247,-2.5108,0.0,0.0,0.0,0.0,0.0,0.0,0.0,0.0,0.0,0.0,-2.5453,-2.5406,-2.533,-2.5308,0.0,0.0,-2.5308,-2.5308,0.0,0.0,0.0,0.0,0.0,0.0,0.0,0.0,0.0,0.0,0.0,0.0,0.0,0.0,0.0,0.0,0.0,0.0,0.0,0.0,0.0,0.0,-3.6346,-3.7373,-3.7873,-3.8007,-3.793,-3.768,-3.6988,-3.6269,0.0,0.0,-3.4788,-3.5058,-3.5122,-3.5192,-3.5442,-3.5288,-3.5192,0.0,0.0,-3.6353,-3.7469,0.0,0.0,0.0,0.0,-4.0496,0.0,-4.0496,-4.0496,-4.0496,-4.0496,-4.0496,-4.0496,-4.0496,-4.0496,-4.0496,-4.0496,-4.0496,-4.0496,-4.0496,-4.0496,-4.0496,-4.0496,-4.0496,-4.0516,-4.1143,-4.1085,-4.0543,-4.1252,-4.1161,0.0,-4.0596,-4.0649,-4.0649,-4.0649,-4.0688,-4.0766,-4.0766,-4.0768,-4.0797,0.0,0.0,0.0,0.0,0.0,0.0,0.0,-2.545,-2.5394,-2.5394,-2.5329,-2.5308,-2.5308,-2.5308,-2.4986,-2.4187,0.0,0.0,0.0,0.0,0.0,0.0,0.0,0.0,0.0,0.0,0.0,-2.5398,-2.533,-2.5308,-2.5308,-2.5308,-2.5308,-2.5308,0.0,0.0,0.0,0.0,0.0,0.0,0.0,0.0,0.0,0.0,0.0,0.0,0.0,0.0,0.0,0.0,0.0,0.0,0.0,0.0,0.0,0.0,-3.5519,-3.5885,-3.7546,-3.8007,-3.7796,-3.6923,-3.6115,-3.5288,0.0,0.0,-3.316,-3.4052,-3.4205,-3.4468,-3.5346,-3.4795,-3.4507,-3.5365,-3.4776,0.0,-3.6481,0.0,0.0,0.0,0.0,-4.0496,-4.0496,-4.0496,-4.0496,-4.0496,-4.0496,0.0,-4.0496,-4.0496,-4.0496,-4.0496,-4.0496,-4.0496,-4.0496,-4.0496,-4.0496,-4.0496,-4.0496,-4.0496,-4.0496,-4.0516,-4.0516,-4.0496,-4.0516,-4.0516,0.0,-4.0496,-4.0496,-4.0496,-4.0496,-4.0575,-4.0697,-4.0697,-4.0732,-4.0797,0.0,0.0,0.0,0.0,0.0,0.0,0.0,-2.5357,-2.533,-2.533,-2.4841,-2.449,-2.449,-2.3947,-2.3485,-2.322,0.0,0.0,0.0,0.0,0.0,0.0,0.0,0.0,0.0,0.0,0.0,-2.3619,-2.3599,-2.3581,-2.3581,-2.3581,-2.3908,-2.449,-2.449,-2.4793,0.0,0.0,0.0,0.0,0.0,0.0,0.0,0.0,0.0,0.0,0.0,0.0,0.0,0.0,0.0,0.0,0.0,0.0,0.0,-3.2481,-3.3295,-3.3968,-3.5103,-3.5398,-3.5341,-3.5064,-3.4795,-3.4372,-3.3506,0.0,-3.2987,-3.3256,-3.3314,-3.3391,-3.368,-3.3506,-3.3603,-3.4468,-3.4379,0.0,0.0,0.0,0.0,0.0,-4.0015,-4.0496,0.0,0.0,-4.0496,-4.0496,-4.0496,-4.0496,-4.0496,-4.0496,-4.0496,-4.0496,-4.0496,-4.0496,-4.0496,-4.0496,-4.0496,-4.0496,-4.0496,-4.0496,-4.0496,-4.0496,-4.0496,-4.0496,-4.0496,-4.0496,-4.0496,-4.0496,-4.0496,-4.0496,-4.0496,-4.0534,-4.0566,-4.0566,-4.0582,-4.0597,0.0,0.0,0.0,0.0,0.0,0.0,0.0,-2.4851,-2.4736,-2.4404,-2.3913,-2.3605,-2.3605,-2.3124,-2.2663,-2.2331,0.0,0.0,0.0,0.0,0.0,0.0,0.0,0.0,0.0,-2.2866,-2.3006,-2.3297,-2.3297,-2.3451,-2.3735,-2.3735,-2.3875,-2.411,-2.411,-2.4202,0.0,0.0,0.0,0.0,0.0,0.0,-2.5308,0.0,0.0,0.0,0.0,0.0,0.0,0.0,0.0,0.0,0.0,0.0,0.0,0.0,-3.1558,-3.2218,0.0,-3.3705,-3.3705,-3.3705,-3.3468,0.0,0.0,0.0,-3.2045,-3.2372,-3.2449,-3.2545,-3.2833,-3.2641,-3.2833,-3.4013,-3.3917,0.0,0.0,0.0,0.0,-3.9611,0.0,0.0,0.0,-4.0496,-4.0496,-4.0496,-4.0496,-4.0496,-4.0496,-4.0496,-4.0496,-4.0496,-4.0496,-4.0496,-4.0496,-4.0496,-4.0496,-4.0496,-4.0496,-4.0496,-4.0496,-4.0496,-4.0496,-4.0496,-4.0496,-4.0496,0.0,-4.0496,-4.0496,-4.0496,-4.0496,-4.0496,-4.0496,-4.0496,-4.0496,-4.0496,0.0,0.0,0.0,0.0,0.0,0.0,0.0,0.0,0.0,0.0,-2.2759,-2.272,-2.272,-2.2663,-2.2293,0.0,0.0,0.0,0.0,0.0,0.0,0.0,0.0,0.0,0.0,-2.2682,-2.3105,-2.3918,-2.3975,-2.4394,-2.5115,-2.5115,-2.4755,-2.411,-2.4033,-2.3567,-2.2797,-2.2797,-2.3278,-2.4014,-2.4072,-2.4548,0.0,0.0,0.0,0.0,0.0,0.0,0.0,0.0,0.0,0.0,0.0,0.0,0.0,0.0,0.0,0.0,0.0,0.0,0.0,0.0,0.0,0.0,0.0,0.0,0.0,-3.1448,-3.1621,-3.1833,-3.2583,-3.216,-3.2237,-3.3859,0.0,0.0,0.0,-3.7507,0.0,0.0,-4.0496,0.0,-4.0496,-4.0496,-4.0496,-4.0496,-4.0496,-4.0496,-4.0496,-4.0496,-4.0496,-4.0496,-4.0496,-4.0496,-4.0496,-4.0496,-4.0496,-4.0496,-4.0496,-4.0496,-4.0496,-4.0496,-4.0496,-4.0496,-4.0496,-4.0496,-4.0496,-4.0496,-4.0496,-4.0496,-4.0496,-4.0496,-4.0496,-4.0496,-4.0496,-4.0496,0.0,0.0,0.0,0.0,0.0,0.0,0.0,0.0,0.0,0.0,0.0,-2.1812,-2.1812,-2.1254,0.0,0.0,0.0,0.0,0.0,0.0,0.0,0.0,0.0,0.0,0.0,-2.1485,-2.1908,-2.21,-2.2778,-2.3201,-2.3389,-2.3389,-2.3644,-2.4072,-2.3394,-2.299,-2.2797,-2.2797,-2.2913,-2.3163,-2.3841,-2.4206,0.0,0.0,0.0,0.0,-2.5308,-2.5308,0.0,0.0,0.0,0.0,0.0,0.0,0.0,0.0,-2.989,-3.05,-3.0885,0.0,-3.1987,-3.1987,-3.1833,0.0,0.0,0.0,0.0,0.0,0.0,0.0,0.0,0.0,0.0,0.0,0.0,0.0,-3.6442,0.0,0.0,-4.0381,-4.0496,-4.0496,-4.0496,-4.0496,-4.0496,-4.0496,-4.0496,-4.0496,-4.0496,-4.0496,-4.0496,-4.0496,-4.0496,-4.0496,-4.0496,-4.0496,-4.0496,-4.0496,-4.0496,-4.0496,-4.0496,-4.0496,-4.0496,-4.0496,-4.0496,-4.0496,-4.0496,-4.0496,-4.0496,-4.0496,-4.0496,-4.0496,-4.0496,-4.0496,-4.0496,-4.0496,0.0,0.0,0.0,0.0,0.0,0.0,0.0,0.0,0.0,0.0,0.0,0.0,0.0,0.0,0.0,0.0,0.0,0.0,0.0,0.0,0.0,0.0,0.0,0.0,0.0,-2.1273,-2.2077,-2.3231,-2.3716,-2.4159,-2.4543,-2.4543,-2.4375,-2.4033,-2.2778,-2.2004,-2.1658,-2.1658,-2.187,-2.2274,-2.3144,0.0,0.0,0.0,0.0,0.0,-2.5308,-2.5308,0.0,-2.5308,-2.5615,-2.6077,0.0,0.0,0.0,0.0,-2.9717,-3.0404,-3.0404,-3.0731,-3.1096,-3.1096,-3.1096,-3.0981,0.0,0.0,0.0,0.0,0.0,0.0,0.0,0.0,0.0,0.0,-3.4237,0.0,0.0,0.0,-4.0015,-4.0458,-4.0496,-4.0496,0.0,-4.0496,-4.0496,-4.0496,-4.0496,-4.0496,-4.0496,-4.0496,-4.0496,-4.0496,-4.0496,-4.0496,-4.0496,-4.0496,-4.0496,-4.0496,-4.0496,-4.0496,-4.0496,-4.0496,-4.0496,-4.0496,-4.0496,-4.0496,-4.0496,-4.0496,-4.0496,-4.0496,-4.0496,-4.0496,-4.0496,-4.0496,-4.0496,-4.0496,0.0,0.0,0.0,0.0,0.0,0.0,0.0,0.0,0.0,0.0,0.0,0.0,0.0,0.0,0.0,0.0,0.0,0.0,0.0,0.0,0.0,0.0,0.0,-2.0808,-2.1485,-2.1889,-2.3135,-2.5308,-2.5577,-2.6077,-2.6794,-2.6659,-2.562,-2.3841,-2.235,-2.1177,-2.0308,-2.0308,-2.0692,-2.1389,-2.2254,0.0,0.0,0.0,0.0,0.0,0.0,0.0,0.0,-2.5308,-2.5308,-2.5423,-2.6173,0.0,0.0,0.0,0.0,0.0,-3.0365,-3.0404,-3.0404,-3.0404,-3.0404,-3.0404,0.0,0.0,0.0,0.0,0.0,0.0,0.0,0.0,0.0,0.0,0.0,0.0,-3.8977,-3.9996,-4.0496,-4.0496,-4.0496,0.0,-4.0496,-4.0496,-4.0496,-4.0496,-4.0496,-4.0496,-4.0496,-4.0496,-4.0496,-4.0496,-4.0496,-4.0496,-4.0496,-4.0496,-4.0496,-4.0496,-4.0496,-4.0496,-4.0496,-4.0496,-4.0496,-4.0496,-4.0496,0.0,-4.0496,-4.0496,-4.0496,-4.0496,-4.0496,-4.0496,-4.0496,-4.0496,-4.0496,-4.0496,0.0,0.0,0.0,0.0,0.0,0.0,0.0,0.0,0.0,0.0,0.0,0.0,0.0,0.0,0.0,0.0,0.0,0.0,0.0,0.0,0.0,0.0,0.0,-2.137,-2.1504,-2.3615,-2.4904,-2.5308,-2.6774,-2.7563,-2.7678,-2.6948,-2.5313,-2.299,-2.272,-2.1735,-2.0308,-2.0308,-2.0365,-2.0558,-2.137,0.0,0.0,0.0,0.0,0.0,0.0,0.0,0.0,-2.5308,-2.5308,-2.5327,-2.5462,0.0,0.0,0.0,0.0,0.0,-3.0192,-3.0404,-3.0404,-3.0404,-3.0404,-3.0404,0.0,0.0,0.0,0.0,0.0,0.0,0.0,0.0,-3.3898,0.0,0.0,-3.8007,0.0,0.0,-4.0496,-4.0496,0.0,-4.0496,-4.0496,-4.0496,-4.0496,-4.0496,-4.0496,-4.0496,-4.0496,-4.0496,-4.0496,-4.0496,-4.0496,-4.0496,-4.0496,-4.0496,-4.0496,-4.0496,-4.0496,-4.0496,-4.0496,-4.0496,-4.0496,-4.0496,0.0,-4.0496,-4.0496,-4.0496,-4.0496,-4.0496,-4.0496,-4.0496,-4.0496,-4.0496,-4.0496,-4.0496,0.0,0.0,0.0,0.0,0.0,0.0,0.0,0.0,0.0,0.0,0.0,0.0,0.0,0.0,0.0,0.0,0.0,0.0,0.0,0.0,0.0,0.0,-2.1523,-2.2197,-2.2197,-2.4231,-2.5769,-2.6697,-2.7928,-2.8549,-2.853,-2.7217,-2.5486,-2.3471,-2.3009,-2.21,-2.0923,-2.0481,-2.0308,-2.0404,0.0,0.0,0.0,0.0,0.0,0.0,0.0,0.0,0.0,0.0,-2.5308,-2.5308,-2.5308,0.0,0.0,0.0,0.0,0.0,-3.0154,-3.0404,-3.0404,-3.0404,-3.0404,-3.0519,0.0,0.0,0.0,0.0,0.0,0.0,0.0,0.0,-3.4648,-3.6026,0.0,-3.8988,-3.9823,-4.0265,-4.0496,0.0,0.0,-4.0496,-4.0496,-4.0496,-4.0496,-4.0496,-4.0496,-4.0496,-4.0496,-4.0496,-4.0496,-4.0496,-4.0496,-4.0496,-4.0496,-4.0496,-4.0496,-4.0496,-4.0496,-4.0496,-4.0496,-4.0496,-4.0496,-4.0496,0.0,-4.0496,-4.0496,-4.0496,-4.0496,-4.0496,-4.0496,-4.0496,-4.0496,-4.0496,-4.0496,-4.0496,0.0,0.0,0.0,0.0,0.0,0.0,0.0,0.0,0.0,0.0,0.0,0.0,0.0,0.0,0.0,0.0,0.0,0.0,0.0,0.0,-2.0308,-2.0308,-2.1908,-2.2797,-2.2797,-2.4851,-2.6563,-2.7895,-2.8915,-2.9204,-2.88,-2.7505,-2.5895,-2.4052,-2.3182,-2.2312,-2.1446,-2.0635,-2.0404,-2.0692,0.0,0.0,0.0,0.0,0.0,0.0,0.0,0.0,0.0,0.0,0.0,0.0,0.0,0.0,0.0,-2.7582,-2.8338,-2.905,-3.0115,-3.0404,-3.0442,-3.0654,0.0,0.0,0.0,0.0,0.0,0.0,0.0,0.0,0.0,-3.4834,0.0,-3.795,-3.8854,-3.9573,-4.04,-4.0496,-4.0496,-4.0496,-4.0496,-4.0496,-4.0496,-4.0496,-4.0496,-4.0496,-4.0496,-4.0496,-4.0496,-4.0496,-4.0496,-4.0496,-4.0496,-4.0496,-4.0496,-4.0496,-4.0496,-4.0496,-4.0496,-4.0496,-4.0496,-4.0496,-4.0496,-4.0496,-4.0496,-4.0496,-4.0496,-4.0496,-4.0496,-4.0496,-4.0496,-4.0496,-4.0496,-4.0496,-4.0496,-4.0496,0.0,0.0,0.0,0.0,0.0,0.0,0.0,0.0,0.0,0.0,0.0,0.0,0.0,0.0,0.0,0.0,0.0,0.0,0.0,0.0,-2.0308,-2.0308,-2.1908,-2.2797,-2.2797,-2.6029,-2.7775,-2.7895,-2.9525,-2.9506,-2.7992,-2.7857,-2.6472,-2.4052,-2.3182,-2.2312,-2.1446,-2.0635,-2.0731,-2.1427,-2.1543,0.0,0.0,0.0,0.0,0.0,0.0,0.0,0.0,0.0,0.0,0.0,0.0,0.0,-2.5712,-2.7409,-2.7934,-2.8332,-2.9962,-3.0404,-3.0596,-3.1404,0.0,0.0,0.0,0.0,0.0,0.0,0.0,0.0,0.0,-3.668,-3.8046,-3.9053,-3.9265,-3.9573,-4.04,0.0,-4.0496,-4.0496,-4.0496,-4.0496,-4.0496,-4.0496,-4.0496,-4.0496,-4.0496,-4.0496,-4.0496,-4.0496,-4.0496,-4.0496,-4.0496,-4.0496,-4.0496,-4.0496,-4.0496,-4.0496,-4.0496,-4.0496,-4.0496,-4.0496,-4.0496,-4.0496,-4.0496,-4.0496,-4.0496,-4.0496,-4.0496,-4.0496,-4.0496,-4.0496,-4.0496,-4.0496,-4.0496,-4.0496,0.0,0.0,0.0,0.0,0.0,0.0,0.0,0.0,0.0,0.0,0.0,0.0,0.0,0.0,0.0,0.0,0.0,0.0,0.0,0.0,-2.0308,-2.0308,-2.1908,-2.2797,-2.2797,-2.6145,-2.7895,-2.7895,-2.9577,-2.9538,-2.7895,-2.7895,-2.6813,-2.4812,-2.3971,-2.3432,-2.3067,-2.2216,-2.2023,-2.235,-2.2893,-2.3509,0.0,0.0,0.0,0.0,0.0,0.0,0.0,0.0,-2.5308,-2.5308,-2.5308,-2.5308,-2.5635,-2.739,-2.7895,-2.8275,-2.9942,-3.0808,-3.1288,-3.1621,0.0,0.0,0.0,0.0,0.0,0.0,0.0,0.0,0.0,0.0,-3.8911,-3.9246,-3.9727,-4.015,-4.0458,-4.0496,-4.0496,-4.0496,-4.0496,-4.0496,-4.0496,-4.0496,-4.0496,-4.0496,-4.0496,-4.0496,-4.0496,-4.0496,-4.0496,-4.0496,-4.0496,-4.0496,-4.0496,-4.0496,-4.0496,-4.0496,-4.0496,-4.0496,-4.0496,-4.0496,-4.0496,-4.0496,-4.0496,-4.0496,-4.0496,-4.0496,-4.0496,-4.0496,-4.0496,-4.0496,-4.0496,-4.0496,-4.0496,-4.0496,0.0,0.0,0.0,0.0,0.0,0.0,0.0,0.0,0.0,0.0,0.0,0.0,0.0,0.0,0.0,0.0,0.0,0.0,0.0,-2.0308,-2.0308,-2.0308,-2.1908,-2.2797,-2.2797,-2.587,-2.7621,-2.7895,-2.9577,-2.9538,-2.7895,-2.7895,-2.6967,-2.5269,-2.4452,-2.411,-2.4033,-2.3163,-2.2951,-2.3259,-2.386,-2.424,0.0,0.0,0.0,0.0,0.0,0.0,0.0,0.0,-2.5308,-2.5308,-2.5308,-2.5308,-2.5635,-2.739,-2.7895,-2.8275,-2.9942,-3.1038,-3.1756,0.0,0.0,0.0,0.0,0.0,0.0,0.0,0.0,0.0,0.0,0.0,0.0,0.0,-4.015,-4.0496,-4.0496,-4.0496,-4.0496,-4.0496,-4.0496,-4.0496,-4.0496,-4.0496,-4.0496,-4.0496,-4.0496,-4.0496,-4.0496,-4.0496,-4.0496,-4.0496,-4.0496,-4.0496,-4.0496,-4.0496,-4.0496,-4.0496,-4.0496,-4.0496,-4.0496,-4.0496,-4.0496,-4.0496,-4.0496,-4.0496,-4.0496,-4.0496,-4.0496,-4.0496,-4.0496,-4.0496,-4.0496,-4.0496,-4.0496,-4.0496,0.0,0.0,0.0,0.0,0.0,0.0,0.0,0.0,0.0,0.0,0.0,0.0,0.0,0.0,0.0,0.0,0.0,0.0,0.0,-2.0308,-2.0308,-2.0308,-2.1908,-2.2797,-2.2797,-2.5293,-2.7024,-2.7895,-2.9558,-2.9519,-2.7895,-2.7895,0.0,0.0,0.0,-2.411,-2.4052,-2.3182,-2.3317,-2.411,-2.411,-2.4586,-2.5308,0.0,0.0,0.0,0.0,0.0,0.0,0.0,-2.5308,-2.5308,-2.5308,-2.5308,-2.5635,-2.739,-2.7895,-2.8275,-2.9942,-3.1038,-3.191,0.0,0.0,0.0,0.0,0.0,0.0,0.0,0.0,-3.9304,-3.9304,0.0,0.0,-4.0496,-4.0496,-4.0496,-4.0496,-4.0496,-4.0496,-4.0496,-4.0496,-4.0496,-4.0496,-4.0496,-4.0496,-4.0496,-4.0496,-4.0496,-4.0496,-4.0496,-4.0496,-4.0496,-4.0496,-4.0496,-4.0496,-4.0496,-4.0496,-4.0496,-4.0496,-4.0496,-4.0496,-4.0496,-4.0496,-4.0496,-4.0496,-4.0496,-4.0496,-4.0496,-4.0496,-4.0496,-4.0496,-4.0496,-4.0496,-4.0496,-4.0496,-4.0496,0.0,0.0,0.0,0.0,0.0,0.0,0.0,0.0,0.0,0.0,0.0,0.0,0.0,0.0,0.0,0.0,0.0,0.0,0.0,-2.0308,-2.0308,-2.0308,-2.1312,-2.2177,-2.2797,-2.5293,-2.7024,-2.7895,-2.839,-2.8063,-2.6986,0.0,0.0,-2.5288,0.0,-2.4947,-2.4928,-2.4673,-2.4712,-2.4947,-2.4947,-2.5096,-2.5308,0.0,0.0,0.0,0.0,0.0,0.0,0.0,0.0,0.0,-2.5308,-2.5308,-2.5635,-2.739,-2.7895,-2.8275,-2.9942,-3.1442,0.0,0.0,0.0,0.0,0.0,0.0,0.0,0.0,0.0,-3.9477,-4.0035,0.0,0.0,-4.0496,-4.0496,-4.0496,-4.0496,-4.0496,-4.0496,-4.0496,-4.0496,-4.0496,-4.0496,-4.0496,-4.0496,-4.0496,-4.0496,-4.0496,-4.0496,-4.0496,-4.0496,-4.0496,-4.0496,-4.0496,-4.0496,-4.0496,-4.0496,-4.0496,-4.0496,-4.0496,-4.0496,-4.0496,-4.0496,-4.0496,-4.0496,-4.0496,-4.0496,-4.0496,-4.0496,-4.0496,-4.0496,-4.0496,-4.0496,-4.0496,-4.0496,-4.0496,0.0,0.0,0.0,0.0,0.0,0.0,0.0,0.0,0.0,0.0,0.0,0.0,0.0,0.0,0.0,0.0,0.0,0.0,0.0,0.0,-2.0308,-2.0308,-2.1077,-2.1908,-2.2778,-2.4644,-2.5856,-2.6395,-2.7395,-2.7448,0.0,0.0,-2.6135,-2.5308,0.0,-2.5308,-2.5308,-2.5308,-2.5308,-2.5308,-2.5308,-2.5308,-2.5308,0.0,0.0,0.0,0.0,0.0,0.0,0.0,0.0,0.0,-2.5308,0.0,-2.6096,-2.7486,-2.8126,-2.8761,-3.0442,-3.1891,0.0,0.0,0.0,0.0,0.0,0.0,0.0,0.0,0.0,-3.9919,-4.0419,-4.0496,0.0,-4.0496,-4.0496,-4.0496,-4.0496,-4.0496,-4.0496,-4.0496,-4.0496,-4.0496,-4.0496,-4.0496,-4.0496,-4.0496,-4.0496,-4.0496,-4.0496,-4.0496,-4.0496,-4.0496,-4.0496,-4.0496,-4.0496,-4.0496,-4.0496,-4.0496,-4.0496,-4.0496,-4.0496,-4.0496,-4.0496,-4.0496,-4.0496,-4.0496,-4.0496,-4.0496,-4.0496,-4.0496,-4.0496,-4.0496,-4.0496,-4.0496,-4.0496,-4.0496,0.0,0.0,0.0,0.0,0.0,0.0,0.0,0.0,0.0,0.0,-2.0308,0.0,0.0,0.0,0.0,0.0,0.0,0.0,0.0,0.0,-2.0308,-2.0308,-2.1077,-2.187,-2.2663,-2.3548,-2.4014,-2.411,-2.6491,0.0,0.0,0.0,-2.6058,-2.5308,0.0,-2.5308,-2.5308,-2.5308,-2.5308,-2.5308,-2.5308,-2.5308,-2.5308,-2.5308,0.0,0.0,0.0,0.0,0.0,0.0,0.0,0.0,-2.5308,-2.5904,-2.6774,-2.764,-2.8472,-2.9473,-3.1237,0.0,0.0,0.0,0.0,0.0,-3.9008,0.0,-3.9631,-4.0342,0.0,-4.0496,-4.0496,-4.0496,-4.0496,-4.0496,-4.0496,-4.0496,-4.0496,-4.0496,-4.0496,-4.0496,-4.0496,-4.0496,-4.0496,-4.0496,-4.0496,-4.0496,-4.0496,-4.0477,-4.04,-4.04,-4.0342,-4.0265,-4.0265,-4.0265,-4.0265,-4.0265,-4.0304,-4.04,-4.04,-4.0439,-4.0496,-4.0496,-4.0496,-4.0496,-4.0496,-4.0496,-4.0496,-4.0496,-4.0496,-4.0496,-4.0496,-4.0496,-4.0496,-4.0496,-4.0496,-4.0496,0.0,0.0,0.0,0.0,0.0,0.0,0.0,0.0,0.0,0.0,0.0,0.0,0.0,0.0,0.0,0.0,0.0,0.0,0.0,0.0,-2.0308,-2.0308,-2.1077,-2.16,-2.1773,-2.2624,-2.3413,-2.411,-2.5274,0.0,0.0,0.0,0.0,-2.5308,0.0,-2.5308,-2.5308,-2.5308,-2.5308,-2.5308,-2.5308,-2.5308,-2.5308,-2.5308,-2.5308,0.0,0.0,0.0,0.0,0.0,0.0,0.0,-2.5308,-2.5904,-2.6774,-2.764,-2.8472,-2.9473,0.0,-3.2295,0.0,0.0,0.0,0.0,0.0,-4.0246,-4.0285,-4.0458,-4.0496,-4.0496,-4.0496,-4.0496,-4.0496,-4.0496,-4.0496,-4.0496,-4.0496,-4.0496,-4.0496,-4.0496,-4.0496,-4.0496,-4.0496,-4.0496,-4.0496,-4.0496,-4.0496,-4.0227,-3.9592,-3.9554,-3.9246,-3.8565,-3.8546,-3.8546,-3.8546,-3.8546,-3.8873,-3.9554,-3.9554,-3.99,-4.0496,-4.0496,-4.0496,-4.0496,-4.0496,-4.0496,-4.0496,-4.0496,-4.0496,-4.0496,-4.0496,-4.0496,-4.0496,-4.0496,-4.0496,-4.0496,0.0,0.0,0.0,0.0,0.0,0.0,0.0,0.0,0.0,0.0,0.0,0.0,0.0,0.0,0.0,0.0,0.0,0.0,0.0,0.0,0.0,0.0,-2.0692,-2.0923,-2.0923,-2.1754,-2.2605,-2.3471,0.0,0.0,0.0,0.0,0.0,-2.5308,0.0,-2.5538,-2.5904,-2.5481,-2.5538,-2.5885,-2.5462,-2.5308,-2.5308,-2.5308,-2.5308,-2.5308,-2.5308,0.0,0.0,0.0,0.0,0.0,0.0,0.0,-2.7313,-2.778,-2.8775,-3.0006,0.0,0.0,0.0,0.0,0.0,0.0,0.0,-4.0227,-4.0496,-4.0496,-4.0496,-4.0496,-4.0496,-4.0496,-4.0496,-4.0496,-4.0496,-4.0496,-4.0496,-4.0496,-4.0496,-4.0496,-4.0496,-4.0496,-4.0496,-4.015,-3.9938,-3.9938,-3.9534,-3.9123,-3.87,-3.8681,-3.8469,-3.8007,-3.8007,-3.8007,-3.8007,-3.8007,-3.8155,-3.849,-3.8876,-3.9409,-4.0072,-4.0362,-4.0345,-4.0072,-4.025,-4.0212,-4.0063,-4.0063,-4.0063,-4.0063,-4.0063,-4.0063,-4.0063,-4.0063,-4.0063,-4.0063,0.0,0.0,0.0,0.0,0.0,0.0,0.0,0.0,0.0,0.0,0.0,0.0,0.0,0.0,0.0,0.0,0.0,0.0,0.0,0.0,0.0,0.0,-2.0308,-2.0308,-2.0308,-2.0942,-2.1793,0.0,0.0,0.0,0.0,0.0,0.0,-2.5308,0.0,-2.5923,-2.6563,-2.5981,-2.6173,-2.6755,-2.6038,-2.575,-2.575,-2.575,-2.575,-2.575,-2.575,-2.5654,-2.5519,-2.5519,0.0,0.0,0.0,0.0,-2.7895,-2.7895,-2.9083,-3.0596,0.0,0.0,0.0,0.0,0.0,0.0,0.0,-3.9804,-4.0323,-4.0477,-4.0496,-4.0496,-4.0496,-4.0496,-4.0496,-4.0496,-4.0496,-4.0496,-4.0496,-4.0496,-4.0496,-4.0496,-4.0381,-4.0285,-4.0285,-3.9554,-3.9092,-3.9092,-3.8411,-3.793,-3.7777,-3.7777,-3.7685,-3.7521,-3.7494,-3.7479,-3.7429,-3.7429,-3.7387,-3.7318,-3.8261,-3.8928,-3.9333,-4.0034,-4.0072,-3.9611,-3.9891,-3.987,-3.9599,-3.9599,-3.9599,-3.9599,-3.9599,-3.9599,-3.9599,-3.9599,-3.9599,-3.9599,0.0,0.0,0.0,0.0,0.0,0.0,0.0,0.0,0.0,0.0,0.0,0.0,0.0,0.0,0.0,0.0,0.0,0.0,0.0,0.0,0.0,0.0,-2.0308,-2.0308,-2.0308,-2.0404,-2.1235,0.0,0.0,0.0,0.0,0.0,0.0,-2.5327,0.0,0.0,-2.664,-2.7274,-2.7621,-2.7722,-2.7601,-2.7544,-2.7544,-2.7544,0.0,-2.7544,-2.7544,-2.7063,-2.6428,-2.6428,-2.5923,0.0,0.0,0.0,-2.7895,-2.7895,-2.9083,-3.0596,0.0,0.0,0.0,0.0,0.0,0.0,0.0,0.0,-3.9669,0.0,-4.0496,-4.0496,-4.0496,-4.0496,-4.0496,-4.0496,-4.0496,-4.0496,-4.0496,-4.0496,-4.0496,-4.0496,-3.9881,-3.9457,-3.9457,-3.8681,-3.8161,-3.8161,-3.8065,-3.768,-3.6904,-3.6865,-3.6446,-3.5518,-3.549,-3.5377,-3.5153,-3.5144,-3.5474,-3.6154,-3.7713,-3.835,-3.8146,-3.9236,-3.9679,-3.9599,-3.9645,-3.9634,-3.9599,-3.9599,-3.9599,-3.9599,-3.9599,-3.9599,-3.9599,-3.9599,-3.9599,-3.9599,0.0,0.0,0.0,0.0,0.0,0.0,0.0,0.0,0.0,0.0,0.0,0.0,0.0,0.0,0.0,0.0,0.0,0.0,0.0,0.0,0.0,0.0,0.0,-2.1696,-2.1696,-2.1696,-2.2297,0.0,0.0,0.0,0.0,-2.5308,-2.5308,0.0,0.0,0.0,0.0,0.0,-2.8165,-2.853,-2.8088,-2.7895,0.0,0.0,0.0,0.0,0.0,0.0,-2.7332,-2.7332,-2.7063,-2.6755,-2.6755,0.0,0.0,0.0,-2.9448,0.0,-3.1468,0.0,0.0,0.0,0.0,0.0,0.0,0.0,-3.94,-3.9746,-4.0189,-4.0496,-4.0496,-4.0496,-4.0496,-4.0496,-4.0496,-4.0496,-4.0496,-4.0112,-3.9823,-3.9823,-3.9084,-3.8565,-3.8565,-3.7777,-3.7276,-3.7276,-3.6853,-3.6423,-3.6058,-3.5879,-3.5586,-3.5105,-3.4954,-3.4832,-3.4694,-3.4694,-3.5036,-3.569,-3.6242,-3.6901,-3.7697,-3.8196,-3.8672,-3.91,-3.9244,-3.9236,-3.9105,-3.9105,-3.9105,-3.9105,-3.9105,-3.9105,-3.9105,-3.9105,-3.9105,-3.9105,0.0,0.0,0.0,0.0,0.0,0.0,0.0,0.0,0.0,0.0,0.0,0.0,0.0,0.0,0.0,0.0,0.0,0.0,0.0,0.0,0.0,0.0,0.0,-2.2797,-2.2797,-2.2797,0.0,0.0,0.0,0.0,-2.5308,-2.5308,-2.5423,0.0,-2.6544,0.0,0.0,0.0,0.0,0.0,0.0,0.0,0.0,0.0,0.0,0.0,0.0,0.0,0.0,0.0,-2.8068,-2.7895,-2.7895,-2.8453,0.0,0.0,0.0,0.0,0.0,0.0,0.0,0.0,0.0,0.0,0.0,0.0,-3.87,0.0,-3.9457,-3.9861,-3.9861,-4.0208,-4.0496,-4.0496,-4.0496,-4.0439,-4.0227,-3.9688,-3.9227,-3.8996,-3.82,-3.768,-3.768,-3.6904,-3.6404,-3.6404,-3.5846,-3.55,-3.55,-3.5258,-3.507,-3.4999,-3.4715,-3.4529,-3.4464,-3.4464,-3.4659,-3.5064,-3.5018,-3.5646,-3.6886,-3.7309,-3.7841,-3.841,-3.8816,-3.8865,-3.8707,-3.8707,-3.8707,-3.8707,-3.8707,-3.8707,-3.8707,-3.8707,-3.8707,-3.8707,0.0,0.0,0.0,0.0,0.0,0.0,0.0,0.0,0.0,0.0,0.0,0.0,0.0,0.0,0.0,-2.2663,0.0,0.0,0.0,0.0,0.0,0.0,0.0,0.0,0.0,0.0,0.0,0.0,0.0,0.0,-2.5308,-2.5308,-2.5731,-2.6563,-2.7448,-2.828,-2.9088,0.0,0.0,0.0,0.0,0.0,0.0,0.0,0.0,0.0,0.0,0.0,0.0,0.0,0.0,0.0,0.0,-2.8453,-2.9107,0.0,0.0,0.0,0.0,0.0,0.0,0.0,0.0,0.0,0.0,0.0,-3.7065,-3.7892,-3.8104,-3.8123,-3.8123,-3.9438,-4.0496,-4.0496,-4.0496,-4.0227,-3.9477,-3.9323,-3.8996,-3.8161,-3.7296,-3.6769,-3.6769,-3.6038,-3.5558,-3.5558,-3.5519,-3.55,-3.55,-3.5258,-3.4981,-3.4724,-3.4401,-3.4099,-3.3855,-3.3842,-3.3847,-3.3907,-3.4651,-3.5059,-3.5188,-3.678,-3.7529,-3.7603,-3.8374,-3.8704,-3.8707,-3.8707,-3.8707,-3.8707,-3.8707,-3.8707,-3.8707,-3.8707,-3.8707,-3.8707,0.0,0.0,0.0,0.0,0.0,0.0,0.0,0.0,0.0,0.0,0.0,0.0,0.0,-2.2331,-2.2682,-2.3567,-2.4101,0.0,0.0,0.0,0.0,0.0,0.0,0.0,0.0,0.0,0.0,0.0,0.0,-2.5019,-2.5308,-2.5308,-2.6058,-2.7448,-2.7761,-2.8357,-2.9165,-3.0019,0.0,0.0,0.0,0.0,0.0,0.0,0.0,0.0,0.0,0.0,0.0,0.0,0.0,0.0,0.0,0.0,0.0,0.0,0.0,0.0,0.0,0.0,0.0,0.0,0.0,-3.4359,-3.4949,-3.593,-3.6788,-3.7103,-3.7603,-3.8007,-3.8007,-3.8488,-3.8892,-3.8892,-3.8892,-3.8796,-3.8507,-3.7988,-3.7526,-3.7199,-3.6423,-3.5923,-3.5923,-3.5673,-3.55,-3.55,-3.5346,-3.5239,-3.5239,-3.4775,-3.4489,-3.4379,-3.4093,-3.3902,-3.3807,-3.3807,-3.3807,-3.3807,-3.41,-3.4491,-3.5023,-3.561,-3.6486,-3.7529,-3.7804,-3.8212,-3.8707,-3.8707,-3.8707,-3.8707,-3.8707,-3.8707,-3.8707,-3.8707,-3.8707,-3.8707,0.0,0.0,0.0,0.0,0.0,0.0,0.0,0.0,0.0,0.0,0.0,0.0,0.0,0.0,-2.3586,-2.4432,-2.4981,-2.5308,-2.5308,-2.5308,0.0,0.0,0.0,0.0,0.0,0.0,0.0,0.0,0.0,0.0,0.0,-2.5596,-2.6505,-2.7915,-2.8184,-2.8761,0.0,0.0,0.0,-3.0423,0.0,0.0,-3.0865,0.0,0.0,0.0,0.0,0.0,0.0,0.0,0.0,0.0,0.0,0.0,0.0,0.0,0.0,0.0,0.0,0.0,0.0,0.0,0.0,-3.3513,-3.4071,0.0,-3.5949,-3.6231,-3.675,-3.7161,-3.7161,-3.7161,-3.7353,-3.7911,-3.8007,-3.7892,-3.7603,-3.7065,-3.6596,-3.6327,-3.5827,-3.55,-3.55,-3.55,-3.5453,-3.5369,-3.5198,-3.507,-3.4972,-3.4489,-3.4171,-3.408,-3.3889,-3.3807,-3.3807,-3.3807,-3.3807,-3.3807,-3.3807,-3.4082,-3.4619,-3.4876,-3.561,-3.667,-3.6978,-3.7698,-3.8707,-3.8707,-3.8707,-3.8707,-3.8707,-3.8707,-3.8707,-3.8707,-3.8707,-3.8707,0.0,0.0,0.0,0.0,0.0,0.0,0.0,0.0,0.0,0.0,0.0,0.0,0.0,0.0,0.0,-2.5231,-2.5308,-2.5308,-2.5308,-2.5308,0.0,0.0,0.0,0.0,0.0,0.0,0.0,0.0,0.0,0.0,0.0,0.0,-2.7063,-2.7934,-2.8742,-2.9583,-3.0404,0.0,-3.0404,-3.0519,0.0,-3.1712,-3.1802,0.0,0.0,0.0,-3.2878,-3.2878,0.0,-3.1988,0.0,0.0,0.0,0.0,0.0,0.0,0.0,0.0,0.0,0.0,0.0,0.0,0.0,0.0,-3.3763,0.0,-3.4391,-3.525,-3.5442,-3.5462,-3.5462,-3.5481,-3.6019,-3.7661,-3.793,-3.7623,-3.6769,-3.6654,-3.6365,-3.5596,-3.55,-3.55,-3.5493,-3.5493,-3.5376,-3.5105,-3.5088,-3.4963,-3.4694,-3.4368,-3.408,-3.382,-3.3807,-3.3807,-3.3807,-3.3807,-3.3807,-3.3807,-3.3807,-3.3807,-3.3825,-3.4619,-3.4986,-3.5059,-3.5899,-3.7165,-3.8634,-3.8652,-3.8689,-3.8707,-3.8707,-3.8707,-3.8707,-3.8707,-3.8707,-3.8707,0.0,0.0,0.0,0.0,0.0,0.0,0.0,0.0,0.0,0.0,0.0,0.0,0.0,0.0,-2.5058,-2.5288,-2.5308,-2.5308,-2.5308,-2.5308,-2.5308,-2.5308,-2.5308,0.0,0.0,0.0,0.0,0.0,0.0,0.0,0.0,0.0,0.0,0.0,-2.8742,-2.9583,-3.0404,-3.0404,0.0,-3.1365,-3.1602,-3.1923,0.0,0.0,0.0,0.0,0.0,-3.231,-3.2291,0.0,-3.1735,-3.1295,0.0,0.0,0.0,0.0,0.0,0.0,-3.0404,0.0,0.0,0.0,0.0,0.0,-3.2295,-3.2833,-3.3333,-3.3564,-3.4122,-3.4564,-3.4564,-3.5064,-3.5654,-3.6115,-3.6192,-3.6115,-3.5865,-3.5827,-3.575,-3.5538,-3.55,-3.5424,-3.5223,-3.5207,-3.5096,0.0,-3.4584,-3.4416,-3.4345,-3.4056,-3.3876,-3.3788,-3.3807,-3.3807,-3.3807,-3.3807,-3.3807,-3.3807,-3.3807,-3.3807,-3.3807,-3.4027,-3.4454,-3.5023,-3.5261,-3.5958,-3.7,-3.7588,-3.8175,-3.8707,-3.8707,-3.8707,-3.8707,-3.8707,-3.8707,-3.8707,0.0,0.0,0.0,0.0,0.0,0.0,0.0,0.0,0.0,0.0,0.0,0.0,0.0,0.0,0.0,-2.5846,-2.6173,-2.6385,-2.6385,-2.6385,-2.6385,-2.6385,-2.6038,0.0,0.0,0.0,0.0,0.0,0.0,0.0,0.0,0.0,0.0,0.0,0.0,0.0,0.0,0.0,0.0,0.0,-3.1942,0.0,0.0,-3.332,-3.3327,0.0,0.0,0.0,-3.3279,-3.2807,-3.2039,0.0,0.0,0.0,0.0,0.0,0.0,0.0,0.0,0.0,0.0,0.0,0.0,0.0,-3.1621,-3.2064,-3.2487,-3.2833,-3.3295,-3.3622,-3.3554,-3.4017,-3.4384,-3.4295,-3.4363,-3.4673,-3.5404,-3.55,-3.55,-3.55,-3.5173,-3.4908,-3.4734,-3.4323,-3.3952,-3.3676,-3.3371,-3.3148,-3.3037,-3.3195,-3.3311,-3.3311,-3.3623,-3.3807,-3.3807,-3.3807,-3.3807,-3.3807,-3.3807,-3.3807,-3.3807,-3.3807,-3.4064,-3.4491,-3.4491,-3.4968,-3.5775,-3.6266,-3.7147,-3.823,-3.8579,-3.8707,-3.8707,-3.8707,-3.8707,-3.8707,0.0,0.0,0.0,0.0,0.0,0.0,0.0,0.0,0.0,0.0,0.0,0.0,0.0,0.0,0.0,0.0,-2.7448,-2.7895,-2.7895,-2.7895,0.0,0.0,-2.7159,-2.6736,0.0,0.0,0.0,0.0,0.0,0.0,0.0,0.0,0.0,0.0,0.0,0.0,0.0,0.0,0.0,-3.1872,-3.245,-3.3179,0.0,0.0,-3.4653,-3.4601,-3.4601,-3.4754,-3.4783,-3.3732,-3.2524,0.0,0.0,0.0,0.0,0.0,-3.0355,0.0,0.0,0.0,0.0,0.0,-3.0404,0.0,-3.1385,-3.1564,-3.1756,-3.2468,-3.2699,-3.2711,-3.2519,-3.2715,-3.2846,-3.2653,-3.2779,-3.3449,-3.4981,-3.5212,-3.5212,-3.5212,-3.4526,-3.4038,-3.3999,-3.3149,-3.2469,-3.2185,-3.1917,-3.1651,-3.1409,-3.2082,-3.2509,-3.2601,-3.3293,-3.3715,-3.3807,-3.3807,-3.3807,-3.3807,-3.3807,-3.3807,-3.3807,-3.3807,-3.3807,-3.3807,-3.3807,-3.4211,-3.4876,-3.4968,-3.5954,-3.7437,-3.8157,-3.8432,-3.8432,-3.8432,-3.8487,-3.8579,0.0,0.0,0.0,0.0,0.0,0.0,0.0,0.0,0.0,0.0,0.0,0.0,0.0,0.0,0.0,0.0,-2.7799,-2.7895,-2.7895,-2.7895,0.0,-2.7895,-2.7741,-2.764,-2.764,0.0,0.0,0.0,0.0,0.0,0.0,0.0,0.0,0.0,0.0,0.0,0.0,0.0,0.0,-3.2737,-3.3551,0.0,-3.4537,-3.4658,-3.4405,-3.3979,-3.3979,-3.4018,-3.3944,-3.3301,-3.2907,-3.247,0.0,0.0,0.0,-3.0223,0.0,0.0,0.0,0.0,0.0,0.0,-3.0404,0.0,-3.0615,-3.0654,-3.0692,-3.0865,-3.1442,-3.1917,-3.1885,-3.2449,-3.2878,-3.2852,-3.2872,-3.3026,-3.3353,-3.341,-3.341,-3.341,-3.3256,-3.3063,-3.284,-3.2641,-3.2338,-3.1904,-3.1624,-3.147,-3.1397,-3.1562,-3.1935,-3.2583,-3.2748,-3.3146,-3.3788,-3.3807,-3.3807,-3.3807,-3.3807,-3.3807,-3.3807,-3.3807,-3.3807,-3.3807,-3.3807,-3.3899,-3.4082,-3.4729,-3.561,-3.6556,-3.6707,-3.6762,-3.6762,-3.6762,-3.7165,-3.7731,0.0,0.0,0.0,0.0,0.0,0.0,0.0,0.0,0.0,0.0,0.0,0.0,0.0,0.0,0.0,0.0,0.0,0.0,0.0,0.0,0.0,-2.9159,-2.8736,-2.8492,-2.8492,-2.8107,-2.7895,0.0,0.0,0.0,0.0,0.0,0.0,0.0,0.0,0.0,0.0,0.0,-3.2776,-3.3551,-3.3735,0.0,-3.4663,-3.4371,-3.4049,-3.3807,-3.3807,-3.3807,-3.3787,-3.3641,-3.3334,0.0,-3.2176,-3.1729,-3.1355,0.0,-3.0444,-3.0392,0.0,0.0,0.0,-3.0044,0.0,0.0,0.0,-3.0135,-3.0176,-3.0066,-3.0395,-3.067,-3.0568,-3.0963,-3.1268,-3.1165,-3.1237,-3.1299,-3.1299,-3.2229,-3.2891,-3.2891,-3.2545,-3.2257,-3.2105,-3.1584,-3.108,-3.0636,-3.0337,-3.021,-3.021,-3.0577,-3.0999,-3.139,-3.2179,-3.2784,-3.3201,-3.3605,-3.3807,-3.3807,-3.3807,-3.3807,-3.3807,-3.3807,-3.3807,-3.3807,-3.3807,-3.3807,-3.3825,-3.4247,-3.4669,-3.5128,-3.5973,-3.6303,-3.6303,-3.6303,-3.656,-3.6905,-2.5308,0.0,0.0,0.0,0.0,0.0,0.0,0.0,0.0,0.0,0.0,0.0,0.0,0.0,0.0,0.0,0.0,0.0,0.0,0.0,0.0,0.0,0.0,-2.9357,-2.9357,-2.8717,-2.8371,-2.8371,0.0,0.0,0.0,0.0,0.0,0.0,0.0,0.0,0.0,0.0,0.0,-3.4098,0.0,-3.41,-3.4714,-3.4184,-3.3928,-3.3863,-3.3815,-3.3807,-3.3829,-3.4056,-3.369,-3.3128,-3.2961,-3.2583,0.0,0.0,0.0,0.0,0.0,0.0,0.0,0.0,0.0,-2.9901,0.0,0.0,0.0,-2.972,-2.9705,-2.9643,0.0,0.0,0.0,-2.9279,0.0,0.0,0.0,-3.1093,0.0,-3.2274,-3.1796,-3.1405,-3.1322,-3.0452,-2.9738,-2.9414,-2.9156,-2.9005,-2.9005,-2.961,-3.0044,-3.021,-3.1445,-3.2289,-3.2601,-3.3238,-3.3642,-3.3807,-3.3807,-3.3807,-3.3807,-3.3807,-3.3807,-3.3807,-3.3807,-3.3807,-3.3807,-3.3807,-3.3807,-3.3935,-3.5293,-3.5826,-3.5826,-3.5826,-3.5917,-3.6046,-2.5308,-2.5308,0.0,0.0,0.0,0.0,0.0,0.0,0.0,0.0,0.0,0.0,0.0,0.0,0.0,0.0,0.0,0.0,-3.0404,0.0,0.0,0.0,0.0,0.0,-3.025,-3.0154,-3.0115,-3.0115,0.0,0.0,0.0,0.0,0.0,0.0,-3.0136,0.0,0.0,0.0,-3.3092,0.0,-3.4349,-3.4756,0.0,-3.4714,-3.4401,-3.4123,-3.3889,-3.3807,-3.3802,0.0,-3.3768,-3.3584,0.0,-3.2605,-3.2435,-3.1853,0.0,0.0,0.0,0.0,0.0,0.0,-2.9722,0.0,-2.9713,0.0,-2.9731,-2.9705,0.0,-2.9696,0.0,0.0,0.0,0.0,0.0,0.0,-2.8739,-2.9471,-3.0055,-3.0055,-3.0352,-3.0381,-2.9975,-2.9645,-2.9454,-2.9412,-2.9156,-2.9005,-2.9005,-2.9097,-2.9464,-3.0173,-3.0393,-3.1164,-3.2583,-3.2693,-3.3091,-3.3807,-3.3807,-3.3807,-3.3807,-3.3807,-3.3807,-3.3807,-3.3807,-3.3807,-3.3807,-3.3807,-3.3807,-3.3825,-3.4009,-3.4082,-3.4082,-3.4082,-3.4541,-3.5151,-2.55,-2.5712,0.0,0.0,0.0,0.0,0.0,0.0,0.0,0.0,0.0,0.0,0.0,0.0,0.0,0.0,0.0,-3.1852,0.0,0.0,0.0,0.0,0.0,0.0,0.0,-3.0404,-3.0404,-3.0404,-3.0404,0.0,0.0,0.0,0.0,0.0,-3.0581,0.0,-3.2045,0.0,-3.3778,0.0,0.0,0.0,0.0,-3.442,-3.4099,-3.3948,-3.3842,-3.3807,-3.3807,0.0,-3.3807,0.0,0.0,0.0,0.0,-3.2471,0.0,0.0,0.0,0.0,0.0,0.0,0.0,0.0,-2.9334,0.0,-2.9484,-2.9334,0.0,0.0,0.0,0.0,0.0,0.0,-2.9081,-2.9006,0.0,0.0,-2.8998,-2.9631,0.0,0.0,-2.9722,-2.9523,-2.9402,-2.9402,-2.9156,-2.9005,-2.9005,-2.9005,-2.9152,-2.9482,-2.9971,-3.076,-3.1898,-3.2375,-3.2999,-3.3807,-3.3807,-3.3807,-3.3807,-3.3807,-3.368,-3.3447,-3.3447,-3.3302,-3.3042,-3.3042,-3.3042,-3.3042,-3.3042,-3.3211,-3.3419,-3.3151,-3.3258,-3.3546,-2.625,0.0,0.0,0.0,0.0,0.0,0.0,0.0,0.0,0.0,0.0,0.0,-3.1948,-3.2025,0.0,0.0,-3.2891,-3.2891,0.0,0.0,-3.2,0.0,0.0,0.0,0.0,0.0,0.0,0.0,0.0,0.0,0.0,0.0,0.0,0.0,0.0,-3.1739,-3.2674,0.0,-3.4073,-3.4851,-3.4851,-3.4803,-3.4704,-3.4377,-3.4065,-3.3825,-3.4045,-3.399,-3.3807,-3.3807,-3.3807,-3.3807,-3.3807,-3.3807,-3.3697,0.0,0.0,0.0,-3.188,0.0,0.0,0.0,0.0,0.0,0.0,0.0,0.0,0.0,-2.9005,0.0,0.0,0.0,0.0,0.0,0.0,-2.8638,0.0,-2.7795,0.0,0.0,0.0,0.0,0.0,-2.8959,-2.8965,-2.8965,-2.8983,-2.9005,-2.9005,-2.9005,-2.9005,-2.9005,-2.9574,-3.0356,-3.1397,-3.1971,-3.2797,-3.3807,-3.3807,-3.3734,-3.3652,-3.3652,-3.3404,-3.3014,-3.3014,-3.2809,-3.2501,-3.2501,-3.2501,-3.2484,-3.2367,-3.2534,-3.2793,-3.2583,-3.2501,-3.2501,-2.7838,-2.7838,0.0,0.0,0.0,0.0,0.0,0.0,0.0,0.0,0.0,0.0,0.0,0.0,0.0,0.0,0.0,-3.2891,-3.2891,0.0,-3.2755,0.0,0.0,-3.2326,0.0,0.0,0.0,0.0,0.0,0.0,0.0,0.0,0.0,0.0,-3.113,-3.1972,-3.3709,-3.3231,-3.3477,-3.4223,-3.4223,-3.408,-3.396,0.0,-3.4753,-3.3899,-3.4674,0.0,0.0,-3.3807,-3.3807,-3.3807,-3.3807,0.0,0.0,0.0,0.0,0.0,0.0,0.0,0.0,-3.0393,0.0,0.0,0.0,0.0,-2.9017,0.0,0.0,0.0,0.0,0.0,0.0,0.0,0.0,0.0,0.0,0.0,0.0,-2.678,-2.6688,0.0,0.0,-2.7518,-2.7846,-2.7846,-2.8558,-2.9005,-2.9005,-2.9005,-2.9005,-2.9005,-2.9023,-2.9794,-3.1378,-3.1433,-3.2241,-3.3807,-3.3807,-3.3611,-3.3214,-3.3214,-3.2968,-3.2517,-3.2517,-3.2517,-3.2501,-3.2501,-3.2501,-3.2451,-3.1986,-3.1843,-3.1897,-3.235,-3.2501,-3.2501,0.0,0.0,0.0,0.0,0.0,0.0,0.0,-3.0692,0.0,0.0,-3.216,0.0,0.0,-3.3763,-3.3987,0.0,0.0,-3.437,-3.437,-3.3652,0.0,0.0,0.0,-3.2205,0.0,0.0,0.0,0.0,0.0,0.0,0.0,0.0,0.0,0.0,0.0,-3.2996,0.0,0.0,0.0,0.0,0.0,-3.4364,-3.4633,0.0,-3.493,-3.4711,-3.5569,-3.5298,-3.4582,-3.4582,-3.4247,-3.3807,-3.3807,-3.3807,-3.3807,-3.3807,-3.3605,-3.3385,-3.3385,-3.2816,-3.2137,-3.1849,-3.0986,-3.0136,0.0,0.0,0.0,0.0,0.0,0.0,0.0,0.0,0.0,0.0,0.0,0.0,0.0,0.0,-2.5309,-2.5034,-2.5952,0.0,0.0,0.0,-2.7236,-2.775,-2.8044,-2.8436,-2.8968,-2.9005,-2.9005,-2.9005,-2.9005,-2.9519,-3.0595,-3.114,-3.1801,-3.2613,-3.3154,-3.3166,-3.2729,-3.2729,-3.2484,-3.2039,-3.2039,-3.1896,-3.1638,-3.1638,-3.1638,-3.162,-3.1468,-3.1391,-3.1411,-3.1564,-3.1638,-3.1638,-3.0404,0.0,0.0,0.0,0.0,0.0,0.0,0.0,0.0,0.0,-3.3045,0.0,-3.4949,0.0,-3.5296,0.0,-3.5973,-3.5846,-3.5945,-3.4917,0.0,-3.4288,-3.3476,-3.2842,0.0,0.0,0.0,0.0,0.0,-3.1835,0.0,0.0,0.0,0.0,0.0,-3.3571,-3.3469,-3.4217,-3.4334,0.0,0.0,-3.4692,0.0,0.0,-3.5701,-3.5573,-3.6413,-3.6174,-3.5408,-3.5096,-3.4656,-3.4192,-3.3899,-3.3807,-3.3807,-3.3807,-3.3807,-3.3807,-3.3807,-3.3421,-3.2949,-3.2674,-3.1812,-3.098,-3.0687,-3.0008,-2.9427,0.0,0.0,0.0,0.0,0.0,0.0,0.0,0.0,0.0,0.0,-2.5217,-2.419,-2.419,-2.5126,0.0,0.0,-2.6007,-2.6392,-2.6917,-2.7486,-2.8026,-2.8546,-2.884,-2.9005,-2.9005,-2.9005,-2.939,-3.0191,-3.0999,-3.1589,-3.2014,-3.282,-3.2856,-3.2247,-3.2247,-3.2004,-3.1584,-3.1584,-3.1449,-3.119,-3.119,-3.119,-3.119,-3.119,-3.119,-3.119,-3.119,-3.119,-3.119,-3.0404,0.0,0.0,0.0,-3.1173,0.0,0.0,0.0,-3.3263,0.0,-3.4275,-3.4903,-3.6548,-3.6495,-3.6661,-3.7413,-3.7242,-3.719,-3.7433,-3.6486,0.0,0.0,-3.5153,-3.4215,-3.3125,0.0,0.0,0.0,0.0,0.0,0.0,0.0,0.0,0.0,-3.3447,0.0,-3.4176,-3.4188,-3.4043,-3.3862,-3.4674,-3.5041,-3.5243,-3.6886,-3.7052,-3.6523,-3.729,-3.7052,-3.6229,-3.5408,-3.5078,-3.4876,-3.41,-3.3825,-3.3807,-3.3807,-3.3807,-3.3807,-3.3807,-3.3807,-3.3623,-3.2839,-3.2619,-3.2399,-3.1623,-3.0834,-3.0246,0.0,0.0,0.0,0.0,0.0,0.0,0.0,0.0,0.0,0.0,0.0,-2.4245,-2.419,-2.419,-2.419,0.0,-2.4897,-2.5356,-2.5393,-2.6843,-2.775,-2.7798,-2.8565,-2.9005,-2.9005,-2.9005,-2.9372,-3.0136,-3.0968,-3.1545,-3.1913,-3.2742,-3.2647,-3.1771,-3.1771,-3.1547,-3.119,-3.119,-3.119,-3.119,-3.119,-3.119,-3.119,-3.119,-3.119,-3.119,-3.119,-3.119,-3.119,-3.0404,-3.0923,-3.1545,0.0,-3.1948,-3.191,0.0,0.0,0.0,0.0,-3.5189,-3.5856,-3.6898,-3.694,-3.6974,-3.7181,-3.6963,0.0,0.0,0.0,0.0,-3.6207,-3.538,-3.4779,-3.4502,-3.4165,-3.3893,-3.3657,0.0,0.0,-3.307,0.0,0.0,0.0,0.0,0.0,-3.3915,-3.4111,-3.4043,-3.3862,-3.4674,-3.5389,-3.6083,0.0,-3.7749,-3.812,-3.8322,-3.7863,-3.7162,-3.6927,-3.6028,-3.4968,-3.4766,-3.427,-3.3807,-3.3807,-3.3807,-3.3807,-3.3807,-3.3807,-3.3752,-3.3532,-3.3041,-3.2546,-3.2339,-3.1678,-3.0907,-3.032,-3.0044,-2.9702,-2.9115,0.0,0.0,0.0,0.0,0.0,0.0,0.0,0.0,-2.4263,-2.419,-2.419,-2.419,-2.4401,-2.4768,-2.5356,-2.6337,-2.7163,-2.778,-2.8565,-2.9005,-2.9005,-2.9005,-2.9097,-2.9317,-3.041,-3.083,-3.0594,-3.1665,-3.1879,-3.1351,-3.1351,-3.131,-3.119,-3.119,-3.119,-3.119,-3.119,-3.119,-3.119,-3.119,-3.119,-3.119,-3.119,-3.119,-3.119,-3.1138,-3.1628,0.0,-3.3301,0.0,0.0,-3.3212,-3.4308,0.0,-3.5516,-3.6169,0.0,-3.7749,-3.7604,-3.759,-3.794,-3.7729,0.0,-3.775,0.0,0.0,-3.6999,-3.6076,-3.5389,-3.5023,-3.4697,0.0,-3.4018,0.0,0.0,-3.3571,0.0,0.0,0.0,0.0,-3.4225,-3.3802,-3.3961,-3.3935,-3.3899,-3.5092,-3.5862,0.0,-3.7569,-3.8303,-3.8707,-3.8707,-3.8414,-3.7955,-3.7621,-3.6633,-3.55,-3.5133,-3.4454,-3.3807,-3.3807,-3.3807,-3.3807,-3.3807,-3.3807,-3.3807,-3.3807,-3.3458,-3.3088,-3.2908,-3.2229,-3.1536,-3.1086,-3.0295,-2.959,-2.9307,-2.8968,0.0,0.0,0.0,0.0,0.0,0.0,0.0,0.0,-2.419,-2.419,-2.419,-2.419,-2.4392,-2.4842,-2.5631,-2.6429,-2.7236,-2.8044,-2.8638,-2.8987,-2.9005,-2.8917,-2.8749,-3.0098,-3.049,-2.9853,-3.1185,-3.1584,-3.119,-3.119,-3.119,-3.119,-3.119,-3.119,-3.119,-3.119,-3.119,-3.119,-3.119,-3.119,-3.119,-3.119,-3.119,-3.119,-3.225,0.0,0.0,0.0,0.0,0.0,-3.4172,-3.5523,-3.6528,-3.6501,0.0,-3.783,-3.8684,-3.8327,-3.8297,-3.8994,-3.8829,-3.8803,-3.9036,-3.818,-3.7749,-3.7976,-3.7003,-3.6101,-3.5334,-3.5114,-3.4656,0.0,0.0,0.0,0.0,0.0,0.0,0.0,0.0,0.0,0.0,-3.3807,-3.3807,-3.3954,-3.5624,-3.6303,-3.6486,-3.8083,-3.8707,-3.8707,-3.8707,-3.8707,-3.8597,-3.7896,-3.7052,-3.6174,-3.5408,-3.4527,-3.3807,-3.3807,-3.3807,-3.3807,-3.3807,-3.3807,-3.3793,-3.3734,-3.3721,-3.3606,-3.3196,-3.2586,-3.2035,-3.1941,-3.0514,-2.9349,-2.9489,-2.8878,0.0,0.0,0.0,0.0,0.0,0.0,0.0,0.0,0.0,0.0,-2.4208,-2.419,-2.419,-2.419,-2.4952,-2.576,-2.6557,0.0,-2.8172,-2.8968,-2.894,-2.8773,-2.8471,-2.9916,-3.0277,-2.959,-3.1026,-3.1545,-3.119,-3.119,-3.119,-3.119,-3.119,-3.119,-3.119,-3.119,-3.119,-3.119,-3.119,-3.119,-3.119,-3.119,-3.119,-3.119,-3.3033,0.0,0.0,0.0,0.0,-3.5951,-3.6155,-3.5918,-3.6166,-3.7461,-3.7554,-3.7817,-3.8635,-3.863,-3.8615,-3.8758,-3.8719,0.0,0.0,0.0,0.0,-3.8574,-3.7742,-3.7217,-3.707,-3.5701,-3.4931,0.0,0.0,0.0,0.0,0.0,0.0,0.0,0.0,0.0,-3.3807,-3.3807,0.0,-3.3954,-3.5624,-3.6303,-3.6486,-3.8083,-3.8707,-3.8707,-3.8707,-3.8707,-3.8689,-3.8542,-3.7514,-3.6266,-3.6119,-3.5037,-3.3807,-3.3807,-3.3807,-3.3807,-3.3807,-3.3807,-3.3721,-3.3375,-3.3302,-3.3199,-3.2729,-3.2509,-3.2209,-3.1552,-3.1135,-3.0519,-2.9334,-2.8479,0.0,0.0,0.0,0.0,0.0,0.0,0.0,0.0,0.0,-2.457,-2.4225,-2.419,-2.419,-2.419,-2.4952,-2.576,-2.6557,0.0,-2.8172,0.0,-2.8682,-2.8633,0.0,-2.9464,-2.9819,-2.9997,-3.088,-3.1271,-3.119,-3.119,-3.119,-3.119,-3.119,-3.119,-3.119,-3.119,-3.119,-3.119,-3.119,-3.119,-3.119,-3.119,-3.119,-3.119,-3.3705,0.0,0.0,0.0,0.0,0.0,-3.7249,-3.688,-3.6877,-3.7774,-3.815,-3.8479,-3.8872,-3.8773,-3.8707,-3.8707,-3.8707,-3.8707,-3.8707,-3.8707,-3.8707,-3.8707,-3.8322,-3.7933,-3.7511,-3.6707,-3.5866,-3.5004,0.0,0.0,0.0,0.0,0.0,0.0,0.0,-3.3807,0.0,0.0,-3.3807,-3.3954,-3.5624,-3.6303,-3.6486,-3.8083,-3.8707,-3.8707,-3.8707,-3.8707,-3.8707,-3.8707,-3.7624,-3.6303,-3.6303,-3.5147,-3.3807,-3.3807,-3.3807,-3.3807,-3.3807,-3.3807,-3.3707,-3.3302,-3.3199,-3.3014,-3.2298,-3.2144,-3.2039,-3.1689,-3.1116,-3.0283,-2.8931,-2.8084,-2.7707,-2.8088,-2.8143,0.0,0.0,0.0,-2.6578,0.0,0.0,0.0,0.0,-2.4504,-2.4413,-2.4217,-2.4566,-2.5309,-2.6528,0.0,-2.7636,0.0,0.0,0.0,-2.8129,0.0,-2.9505,-2.954,-3.0655,-3.119,-3.119,-3.119,-3.119,-3.119,-3.119,-3.119,-3.119,-3.119,-3.119,-3.119,-3.119,-3.119,-3.119,-3.119,-3.119,-3.119,0.0,-3.5237,0.0,0.0,-3.6634,-3.7208,-3.7946,-3.7889,-3.7816,-3.8039,-3.8618,-3.9008,-3.9008,-3.8829,-3.8707,-3.8707,-3.8707,-3.8707,-3.8707,-3.8707,-3.8707,-3.8707,-3.8707,-3.8395,-3.7768,-3.7584,-3.6835,0.0,0.0,-3.4582,-3.3807,0.0,0.0,0.0,0.0,0.0,0.0,-3.3807,-3.3899,-3.4192,-3.5697,-3.6395,-3.6707,-3.8157,-3.8707,-3.8707,-3.8707,-3.8707,-3.8655,-3.8394,-3.7418,-3.6303,-3.6303,-3.5105,-3.368,-3.368,-3.3606,-3.3518,-3.3518,-3.3518,-3.3433,-3.2996,-3.2903,-3.2697,-3.1861,-3.1678,-3.1695,-3.173,-3.0883,-2.9798,-2.8816,-2.7969,-2.7494,-2.7728,-2.7783,-2.7557,0.0,0.0,-2.656,0.0,0.0,0.0,-2.4986,-2.5021,-2.4928,-2.4602,-2.4509,-2.5114,-2.6644,0.0,0.0,0.0,-2.8206,-2.8003,-2.7668,0.0,-2.9385,-2.9359,-3.0605,-3.119,-3.119,-3.119,-3.119,-3.119,-3.119,-3.119,-3.119,-3.119,-3.119,-3.119,-3.119,-3.119,-3.119,-3.119,-3.119,-3.119,0.0,0.0,0.0,0.0,-3.7599,-3.7983,-3.8541,-3.8594,-3.8594,-3.8624,-3.868,-3.875,-3.875,-3.8723,-3.8707,-3.8707,-3.8707,-3.8707,-3.8707,-3.8707,-3.8707,-3.8707,-3.8707,-3.867,-3.8597,-3.7878,-3.7419,0.0,0.0,-3.4582,-3.3807,0.0,0.0,0.0,0.0,-3.3807,-3.3807,-3.3807,-3.4215,-3.4968,-3.5917,-3.6725,-3.7474,-3.8358,-3.8707,-3.8707,-3.8707,-3.8707,-3.8517,-3.7366,-3.6677,-3.6303,-3.6303,-3.4914,-3.3258,-3.3258,-3.295,-3.2632,-3.2632,-3.2632,-3.25,-3.2039,-3.1933,-3.1807,-3.1351,-3.1269,-3.1269,-3.1269,-3.0654,-2.9968,-2.9489,-2.8494,-2.7657,-2.7392,-2.7365,-2.733,-2.7261,0.0,-2.7071,-2.6633,0.0,0.0,-2.5478,-2.572,-2.5877,-2.584,-2.5483,-2.5818,-2.7079,0.0,0.0,-2.7932,-2.7589,-2.7877,-2.8817,-2.8973,-2.9517,-3.0472,-3.0959,-3.119,-3.119,-3.119,-3.119,-3.119,-3.119,-3.119,-3.119,-3.119,-3.119,-3.119,-3.119,-3.119,-3.119,-3.119,-3.119,-3.119,-3.6303,-3.6767,-3.7247,-3.7467,-3.7982,-3.8449,-3.8667,-3.8707,-3.8707,-3.8707,-3.8707,-3.8707,-3.8707,-3.8707,-3.8707,-3.8707,-3.8707,-3.8707,-3.8707,-3.8707,-3.8707,-3.8707,-3.8707,-3.8707,-3.8707,-3.8377,-3.7988,0.0,0.0,0.0,0.0,0.0,-3.4266,-3.3807,-3.3807,-3.3807,-3.3825,-3.4321,-3.4711,-3.5133,-3.6468,-3.7217,-3.7584,-3.8395,-3.8707,-3.8658,-3.835,-3.7942,-3.7439,-3.6591,-3.6131,-3.5747,-3.4988,-3.3831,-3.2777,-3.2777,-3.2648,-3.2501,-3.2501,-3.2501,-3.2384,-3.1933,-3.1807,-3.1696,-3.1291,-3.119,-3.119,-3.119,-3.0615,-3.0063,-2.989,-2.8727,-2.7758,-2.7623,-2.7229,-2.6939,-2.6939,0.0,0.0,-2.6718,0.0,-2.6297,-2.5898,-2.5981,-2.6157,-2.6401,-2.6225,-2.6447,-2.7157,-2.7199,0.0,-2.7527,0.0,-2.762,-2.8283,-2.8764,-2.944,-3.0319,-3.0915,-3.119,-3.119,-3.119,-3.119,-3.119,-3.119,-3.119,-3.119,-3.119,-3.119,-3.119,-3.119,-3.119,-3.1241,-3.1701,-3.187,-3.1921,-3.7,-3.7459,-3.786,-3.786,-3.8322,-3.8707,-3.8707,-3.8707,-3.8707,-3.8707,-3.8707,-3.8707,-3.8707,-3.8707,-3.8707,-3.8707,-3.8707,-3.8707,-3.8707,-3.8707,-3.8707,-3.8707,-3.8707,-3.8707,-3.8707,-3.8707,-3.8414,-3.786,-3.7621,-3.6762,-3.5371,-3.4876,-3.4601,-3.4523,-3.4266,-3.4302,-3.4578,-3.5133,-3.5518,-3.583,-3.7033,-3.7639,-3.7915,-3.8487,-3.8611,-3.8433,-3.8048,-3.732,-3.6447,-3.5721,-3.5208,-3.4736,-3.3947,-3.3034,-3.2281,-3.2281,-3.2213,-3.2127,-3.2127,-3.2127,-3.2039,-3.1714,-3.1623,-3.1564,-3.1252,-3.119,-3.119,-3.119,-3.0784,-3.0362,-3.0142,-2.921,-2.8331,-2.7874,-2.735,-2.6945,-2.6725,-2.6691,0.0,-2.6691,-2.6691,-2.6604,-2.6299,-2.6387,-2.6566,-2.6858,-2.6936,-2.7049,-2.7223,-2.7232,-2.7194,-2.7129,-2.7131,-2.745,-2.8163,-2.8722,-2.9484,-3.0429,-3.0954,-3.119,-3.119,-3.119,-3.119,-3.119,-3.119,-3.119,-3.1207,-3.1427,-3.1512,-3.1529,-3.1765,-3.185,-3.1881,-3.2206,-3.2345,-3.2391,-3.867,-3.8689,-3.8689,-3.8689,-3.8689,-3.8707,-3.8707,-3.8707,-3.8707,-3.8707,-3.8707,-3.8707,-3.8707,-3.8707,-3.8707,-3.8707,-3.8707,-3.8707,-3.8707,-3.8707,-3.8707,-3.8707,-3.8707,-3.8707,-3.8707,-3.8707,-3.8707,-3.8689,0.0,-3.7088,-3.6248,-3.4596,-3.4688,-3.6229,-3.5371,-3.5463,-3.6266,-3.6266,-3.6725,-3.7474,-3.7492,-3.7988,-3.8689,-3.8707,-3.8366,-3.7893,-3.7893,-3.7094,-3.5826,-3.4638,-3.3737,-3.3188,-3.3582,-3.2827,-3.1825,-3.1825,-3.1526,-3.121,-3.121,-3.121,-3.121,-3.121,-3.121,-3.121,-3.119,-3.119,-3.119,-3.119,-3.119,-3.0954,-3.0243,-3.0072,-2.9565,-2.8043,-2.779,-2.7536,-2.6793,-2.6691,0.0,-2.6691,-2.6691,-2.6708,-2.6691,-2.705,-2.7286,-2.7301,-2.766,-2.7704,-2.7332,-2.7301,-2.7131,-2.6725,-2.6708,-2.7436,-2.8976,-2.8993,-2.9738,-3.119,-3.119,-3.119,-3.119,-3.119,-3.119,-3.119,-3.119,-3.119,-3.1258,-3.1989,-3.2293,-3.2361,-3.3085,-3.3372,-3.3288,-3.2646,-3.2383,-3.2292,-3.8707,-3.8707,-3.8707,-3.8707,-3.8707,-3.8707,-3.8707,-3.8707,-3.8707,-3.8707,-3.8707,-3.8707,-3.8707,-3.8707,-3.8707,-3.8707,-3.8707,-3.8707,-3.8707,-3.8707,-3.8707,-3.8707,-3.8707,-3.8707,-3.8707,-3.8707,-3.8707,-3.8707,-3.8432,-3.79,-3.7088,-3.6009,-3.5789,-3.6285,-3.6009,-3.6046,-3.634,-3.6905,-3.7037,-3.7007,-3.7551,-3.7729,-3.7685,-3.7685,-3.7578,-3.7307,-3.644,-3.5545,-3.4584,-3.3333,-3.242,-3.1824,-3.1962,-3.1713,-3.1391,-3.1391,-3.131,-3.119,-3.119,-3.119,-3.119,-3.119,-3.119,-3.119,-3.119,-3.119,-3.119,-3.119,-3.119,-3.1123,-3.0886,-3.0446,-2.977,-2.8772,-2.8145,-2.7536,-2.6793,-2.6691,-2.6691,-2.6691,-2.6691,-2.6691,-2.6691,-2.6825,-2.689,-2.689,-2.7003,-2.7147,-2.7303,-2.7303,-2.7115,-2.6708,-2.7199,-2.796,-2.8993,-2.9499,-3.0243,-3.119,-3.119,-3.119,-3.119,-3.119,-3.119,-3.1224,-3.1735,-3.1694,-3.1331,-3.2061,-3.2099,-3.1697,-3.1925,-3.2046,-3.2087,-3.2361,-3.2482,-3.2523,-3.8707,-3.8707,-3.8707,-3.8707,-3.8707,-3.8707,-3.8707,-3.8707,-3.8707,-3.8707,-3.8707,-3.8707,-3.8707,-3.8707,-3.8707,-3.8707,-3.8707,-3.8707,-3.8707,-3.8707,-3.8707,-3.8707,-3.8707,-3.8707,-3.8707,-3.8707,-3.8707,-3.8707,-3.8707,-3.8432,-3.7933,-3.7144,-3.6798,-3.6903,-3.6577,-3.6518,-3.6669,-3.7174,-3.719,-3.6933,-3.7434,-3.747,-3.7209,-3.7209,-3.6901,-3.6373,-3.5588,-3.4515,-3.335,-3.2567,-3.1819,-3.119,-3.119,-3.119,-3.119,-3.119,-3.119,-3.119,-3.119,-3.119,-3.119,-3.119,-3.119,-3.119,-3.119,-3.119,-3.119,-3.119,-3.119,-3.119,-3.119,-3.0818,-3.0277,-2.9533,-2.8755,-2.7994,-2.7232,-2.686,-2.6691,-2.6691,-2.6691,-2.6691,-2.6691,-2.6691,-2.6691,-2.6691,-2.6691,-2.6808,-2.7051,-2.7067,-2.7075,-2.7097,-2.7553,-2.8314,-2.9397,-2.9871,-3.048,-3.119,-3.119,-3.119,-3.1207,-3.1478,-3.1476,-3.129,-3.2027,-3.1967,-3.1398,-3.2129,-3.2192,-3.1836,-3.2116,-3.2237,-3.2235,-3.2469,-3.254,-3.2562,-3.8707,-3.8707,-3.8707,-3.8707,-3.8707,-3.8707,-3.8707,-3.8707,-3.8707,-3.8707,-3.8707,-3.8707,-3.8707,-3.8707,-3.8707,-3.8707,-3.8707,-3.8707,-3.8707,-3.8707,-3.8707,-3.8707,-3.8707,-3.8707,-3.8707,-3.8707,-3.8707,-3.8707,-3.8707,-3.8707,-3.8689,-3.7933,-3.7703,-3.7875,-3.7119,-3.6933,-3.7209,-3.7209,-3.719,-3.7135,-3.7135,-3.7116,-3.7078,-3.7078,-3.6313,-3.5252,-3.52,-3.3931,-3.2293,-3.2242,-3.1769,-3.119,-3.119,-3.119,-3.119,-3.119,-3.119,-3.119,-3.119,-3.119,-3.119,-3.119,-3.119,-3.119,-3.119,-3.119,-3.119,-3.119,-3.119,-3.119,-3.119,-3.119,-3.0954,-3.0207,-2.9516,-2.8772,-2.7925,-2.7215,-2.6759,-2.6725,-2.6691,-2.6691,-2.6691,-2.6691,-2.6691,-2.6691,0.0,-2.6776,-2.6776,-2.6826,-2.7148,-2.779,-2.7908,-2.8652,-3.0091,-3.014,-3.0531,-3.119,-3.119,-3.1224,-3.1292,-3.1989,-3.1985,-3.1479,-3.2192,-3.2097,-3.1533,-3.2226,-3.2463,-3.2501,-3.3188,-3.3453,-3.3391,-3.2761,-3.2504,-3.2437,-3.8707,-3.8707,-3.8707,-3.8707,-3.8707,-3.8707,-3.8707,-3.8707,-3.8707,-3.8707,-3.8707,-3.8707,-3.8707,-3.8707,-3.8707,-3.8707,-3.8707,-3.8707,-3.8707,-3.8707,-3.8707,-3.8707,-3.8707,-3.8707,-3.8707,-3.8707,-3.8707,-3.8707,-3.8707,-3.8707,-3.8707,-3.8505,-3.8232,-3.7893,-3.7713,-3.7452,-3.7209,-3.7209,-3.6962,-3.66,-3.66,-3.6354,-3.5968,-3.5968,-3.5442,-3.4619,-3.4057,-3.3175,-3.2209,-3.1667,-3.1326,-3.119,-3.119,-3.119,-3.119,-3.119,-3.119,-3.119,-3.119,-3.119,-3.119,-3.119,-3.119,-3.119,-3.119,-3.119,-3.119,-3.119,-3.119,-3.119,-3.119,-3.119,-3.0954,-3.0207,-2.9956,-2.9364,-2.7993,-2.7655,-2.7317,-2.6759,-2.6691,-2.6691,-2.6691,-2.6691,-2.6691,-2.6691,0.0,-2.7536,-2.7536,-2.8112,-2.8247,-2.7824,-2.8939,-2.9717,-3.0108,-3.0666,-3.1021,-3.119,-3.119,-3.1478,-3.2056,-3.2226,-3.2533,-3.2937,-3.3137,-3.2876,-3.2242,-3.2468,-3.2245,-3.1751,-3.1931,-3.1992,-3.1964,-3.1824,-3.1768,-3.1754,-3.8707,-3.8707,-3.8707,-3.8707,-3.8707,-3.8707,-3.8707,-3.8707,-3.8707,-3.8707,-3.8707,-3.8707,-3.8707,-3.8707,-3.8707,-3.8707,-3.8707,-3.8707,-3.8707,-3.8707,-3.8707,-3.8707,-3.8707,-3.8707,-3.8707,-3.8707,-3.8707,-3.8707,-3.8707,-3.8707,-3.8692,-3.8449,-3.8065,-3.7578,-3.7323,-3.6925,-3.646,-3.646,-3.6312,-3.6032,-3.6032,-3.5854,-3.56,-3.56,-3.5148,-3.4387,-3.366,-3.2933,-3.2192,-3.1444,-3.119,-3.119,-3.119,-3.119,-3.119,-3.119,-3.119,-3.119,-3.119,-3.119,-3.119,-3.119,-3.119,-3.119,-3.119,-3.119,-3.119,-3.119,-3.119,-3.119,-3.119,-3.119,-3.1072,-3.0666,-3.0328,-2.982,-2.8973,-2.8551,-2.8197,-2.7808,-2.7757,-2.7757,-2.7757,-2.7757,-2.7757,-2.7757,-2.8112,-2.8349,-2.8349,-2.9076,-2.9296,-2.8872,-2.9649,-3.026,-3.0598,-3.1004,-3.119,-3.119,-3.1529,-3.1763,-3.188,-3.2548,-3.2724,-3.2526,-3.2917,-3.2681,-3.2059,-3.2091,-3.1853,-3.1511,-3.1511,-3.1511,-3.1511,-3.1511,-3.1511,-3.1511,-3.8707,-3.8707,-3.8707,-3.8707,-3.8707,-3.8707,-3.8707,-3.8707,-3.8707,-3.8707,-3.8707,-3.8707,-3.8707,-3.8707,-3.8707,-3.8707,-3.8707,-3.8707,-3.8707,-3.8707,-3.8707,-3.8707,-3.8707,-3.8707,-3.8707,-3.8707,-3.8707,-3.8707,-3.8627,-3.8578,-3.8562,-3.8048,-3.7542,-3.7076,-3.6603,-3.6097,-3.56,-3.56,-3.56,-3.56,-3.56,-3.56,-3.56,-3.56,-3.5148,-3.4387,-3.366,-3.2933,-3.2192,-3.1444,-3.119,-3.119,-3.119,-3.119,-3.119,-3.119,-3.119,-3.119,-3.119,-3.119,-3.119,-3.119,-3.119,-3.119,-3.119,-3.119,-3.119,-3.119,-3.119,-3.119,-3.119,-3.119,-3.119,-3.119,-3.0666,-3.0243,-3.0125,-2.955,-2.9128,-2.901,-2.8993,-2.8993,-2.8993,-2.8993,-2.8993,-2.8993,-2.9111,-2.9179,-2.9179,-2.9871,-3.0277,-3.0277,-3.0277,-3.0565,-3.119,-3.119,-3.1258,-3.136,-3.2005,-3.2064,-3.1676,-3.2915,-3.2845,-3.1767,-3.235,-3.2244,-3.1668,-3.1568,-3.1511,-3.1511,-3.1511,-3.1511,-3.1511,-3.1511,-3.1511,-3.1511,-3.8707,-3.8707,-3.8707,-3.8707,-3.8707,-3.8707,-3.8707,-3.8707,-3.8707,-3.8707,-3.8707,-3.8707,-3.8707,-3.8707,-3.8707,-3.8707,-3.8707,-3.8707,-3.8707,-3.8707,-3.8707,-3.8707,-3.8707,-3.8707,-3.8707,-3.8707,-3.8707,-3.8707,-3.8251,-3.8013,-3.7997,-3.7524,-3.702,-3.6519,-3.6437,-3.6097,-3.56,-3.56,-3.56,-3.56,-3.56,-3.56,-3.56,-3.56,-3.5148,-3.4387,-3.366,-3.2933,-3.2192,-3.1444,-3.119,-3.119,-3.119,-3.119,-3.119,-3.119,-3.119,-3.119,-3.119,-3.119,-3.119,-3.119,-3.119,-3.119,-3.119,-3.119,-3.119,-3.119,-3.119,-3.119,-3.119,-3.119,-3.119,-3.119,-3.1106,-3.0818,-3.0192,-3.0006,-2.9702,-2.9077,-2.8993,-2.8993,-2.8993,-2.8993,-2.8993,-2.8993,-2.9583,-2.9939,-2.9939,-3.0632,-3.1021,-3.1021,-3.1021,-3.1072,-3.119,-3.119,-3.1495,-3.2141,-3.2242,-3.2605,-3.3185,-3.3399,-3.3405,-3.3216,-3.2795,-3.2547,-3.2382,-3.1768,-3.1511,-3.1511,-3.1511,-3.1511,-3.1511,-3.1511,-3.1511,-3.1511,-3.8707,-3.8707,-3.8707,-3.8707,-3.8707,-3.8707,-3.8707,-3.8707,-3.8707,-3.8707,-3.8707,-3.8707,-3.8707,-3.8707,-3.8707,-3.8707,-3.8449,-3.8267,-3.8267,-3.8546,-3.8562,-3.8283,-3.8267,-3.815,-3.7913,-3.7878,-3.7878,-3.7878,-3.7649,-3.7524,-3.7506,-3.7001,-3.6641,-3.6392,-3.6097,-3.5832,-3.56,-3.56,-3.56,-3.56,-3.56,-3.56,-3.56,-3.56,-3.538,-3.5013,-3.4252,-3.3508,-3.278,-3.2056,-3.1532,-3.119,-3.119,-3.119,-3.119,-3.119,-3.119,-3.119,-3.119,-3.119,-3.119,-3.119,-3.119,-3.119,-3.119,-3.119,-3.119,-3.119,-3.119,-3.119,-3.119,-3.119,-3.119,-3.119,-3.119,-3.1072,-3.0734,-3.0412,-3.0082,-2.9732,-2.9406,-2.9345,-2.9679,-2.9699,-2.9699,-2.9699,-3.0016,-3.0078,-2.9753,-3.0065,-3.023,-3.023,-3.0858,-3.119,-3.119,-3.1223,-3.1429,-3.1762,-3.2199,-3.2382,-3.2376,-3.2825,-3.2804,-3.2461,-3.2132,-3.2007,-3.1979,-3.164,-3.1511,-3.1511,-3.1511,-3.1511,-3.1511,-3.1511,-3.1511,-3.1511,-3.8707,-3.8707,-3.8707,-3.8707,-3.8707,-3.8707,-3.8707,-3.8707,-3.8707,-3.8707,-3.8578,-3.8512,-3.8512,-3.8417,-3.835,-3.835,-3.7981,-3.7737,-3.7737,-3.8117,-3.8168,-3.7773,-3.7737,-3.756,-3.7209,-3.7209,-3.7209,-3.7209,-3.7076,-3.7001,-3.7001,-3.6478,-3.6224,-3.6203,-3.5766,-3.56,-3.56,-3.56,-3.56,-3.56,-3.56,-3.56,-3.56,-3.56,-3.56,-3.5498,-3.4759,-3.4134,-3.3525,-3.2615,-3.1921,-3.143,-3.1241,-3.119,-3.119,-3.119,-3.119,-3.119,-3.119,-3.119,-3.119,-3.119,-3.119,-3.119,-3.119,-3.119,-3.119,-3.119,-3.119,-3.119,-3.119,-3.119,-3.119,-3.119,-3.1075,-3.0995,-3.0995,-3.0477,-3.0102,-3.0102,-2.9673,-2.9585,-3.0059,-3.0102,-3.0102,-3.0102,-3.0102,-2.9892,-2.9429,-2.9406,-2.9406,-2.9406,-3.0293,-3.0844,-3.1011,-3.1078,-3.1257,-3.1599,-3.2192,-3.2209,-3.1685,-3.2311,-3.2203,-3.1511,-3.1511,-3.1511,-3.1511,-3.1511,-3.1511,-3.1511,-3.1511,-3.1511,-3.1511,-3.1511,-3.1511,-3.1511,-3.8707,-3.8707,-3.8707,-3.8707,-3.8707,-3.8707,-3.8707,-3.8707,-3.8707,-3.8707,-3.8267,-3.7963,-3.7963,-3.756,-3.7304,-3.7304,-3.7267,-3.7248,-3.7248,-3.7303,-3.7285,-3.7248,-3.7248,-3.7247,-3.7209,-3.7209,-3.7209,-3.7209,-3.6704,-3.6457,-3.6437,-3.592,-3.565,-3.5667,-3.5622,-3.56,-3.56,-3.56,-3.56,-3.56,-3.56,-3.56,-3.56,-3.56,-3.56,-3.5498,-3.4759,-3.4455,-3.4201,-3.2784,-3.2259,-3.2107,-3.141,-3.119,-3.119,-3.119,-3.119,-3.119,-3.119,-3.119,-3.119,-3.119,-3.119,-3.119,-3.119,-3.119,-3.119,-3.119,-3.119,-3.119,-3.119,-3.119,-3.119,-3.119,-3.072,-3.0372,-3.0372,-2.9848,-2.9473,-2.9473,-2.9429,-2.9429,-2.9451,-2.9473,-2.9473,-2.9473,-2.9473,-2.9451,-2.9406,-2.9406,-2.9406,-2.9406,-2.9496,-2.9839,-3.0459,-3.0477,-3.1118,-3.2414,-3.246,-3.2503,-3.2509,-3.2571,-3.2203,-3.1511,-3.1511,-3.1511,-3.1511,-3.1511,-3.1511,-3.1511,-3.1511,-3.1511,-3.1511,-3.1511,-3.1511,-3.1511,-3.8707,-3.8707,-3.8611,-3.8267,-3.82,-3.8117,-3.7808,-3.7773,-3.7773,-3.7773,-3.7596,-3.747,-3.747,-3.7304,-3.7209,-3.7209,-3.6902,-3.6704,-3.6704,-3.6378,-3.6374,-3.6684,-3.6395,-3.6207,-3.6207,-3.6207,-3.6207,-3.6207,-3.5989,-3.5898,-3.5898,-3.5694,-3.56,-3.56,-3.56,-3.56,-3.56,-3.56,-3.56,-3.56,-3.56,-3.56,-3.56,-3.56,-3.56,-3.5566,-3.5278,-3.4895,-3.4404,-3.3846,-3.3072,-3.2242,-3.1972,-3.1582,-3.119,-3.119,-3.119,-3.119,-3.119,-3.119,-3.119,-3.119,-3.119,-3.119,-3.119,-3.119,-3.119,-3.119,-3.119,-3.1092,-3.0699,-3.0938,-3.0938,-3.0208,-3.0208,-3.0166,-2.9783,-2.9225,-2.885,-2.885,-2.8519,-2.8424,-2.8803,-2.885,-2.885,-2.885,-2.885,-2.8685,-2.8304,-2.828,-2.8455,-2.8876,-2.8891,-2.9392,-3.0376,-3.0809,-3.1299,-3.1831,-3.1848,-3.1888,-3.1938,-3.1938,-3.1768,-3.1511,-3.1511,-3.1511,-3.1511,-3.1511,-3.1511,-3.1511,-3.1511,-3.1511,-3.1511,-3.1511,-3.1511,-3.1511,-3.8707,-3.8562,-3.8332,-3.7963,-3.7772,-3.7578,-3.7248,-3.7209,-3.7209,-3.7209,-3.7039,-3.696,-3.696,-3.6786,-3.6704,-3.6704,-3.6374,-3.6161,-3.6161,-3.5788,-3.5761,-3.6139,-3.5805,-3.56,-3.56,-3.56,-3.56,-3.56,-3.56,-3.56,-3.56,-3.56,-3.56,-3.56,-3.56,-3.56,-3.56,-3.56,-3.56,-3.56,-3.56,-3.56,-3.56,-3.56,-3.56,-3.56,-3.56,-3.5261,-3.481,-3.4573,-3.3833,-3.2953,-3.2733,-3.2141,-3.1515,-3.1258,-3.119,-3.119,-3.119,-3.119,-3.119,-3.119,-3.119,-3.119,-3.119,-3.119,-3.119,-3.119,-3.119,-3.1015,-3.0414,-3.0638,-3.058,-2.9563,-2.9585,-2.9585,-2.918,-2.8591,-2.8213,-2.8213,-2.786,-2.776,-2.8189,-2.8213,-2.8213,-2.8213,-2.8213,-2.8042,-2.7625,-2.7809,-2.8113,-2.8592,-2.8996,-2.9594,-3.0423,-3.0896,-3.1224,-3.1427,-3.1485,-3.1511,-3.1511,-3.1511,-3.1511,-3.1511,-3.1511,-3.1511,-3.1511,-3.1511,-3.1511,-3.1511,-3.1511,-3.1511,-3.1511,-3.1511,-3.1511,-3.1511,-3.8692,-3.8267,-3.7911,-3.7876,-3.7506,-3.7173,-3.7173,-3.719,-3.719,-3.719,-3.6724,-3.6395,-3.6395,-3.592,-3.56,-3.56,-3.56,-3.56,-3.56,-3.56,-3.56,-3.56,-3.56,-3.56,-3.56,-3.56,-3.56,-3.56,-3.56,-3.56,-3.56,-3.56,-3.56,-3.56,-3.56,-3.56,-3.56,-3.56,-3.56,-3.56,-3.56,-3.56,-3.56,-3.56,-3.56,-3.56,-3.56,-3.56,-3.5481,-3.4759,-3.4489,-3.437,-3.3643,-3.2899,-3.2158,-3.1427,-3.1207,-3.1207,-3.1207,-3.1207,-3.119,-3.119,-3.119,-3.119,-3.119,-3.119,-3.119,-3.119,-3.119,-3.1015,-3.0393,-3.0293,-3.0102,-2.9473,-2.8896,-2.8487,-2.8487,-2.7984,-2.76,-2.76,-2.76,-2.76,-2.76,-2.76,-2.76,-2.76,-2.76,-2.76,-2.76,-2.8233,-2.8607,-2.8607,-2.9834,-3.0507,-3.0507,-3.0507,-3.0823,-3.1511,-3.1511,-3.1511,-3.1511,-3.1511,-3.1511,-3.1511,-3.1511,-3.1511,-3.1511,-3.1511,-3.1511,-3.1511,-3.1511,-3.1511,-3.1511,-3.1511,-3.1511,-3.1511,-3.8216,-3.7997,-3.7685,-3.6981,-3.6744,-3.6501,-3.6122,-3.6075,-3.6075,-3.6075,-3.5941,-3.5832,-3.5832,-3.5694,-3.56,-3.56,-3.56,-3.56,-3.56,-3.56,-3.56,-3.56,-3.56,-3.56,-3.56,-3.56,-3.56,-3.56,-3.56,-3.56,-3.56,-3.56,-3.56,-3.56,-3.56,-3.56,-3.56,-3.56,-3.56,-3.56,-3.56,-3.56,-3.56,-3.56,-3.56,-3.56,-3.56,-3.56,-3.5566,-3.5346,-3.4928,-3.437,-3.3643,-3.3254,-3.3034,-3.2814,-3.2747,-3.2747,-3.2747,-3.2056,-3.1333,-3.123,-3.119,-3.119,-3.119,-3.119,-3.1075,-3.0658,-3.0559,-3.0251,-2.9225,-2.9384,-2.9323,-2.8304,-2.8343,-2.8343,-2.7919,-2.771,-2.76,-2.76,-2.76,-2.76,-2.76,-2.76,-2.76,-2.76,-2.76,-2.7809,-2.8263,-2.8487,-2.9011,-2.9909,-3.0298,-3.0731,-3.1197,-3.1197,-3.1301,-3.1511,-3.1511,-3.1511,-3.1511,-3.1511,-3.1511,-3.1511,-3.1511,-3.1511,-3.1511,-3.1511,-3.1511,-3.1511,-3.1511,-3.1511,-3.1511,-3.1511,-3.1511,-3.1511,-3.8015,-3.7755,-3.736,-3.6542,-3.6224,-3.5968,-3.5667,-3.56,-3.56,-3.56,-3.56,-3.56,-3.56,-3.56,-3.56,-3.56,-3.56,-3.56,-3.56,-3.56,-3.56,-3.56,-3.56,-3.56,-3.56,-3.56,-3.56,-3.56,-3.56,-3.56,-3.56,-3.56,-3.56,-3.56,-3.56,-3.56,-3.56,-3.56,-3.56,-3.56,-3.56,-3.56,-3.56,-3.56,-3.56,-3.56,-3.56,-3.56,-3.56,-3.56,-3.5295,-3.4766,-3.3767,-3.3619,-3.3676,-3.284,-3.2796,-3.2944,-3.2669,-3.2032,-3.1371,-3.1308,-3.0886,-3.0477,-3.0477,-3.0477,-3.0393,-3.0016,-2.9935,-2.9651,-2.8677,-2.8803,-2.8732,-2.776,-2.791,-2.8018,-2.7635,-2.76,-2.76,-2.76,-2.76,-2.76,-2.76,-2.76,-2.76,-2.76,-2.7854,-2.8158,-2.8577,-2.9086,-2.9699,-3.0477,-3.0776,-3.1077,-3.1511,-3.1511,-3.1511,-3.1511,-3.1511,-3.1511,-3.1511,-3.1511,-3.1511,-3.1511,-3.1511,-3.1511,-3.1511,-3.1511,-3.1511,-3.1511,-3.1511,-3.1511,-3.1511,-3.1511,-3.1511,-3.1511,-3.7877,-3.7433,-3.696,-3.6416,-3.592,-3.56,-3.56,-3.56,-3.56,-3.56,-3.56,-3.56,-3.56,-3.56,-3.56,-3.56,-3.56,-3.56,-3.56,-3.56,-3.56,-3.56,-3.56,-3.56,-3.56,-3.56,-3.56,-3.56,-3.56,-3.56,-3.56,-3.56,-3.56,-3.56,-3.56,-3.56,-3.56,-3.56,-3.56,-3.56,-3.56,-3.56,-3.56,-3.56,-3.56,-3.56,-3.56,-3.56,-3.56,-3.56,-3.56,-3.5374,-3.4021,-3.4006,-3.4136,-3.2159,-3.2029,-3.2373,-3.175,-3.15,-3.1428,-3.1428,-3.0402,-2.9462,-2.9553,-2.9576,-2.956,-2.9428,-2.9412,-2.9213,-2.855,-2.8415,-2.8238,-2.7685,-2.76,-2.76,-2.76,-2.76,-2.76,-2.76,-2.76,-2.76,-2.76,-2.7645,-2.769,-2.769,-2.8293,-2.8712,-2.8771,-2.9879,-3.0537,-3.0597,-3.1182,-3.1511,-3.1511,-3.1511,-3.1511,-3.1511,-3.1511,-3.1511,-3.1511,-3.1511,-3.1511,-3.1511,-3.1511,-3.1511,-3.1511,-3.1511,-3.1511,-3.1511,-3.1511,-3.1511,-3.1511,-3.1511,-3.1511,-3.1511,-3.6825,-3.6643,-3.6416,-3.5876,-3.5689,-3.56,-3.56,-3.56,-3.56,-3.56,-3.56,-3.56,-3.56,-3.56,-3.56,-3.56,-3.56,-3.56,-3.56,-3.56,-3.56,-3.56,-3.56,-3.56,-3.56,-3.56,-3.56,-3.56,-3.56,-3.56,-3.56,-3.56,-3.56,-3.56,-3.56,-3.56,-3.56,-3.56,-3.56,-3.56,-3.56,-3.56,-3.56,-3.56,-3.56,-3.56,-3.56,-3.56,-3.56,-3.56,-3.56,-3.5476,-3.4625,-3.4457,-3.44,-3.3408,-3.3235,-3.331,-3.3159,-3.2345,-3.1555,-3.1555,-3.0561,-2.9792,-3.0767,-3.0983,-3.068,-2.9663,-2.9472,-2.9131,-2.8,-2.781,-2.776,-2.7625,-2.76,-2.76,-2.76,-2.76,-2.76,-2.76,-2.76,-2.76,-2.76,-2.8094,-2.8368,-2.8368,-2.8996,-2.9579,-3.0058,-3.0357,-3.0746,-3.1271,-3.1421,-3.1511,-3.1511,-3.1511,-3.1511,-3.1511,-3.1511,-3.1511,-3.1511,-3.1511,-3.1511,-3.1511,-3.1511,-3.1511,-3.1511,-3.1511,-3.1511,-3.1511,-3.1511,-3.1511,-3.1511,-3.1511,-3.1511,-3.1511,-3.6498,-3.6395,-3.6224,-3.5694,-3.56,-3.56,-3.56,-3.56,-3.56,-3.56,-3.56,-3.56,-3.56,-3.56,-3.56,-3.56,-3.56,-3.56,-3.56,-3.56,-3.56,-3.56,-3.56,-3.56,-3.56,-3.56,-3.56,-3.56,-3.56,-3.56,-3.56,-3.56,-3.56,-3.56,-3.56,-3.56,-3.56,-3.56,-3.56,-3.56,-3.56,-3.56,-3.56,-3.56,-3.56,-3.56,-3.56,-3.56,-3.5538,-3.523,-3.5121,-3.4941,-3.3962,-3.3862,-3.3937,-3.2891,-3.2853,-3.3039,-3.2691,-3.2078,-3.1546,-3.1546,-3.1026,-3.0521,-3.0541,-3.0541,-3.0346,-2.9689,-2.9535,-2.9325,-2.867,-2.8558,-2.8558,-2.8558,-2.8558,-2.8558,-2.8558,-2.8558,-2.8558,-2.8558,-2.8558,-2.8558,-2.8558,-2.8861,-2.9071,-2.9071,-2.9669,-3.0163,-3.0492,-3.0806,-3.1137,-3.1496,-3.1511,-3.1511,-3.1511,-3.1511,-3.1511,-3.1511,-3.1511,-3.1511,-3.1511,-3.1511,-3.1511,-3.1511,-3.1511,-3.1511,-3.1511,-3.1511,-3.1511,-3.1511,-3.1511,-3.1511,-3.1511,-3.1511,-3.1511,-3.1511,-3.6354,-3.6249,-3.6118,-3.5672,-3.56,-3.56,-3.56,-3.56,-3.56,-3.56,-3.56,-3.56,-3.56,-3.56,-3.56,-3.56,-3.56,-3.56,-3.56,-3.56,-3.56,-3.56,-3.56,-3.56,-3.56,-3.56,-3.56,-3.56,-3.56,-3.56,-3.56,-3.56,-3.56,-3.56,-3.56,-3.56,-3.56,-3.56,-3.56,-3.56,-3.56,-3.56,-3.56,-3.56,-3.56,-3.56,-3.56,-3.5515,-3.5339,-3.4783,-3.4528,-3.4211,-3.2986,-3.2986,-3.3182,-3.1894,-3.1923,-3.2272,-3.1668,-3.1511,-3.1511,-3.1511,-3.1511,-3.1212,-3.0163,-2.9909,-2.9879,-2.9786,-2.9744,-2.9726,-2.9636,-2.9606,-2.9606,-2.9606,-2.9606,-2.9606,-2.9606,-2.9606,-2.9606,-2.9606,-2.9606,-2.9606,-2.9606,-2.9696,-2.9744,-2.9744,-3.0313,-3.0672,-3.0672,-3.1197,-3.1511,-3.1511,-3.1511,-3.1511,-3.1511,-3.1511,-3.1511,-3.1511,-3.1511,-3.1511,-3.1511,-3.1511,-3.1511,-3.1511,-3.1511,-3.1511,-3.1511,-3.1511,-3.1511,-3.1511,-3.1511,-3.1511,-3.1511,-3.1511,-3.1511,-3.1467,-3.5717,-3.5717,-3.5689,-3.5622,-3.56,-3.56,-3.56,-3.56,-3.56,-3.56,-3.56,-3.56,-3.56,-3.56,-3.56,-3.56,-3.56,-3.56,-3.56,-3.56,-3.56,-3.56,-3.56,-3.56,-3.56,-3.56,-3.56,-3.56,-3.56,-3.56,-3.56,-3.56,-3.56,-3.56,-3.56,-3.56,-3.56,-3.56,-3.56,-3.56,-3.56,-3.56,-3.56,-3.56,-3.56,-3.56,-3.56,-3.523,-3.4712,-3.4624,-3.4211,-3.3582,-3.2841,-3.2668,-3.2586,-3.1739,-3.1582,-3.164,-3.1524,-3.1511,-3.1511,-3.1511,-3.1511,-3.1451,-3.1286,-3.1241,-3.1077,-3.0507,-3.0372,-3.0223,-2.9711,-2.9606,-2.9606,-2.9606,-2.9606,-2.9606,-2.9606,-2.9606,-2.9606,-2.9606,-2.9606,-2.9606,-2.9606,-3.0058,-3.0372,-3.0372,-3.0972,-3.1361,-3.1361,-3.1451,-3.1511,-3.1511,-3.1511,-3.1511,-3.1511,-3.1511,-3.1511,-3.1511,-3.1511,-3.1511,-3.1511,-3.1511,-3.1511,-3.1511,-3.1511,-3.1511,-3.1511,-3.1511,-3.1511,-3.1511,-3.1511,-3.1511,-3.1511,-3.1511,-3.1511,-3.1409,-3.56,-3.56,-3.56,-3.56,-3.56,-3.56,-3.56,-3.56,-3.56,-3.56,-3.56,-3.56,-3.56,-3.56,-3.56,-3.56,-3.56,-3.56,-3.56,-3.56,-3.56,-3.56,-3.56,-3.56,-3.56,-3.56,-3.56,-3.56,-3.56,-3.56,-3.56,-3.56,-3.56,-3.56,-3.56,-3.56,-3.56,-3.56,-3.56,-3.56,-3.56,-3.56,-3.56,-3.56,-3.56,-3.56,-3.56,-3.5184,-3.4528,-3.4161,-3.3598,-3.2906,-3.2216,-3.1979,-3.1938,-3.1582,-3.1511,-3.1511,-3.1511,-3.1511,-3.1511,-3.1511,-3.1511,-3.1511,-3.1511,-3.1511,-3.1421,-3.1122,-3.1047,-3.0972,-3.0717,-3.0672,-3.0672,-3.0672,-3.0672,-3.0672,-3.0672,-3.0672,-3.0672,-3.0672,-3.0672,-3.0672,-3.0672,-3.0883,-3.1047,-3.1047,-3.1331,-3.1511,-3.1511,-3.1511,-3.1511,-3.1511,-3.1511,-3.1511,-3.1511,-3.1511,-3.1511,-3.1511,-3.1511,-3.1511,-3.1511,-3.1511,-3.1511,-3.1511,-3.1511,-3.1511,-3.1511,-3.1511,-3.1511,-3.1511,-3.1511,-3.1511,-3.1511,-3.1511,-3.1511,-3.138]},{"header":{"parameterUnit":"m.s-1","parameterCategory":1,"la1":30.6,"la2":28.766,"lo1":-90.7593,"lo2":-88.6598,"dy":0.0162,"dx":0.0183,"nx":116,"ny":114,"refTime":"2023-11-03T18:00:00:Z","depth":0,"parameterNumber":3,"parameterNumberName":"V-component_of_WINDS"},"data":[0.0,0.0,0.0,0.0,0.0,0.0,0.0,0.0,0.0,0.0,0.0,0.0,0.0,0.0,0.0,0.0,0.0,0.0,0.0,0.0,0.0,0.0,0.0,0.0,0.0,0.0,0.0,0.0,0.0,0.0,0.0,0.0,0.0,0.0,0.0,0.0,0.0,0.0,0.0,0.0,0.0,0.0,0.0,0.0,0.0,0.0,0.0,0.0,0.0,0.0,0.0,0.0,0.0,0.0,0.0,0.0,0.0,0.0,0.0,0.0,0.0,0.0,0.0,0.0,0.0,0.0,0.0,0.0,0.0,0.0,0.0,0.0,0.0,0.0,0.0,0.0,0.0,0.0,0.0,0.0,0.0,0.0,0.0,0.0,0.0,0.0,0.0,0.0,0.0,0.0,0.0,0.0,0.0,0.0,0.0,0.0,0.0,0.0,0.0,0.0,0.0,0.0,0.0,0.0,0.0,0.0,0.0,0.0,0.0,0.0,0.0,0.0,0.0,0.0,0.0,0.0,0.0,0.0,0.0,0.0,0.0,0.0,0.0,0.0,0.0,0.0,0.0,0.0,0.0,0.0,0.0,0.0,0.0,0.0,0.0,0.0,0.0,0.0,0.0,0.0,0.0,0.0,0.0,0.0,0.0,0.0,0.0,0.0,0.0,0.0,0.0,0.0,0.0,0.0,0.0,0.0,0.0,0.0,0.0,0.0,0.0,0.0,0.0,0.0,0.0,0.0,0.0,0.0,0.0,0.0,0.0,0.0,0.0,0.0,0.0,0.0,0.0,0.0,0.0,0.0,0.0,0.0,0.0,0.0,0.0,0.0,0.0,0.0,0.0,0.0,0.0,0.0,0.0,0.0,0.0,0.0,0.0,0.0,0.0,0.0,0.0,0.0,0.0,0.0,0.0,0.0,0.0,0.0,0.0,0.0,0.0,0.0,0.0,0.0,0.0,0.0,0.0,0.0,0.0,0.0,0.0,0.0,0.0,0.0,0.0,0.0,0.0,0.0,0.0,0.0,0.0,0.0,0.0,0.0,0.0,0.0,0.0,0.0,0.0,0.0,0.0,0.0,0.0,0.0,0.0,0.0,0.0,0.0,0.0,0.0,0.0,0.0,0.0,0.0,0.0,0.0,0.0,0.0,0.0,0.0,0.0,0.0,0.0,0.0,0.0,0.0,0.0,0.0,0.0,0.0,0.0,0.0,0.0,0.0,0.0,0.0,0.0,0.0,0.0,0.0,0.0,0.0,0.0,0.0,0.0,0.0,0.0,0.0,0.0,0.0,0.0,0.0,0.0,0.0,0.0,0.0,0.0,0.0,0.0,0.0,0.0,0.0,0.0,0.0,0.0,0.0,0.0,0.0,0.0,0.0,0.0,0.0,0.0,0.0,0.0,0.0,0.0,0.0,0.0,0.0,0.0,0.0,0.0,0.0,0.0,0.0,0.0,0.0,0.0,0.0,0.0,0.0,0.0,0.0,0.0,0.0,0.0,0.0,0.0,0.0,0.0,0.0,0.0,0.0,0.0,0.0,0.0,0.0,0.0,0.0,0.0,0.0,0.0,0.0,0.0,0.0,0.0,0.0,0.0,0.0,0.0,0.0,0.0,0.0,0.0,0.0,0.0,0.0,0.0,0.0,0.0,0.0,0.0,0.0,0.0,0.0,0.0,0.0,0.0,0.0,0.0,0.0,0.0,0.0,0.0,0.0,0.0,0.0,0.0,0.0,0.0,0.0,0.0,0.0,0.0,0.0,0.0,0.0,0.0,0.0,0.0,0.0,0.0,0.0,0.0,0.0,0.0,0.0,0.0,0.0,0.0,0.0,0.0,0.0,0.0,0.0,0.0,0.0,0.0,0.0,0.0,0.0,0.0,0.0,0.0,0.0,0.0,0.0,0.0,0.0,0.0,0.0,0.0,0.0,0.0,0.0,0.0,0.0,0.0,0.0,0.0,0.0,0.0,0.0,0.0,0.0,0.0,0.0,0.0,0.0,0.0,0.0,0.0,0.0,0.0,0.0,0.0,0.0,0.0,0.0,0.0,0.0,0.0,0.0,0.0,0.0,0.0,0.0,0.0,0.0,0.0,0.0,0.0,0.0,0.0,0.0,0.0,0.0,0.0,0.0,0.0,0.0,0.0,0.0,0.0,0.0,0.0,0.0,0.0,0.0,0.0,0.0,0.0,0.0,0.0,0.0,0.0,0.0,0.0,0.0,0.0,0.0,0.0,0.0,0.0,0.0,0.0,0.0,0.0,0.0,0.0,0.0,0.0,0.0,0.0,0.0,0.0,0.0,0.0,0.0,0.0,0.0,0.0,0.0,0.0,0.0,0.0,0.0,0.0,0.0,0.0,0.0,0.0,0.0,0.0,0.0,0.0,0.0,0.0,0.0,0.0,0.0,0.0,0.0,0.0,0.0,0.0,0.0,0.0,0.0,0.0,0.0,0.0,0.0,0.0,0.0,0.0,0.0,0.0,0.0,0.0,0.0,0.0,0.0,0.0,0.0,0.0,0.0,0.0,0.0,0.0,0.0,0.0,0.0,0.0,0.0,0.0,0.0,0.0,0.0,0.0,0.0,0.0,0.0,0.0,0.0,0.0,0.0,0.0,0.0,0.0,0.0,0.0,0.0,0.0,0.0,0.0,0.0,0.0,0.0,0.0,0.0,0.0,0.0,0.0,0.0,0.0,0.0,0.0,0.0,0.0,0.0,0.0,0.0,0.0,0.0,0.0,0.0,0.0,0.0,0.0,0.0,0.0,0.0,0.0,0.0,0.0,0.0,0.0,0.0,0.0,0.0,0.0,0.0,0.0,0.0,0.0,0.0,0.0,0.0,0.0,0.0,0.0,0.0,0.0,0.0,0.0,0.0,0.0,0.0,0.0,0.0,0.0,0.0,0.0,0.0,0.0,0.0,0.0,0.0,0.0,0.0,0.0,0.0,0.0,0.0,0.0,0.0,0.0,0.0,0.0,0.0,0.0,0.0,0.0,0.0,0.0,0.0,0.0,0.0,0.0,0.0,0.0,0.0,0.0,0.0,0.0,0.0,0.0,0.0,0.0,0.0,0.0,0.0,0.0,0.0,0.0,0.0,0.0,0.0,0.0,0.0,0.0,0.0,0.0,0.0,0.0,0.0,0.0,0.0,0.0,0.0,0.0,0.0,0.0,0.0,0.0,0.0,0.0,0.0,0.0,0.0,0.0,0.0,0.0,0.0,0.0,0.0,0.0,0.0,0.0,0.0,0.0,0.0,0.0,0.0,0.0,0.0,0.0,0.0,0.0,0.0,0.0,0.0,0.0,0.0,0.0,0.0,0.0,0.0,0.0,0.0,0.0,0.0,0.0,0.0,0.0,0.0,0.0,0.0,0.0,0.0,0.0,0.0,0.0,0.0,0.0,0.0,0.0,0.0,0.0,0.0,0.0,0.0,0.0,0.0,0.0,0.0,0.0,0.0,0.0,0.0,0.0,0.0,0.0,0.0,0.0,0.0,0.0,0.0,0.0,0.0,0.0,0.0,0.0,0.0,0.0,0.0,0.0,0.0,0.0,0.0,0.0,0.0,0.0,0.0,0.0,0.0,0.0,0.0,0.0,0.0,0.0,0.0,0.0,0.0,0.0,0.0,0.0,0.0,0.0,0.0,0.0,0.0,0.0,0.0,0.0,0.0,0.0,0.0,0.0,0.0,0.0,0.0,0.0,0.0,0.0,0.0,0.0,0.0,0.0,0.0,0.0,0.0,0.0,0.0,0.0,0.0,0.0,0.0,0.0,0.0,0.0,0.0,0.0,0.0,0.0,0.0,0.0,0.0,0.0,0.0,0.0,0.0,0.0,0.0,0.0,0.0,0.0,0.0,0.0,0.0,0.0,0.0,0.0,0.0,0.0,0.0,0.0,0.0,0.0,0.0,0.0,0.0,0.0,0.0,0.0,0.0,0.0,0.0,0.0,0.0,0.0,0.0,0.0,0.0,0.0,0.0,0.0,0.0,0.0,0.0,0.0,0.0,0.0,0.0,0.0,0.0,0.0,0.0,0.0,0.0,0.0,0.0,0.0,0.0,0.0,0.0,0.0,0.0,0.0,0.0,0.0,0.0,0.0,0.0,0.0,0.0,0.0,0.0,0.0,0.0,0.0,0.0,0.0,0.0,0.0,0.0,0.0,0.0,0.0,0.0,0.0,0.0,0.0,0.0,0.0,0.0,0.0,0.0,0.0,0.0,0.0,0.0,0.0,0.0,0.0,0.0,0.0,0.0,0.0,0.0,0.0,0.0,0.0,0.0,0.0,0.0,0.0,0.0,0.0,0.0,0.0,0.0,0.0,0.0,0.0,0.0,0.0,0.0,0.0,0.0,0.0,0.0,0.0,0.0,0.0,0.0,0.0,0.0,0.0,0.0,0.0,0.0,0.0,0.0,0.0,0.0,0.0,0.0,0.0,0.0,0.0,0.0,0.0,0.0,0.0,0.0,0.0,0.0,0.0,0.0,0.0,0.0,0.0,0.0,0.0,0.0,0.0,0.0,0.0,0.0,0.0,0.0,0.0,0.0,0.0,0.0,0.0,0.0,0.0,0.0,0.0,0.0,0.0,0.0,0.0,0.0,0.0,0.0,0.0,0.0,0.0,0.0,0.0,0.0,0.0,0.0,0.0,0.0,0.0,0.0,0.0,0.0,0.0,0.0,0.0,0.0,0.0,0.0,0.0,0.0,0.0,0.0,0.0,0.0,0.0,0.0,0.0,0.0,0.0,0.0,0.0,0.0,0.0,0.0,0.0,0.0,0.0,0.0,0.0,0.0,0.0,0.0,0.0,0.0,0.0,0.0,0.0,0.0,0.0,0.0,0.0,0.0,0.0,0.0,0.0,0.0,0.0,0.0,0.0,0.0,0.0,0.0,0.0,0.0,0.0,0.0,0.0,0.0,0.0,0.0,0.0,0.0,0.0,0.0,0.0,0.0,0.0,0.0,0.0,0.0,0.0,0.0,0.0,0.0,0.0,0.0,0.0,0.0,0.0,0.0,0.0,0.0,0.0,0.0,0.0,0.0,0.0,0.0,0.0,0.0,0.0,0.0,0.0,0.0,0.0,0.0,0.0,0.0,0.0,0.0,0.0,0.0,0.0,0.0,0.0,0.0,0.0,0.0,0.0,0.0,0.0,0.0,0.0,0.0,0.0,0.0,0.0,0.0,0.0,0.0,0.0,0.0,0.0,0.0,0.0,0.0,0.0,0.0,0.0,0.0,0.0,0.0,0.0,0.0,0.0,0.0,0.0,0.0,0.0,0.0,0.0,0.0,0.0,0.0,0.0,0.0,0.0,0.0,0.0,0.0,0.0,0.0,0.0,0.0,0.0,0.0,0.0,0.0,0.0,0.0,0.0,0.0,0.0,0.0,0.0,0.0,0.0,0.0,0.0,0.0,0.0,0.0,0.0,0.0,0.0,0.0,0.0,0.0,0.0,0.0,0.0,0.0,0.0,0.0,0.0,0.0,0.0,0.0,0.0,0.0,0.0,0.0,0.0,0.0,0.0,0.0,0.0,0.0,0.0,0.0,0.0,0.0,0.0,0.0,0.0,0.0,0.0,0.0,0.0,0.0,0.0,0.0,0.0,0.0,0.0,0.0,0.0,0.0,0.0,0.0,0.0,0.0,0.0,0.0,0.0,0.0,0.0,0.0,0.0,0.0,0.0,0.0,0.0,0.0,0.0,0.0,0.0,0.0,0.0,0.0,0.0,0.0,0.0,0.0,0.0,0.0,0.0,0.0,0.0,0.0,0.0,0.0,0.0,0.0,0.0,0.0,0.0,0.0,0.0,0.0,0.0,0.0,0.0,0.0,0.0,0.0,0.0,0.0,0.0,0.0,0.0,0.0,0.0,0.0,0.0,0.0,0.0,0.0,0.0,0.0,0.0,0.0,0.0,0.0,0.0,0.0,0.0,0.0,0.0,0.0,0.0,0.0,0.0,0.0,0.0,0.0,0.0,0.0,0.0,0.0,0.0,0.0,0.0,0.0,0.0,0.0,0.0,0.0,0.0,0.0,0.0,0.0,0.0,0.0,0.0,0.0,0.0,0.0,0.0,0.0,0.0,0.0,0.0,0.0,0.0,0.0,0.0,0.0,0.0,0.0,0.0,0.0,0.0,0.0,0.0,0.0,0.0,0.0,0.0,0.0,0.0,0.0,0.0,0.0,0.0,0.0,0.0,0.0,0.0,0.0,0.0,0.0,0.0,0.0,0.0,0.0,0.0,0.0,0.0,0.0,0.0,0.0,0.0,0.0,0.0,0.0,0.0,0.0,0.0,0.0,0.0,0.0,0.0,0.0,0.0,0.0,0.0,0.0,0.0,0.0,0.0,0.0,0.0,0.0,0.0,0.0,0.0,0.0,0.0,0.0,0.0,0.0,0.0,0.0,0.0,0.0,0.0,0.0,0.0,0.0,0.0,0.0,0.0,0.0,0.0,0.0,0.0,0.0,0.0,0.0,0.0,0.0,0.0,0.0,0.0,0.0,0.0,0.0,0.0,0.0,0.0,0.0,0.0,0.0,0.0,0.0,0.0,0.0,0.0,0.0,0.0,0.0,0.0,0.0,0.0,0.0,0.0,0.0,0.0,0.0,0.0,0.0,0.0,0.0,0.0,0.0,0.0,0.0,0.0,0.0,0.0,0.0,0.0,0.0,0.0,0.0,0.0,0.0,0.0,0.0,0.0,0.0,0.0,0.0,0.0,0.0,0.0,0.0,0.0,0.0,0.0,0.0,0.0,0.0,0.0,0.0,0.0,0.0,0.0,0.0,0.0,0.0,0.0,0.0,0.0,0.0,0.0,0.0,0.0,0.0,0.0,0.0,0.0,0.0,0.0,0.0,0.0,0.0,0.0,0.0,0.0,0.0,0.0,0.0,0.0,0.0,0.0,0.0,0.0,0.0,0.0,0.0,0.0,0.0,0.0,0.0,0.0,0.0,0.0,0.0,0.0,0.0,0.0,0.0,0.0,0.0,0.0,0.0,0.0,0.0,0.0,0.0,0.0,0.0,0.0,0.0,0.0,0.0,0.0,0.0,0.0,0.0,0.0,0.0,0.0,0.0,0.0,0.0,0.0,0.0,0.0,0.0,0.0,0.0,0.0,0.0,0.0,0.0,0.0,0.0,0.0,0.0,0.0,0.0,0.0,0.0,0.0,0.0,0.0,0.0,0.0,0.0,0.0,0.0,0.0,0.0,0.0,0.0,0.0,0.0,0.0,0.0,0.0,0.0,0.0,0.0,0.0,0.0,0.0,0.0,0.0,0.0,0.0,0.0,0.0,0.0,0.0,0.0,0.0,0.0,0.0,0.0,0.0243,0.1154,0.1727,0.2098,0.4023,0.0,0.0,0.0,0.0,0.0,0.0,0.0,0.0,0.0,0.0,0.0,0.0,0.0,0.0,0.0,0.0,0.0,0.0,0.0,0.0,0.0,0.0,0.0,0.0,0.0,0.0,0.0,0.0,0.0,0.0,0.0,0.0,0.0,0.0,0.0,0.0,0.0,0.0,0.0,0.0,0.0,0.0,0.0,0.0,0.0,0.0,0.0,0.0,0.0,0.0,0.0,0.0,0.0,0.0,0.0,0.0,0.0,0.0,0.0,0.0,0.0,0.0,0.0,0.0,0.0,0.0,0.0,0.0,0.0,0.0,0.0,0.0,0.0,0.0,0.0,0.0,0.0,0.0,0.0,0.0,0.0,0.0,0.0,0.0,0.0,0.0,0.0,0.0,0.0,0.0,0.0,0.0,0.0,0.0,0.0,0.0,0.0,0.0,0.0,0.0,0.0,0.0,0.0,0.0,0.0,0.0,0.0,0.0,0.0,0.0,0.0,0.0,0.046,0.1003,0.1653,0.3267,0.4487,0.5431,0.6064,0.0,0.0,0.0,0.0,0.0,0.0,0.0,0.0,0.0,0.0,0.0,0.0,0.0,0.0,0.0,0.0,0.0,0.0,0.0,0.0,0.0,0.0,0.0,0.0,0.0,0.0,0.0,0.0,0.0,0.0,0.0,0.0,0.0,0.0,0.0,0.0,0.0,0.0,0.0,0.0,0.0,0.0,0.0,0.0,0.0,0.0,0.0,0.0,0.0,0.0,0.0,0.0,0.0,0.0,0.0,0.0,0.0,0.0,0.0,0.0,0.0,0.0,0.0,0.0,0.0,0.0,0.0,0.0,0.0,0.0,0.0,0.0,0.0,0.0,0.0,0.0,-0.017,-0.0396,0.0,0.0,0.0,0.0,0.0,0.0,0.0,0.0,0.0,0.0,0.0,0.0,0.0,0.0,0.0,0.0,0.0,0.0,0.0,0.0,0.0,0.0,0.0,0.0,0.0,0.0,0.0,0.0,0.0,0.0,0.0,0.0,0.0427,0.127,0.2704,0.3872,0.4771,0.5879,0.6334,0.0,0.0,0.0,0.0,0.0,0.0,0.0,0.0,0.0,0.0,0.0,0.0,0.0,0.0,0.0,0.0,0.0,0.0,0.0,0.0,0.0,0.0,0.0,0.0,0.0,0.0,0.0,0.0,0.0,0.0,0.0,0.0,0.0,0.0,0.0,0.0,0.0,0.0,0.0,0.0,0.0,0.0,0.0,0.0,0.0,0.0,0.0,0.0,0.0,0.0,0.0,0.0,0.0,0.0,0.0,0.0,0.0,0.0,0.0,0.0,0.0,0.0,0.0,0.0,0.0,0.0,0.0,0.0,0.0,0.0,0.0,0.0,0.0,0.0,0.0,0.0,0.0,0.0,0.0,0.0,0.0,0.0,0.0,0.0,0.0,0.0,0.0,0.0,0.0,0.0,0.0,0.0,0.0,0.0,0.0,0.0,0.0,0.0,0.0,0.0,0.0,0.0,0.0,0.0,0.0,0.0,0.0,0.0,0.0,0.0044,0.0174,0.2336,0.3836,0.4768,0.5978,0.6422,0.63,0.0,0.0,0.0,0.0,0.0,0.0,0.0,0.0,0.0,0.0,0.0,0.0,0.0,0.0,0.0,0.0,0.0,0.0,0.0,0.0,0.0,0.0,0.0,0.0,0.0,0.0,0.0,0.0,0.0,0.0,0.0,0.0,0.0,0.0,0.0,0.0,0.0,0.0,0.0,0.0,0.0,0.0,0.0,0.0,0.0,0.0,0.0,0.0,0.0,0.0,0.0,0.0,0.0,0.0,0.0,0.0,0.0,0.0,0.0,0.0,0.0,0.0,0.0,0.0,0.0,0.0,0.0,0.0,0.0,0.0,0.0,0.0,0.0,0.0,0.0,0.0,0.0,0.0,0.0,0.0,0.0,0.0,0.0,0.0,0.0,0.0,0.0,0.0,0.0,0.0,0.0,0.0,0.0,0.0,0.0,0.0,0.0,0.0,0.0,0.0,0.0,0.0,0.0,0.0,0.0,0.0,0.0,0.0,0.0416,0.1221,0.2796,0.4049,0.5021,0.6157,0.6532,0.6436,0.6436,0.6381,0.0,0.0,0.0,0.0,0.0,0.0,0.0,0.0,0.0,0.0,0.0,0.0,0.0,0.0,0.0,0.0,0.0,0.0,0.0,0.0,0.0,0.0,0.0,0.0,0.0,0.0,0.0,0.0,0.0,0.0,0.0,0.0,0.0,0.0,0.0,0.0,0.0,0.0,0.0,0.0,0.0,0.0,0.0,0.0,0.0,0.0,0.0,0.0,0.0,0.0,0.0,0.0,0.0,0.0,0.0,0.0,0.0,0.0,0.0,0.0,0.0,0.0,0.0,0.0,0.0,0.0,0.0,0.0,0.0,0.0,0.0,0.0,0.0,0.0,0.0,0.0,0.0,0.0,0.0,0.0,0.0,0.0,0.0,0.0,0.0,0.0,0.0,0.0,0.0,0.0,0.0,0.0,0.0,0.0,0.0,0.0,0.0,0.0,0.0,0.0,0.0,0.0,0.0,0.0,0.0,0.0,0.0662,0.1912,0.3119,0.4245,0.5341,0.6445,0.678,0.6549,0.6549,0.6501,0.6371,0.0,0.0,0.0,0.0,0.0,0.0,0.0,0.0,0.0,0.0,0.0,0.0,0.0,0.0,0.0,0.0,0.0,0.0,0.0,0.0,0.0,0.0,0.0,0.0,0.0,0.0,0.0,0.0,0.0,0.0,0.0,0.0,0.0,0.0,0.0,0.0,0.0,0.0,0.0,0.0,0.0,0.0,0.0,0.0,0.0,0.0,0.0,0.0,0.0,0.0,0.0,0.0,0.0,0.0,0.0,0.0,0.0,0.0,0.0,0.0,0.0,0.0,0.0,0.0,0.0,0.0,0.0,0.0,0.0,0.0,0.0,0.0,0.0,0.0,0.0,0.0,0.0,0.0,0.0,0.0,0.0,0.0,0.0,0.0,0.0,0.0,0.0,0.0,0.0,0.0,0.0,0.0,0.0,0.0,0.0,0.0,0.0,0.0,0.0,0.0,0.0,0.0,0.0,0.0,0.0,0.0716,0.2095,0.3281,0.4512,0.5721,0.6917,0.7126,0.6719,0.6712,0.6617,0.6518,0.0,0.0,0.0,0.0,0.0,0.0,0.0,0.0,0.0,0.0,0.0,0.0,0.0,0.0,0.0,0.0,0.0,0.0,0.0,0.0,0.0,0.0,0.0,0.0,0.0,0.0,0.0,0.0,0.0,0.0,0.0,0.0,0.0,0.0,0.0,0.0,0.0,0.0,0.0,0.0,0.0,0.0,0.0,0.0,0.0,0.0044,0.0044,0.0045,0.0045,0.0045,0.0045,0.0045,0.0,0.0,0.0045,0.0,0.0,0.0,0.0,0.0,0.0,0.0,0.0,0.0,0.0,0.0,0.0,0.0,0.0,0.0,0.0,0.0,0.0,0.0,0.0,0.0,0.0,0.0,0.0,0.0,0.0,0.0,0.0,0.0,0.0,0.0,0.0,0.0,0.0,0.0,0.0,0.0,0.0,0.0,0.0,0.0,0.0,0.0,0.0,0.0,0.0,0.0,0.0,0.0,0.0,0.1183,0.33,0.3638,0.4988,0.7066,0.7396,0.74,0.717,0.6953,0.6773,0.6624,0.0,0.0,0.0,0.0,0.0,0.0,0.0,0.0,0.0,0.0,0.0,0.0,0.0,0.0,0.0,0.0,0.0,0.0,0.0,0.0,0.0,0.0,0.0,0.0,0.0,0.0,0.0,0.0,0.0,0.0,0.0,0.0,0.1005,0.0115,0.0,0.0,0.0,0.0,0.0,0.0,0.0,0.0,0.0,0.0,0.0401,0.1244,0.1295,0.1299,0.1299,0.1299,0.1299,0.1299,0.0449,0.0449,0.1299,0.0404,0.0,0.0,0.0,0.0,0.0,0.0,0.0,0.0,0.0,0.0,0.0,0.0,0.0,0.0,0.0,0.0,0.0,0.0,0.0,0.0,0.0,0.0,0.0,0.0,0.0,0.0,0.0,0.0,0.0,0.0,0.0,0.0,0.0,0.0,0.0,0.0,0.0,0.0,0.0,0.0,0.0,0.0,0.0,0.0,0.0,0.0,0.0,0.0,0.0,0.1403,0.3905,0.3905,0.528,0.7689,0.7689,0.7604,0.7448,0.721,0.6987,0.6787,0.6698,0.6624,0.6536,0.6302,0.6122,0.5962,0.5749,0.0,0.0,0.0,0.0,0.0,0.0,0.0,0.0,0.0,0.0,0.0,0.0,0.0,0.0,0.0,0.0,0.0,0.0,0.0,0.0,0.0,0.0,0.0,0.0,0.1314,0.1393,0.0164,0.0415,0.0756,0.0766,0.0739,0.0749,0.0749,0.0757,0.0539,0.0045,0.0449,0.1076,0.1745,0.2281,0.2547,0.2547,0.2547,0.2547,0.2547,0.1879,0.1879,0.2547,0.1344,0.0763,0.0718,0.0225,0.0,0.0,0.0,0.0,0.0,0.0,0.0,0.0,0.0,0.0,0.0,0.0,0.0,0.0,0.0,0.0,0.0,0.0,0.0,0.0,0.0,0.0,0.0,0.0,0.0,0.0,0.0,0.0,0.0,0.0,0.0,0.0,0.0,0.0,0.0,0.0,0.0,0.0,0.0,0.0,0.0,0.0,0.0,0.0,0.0,0.0,0.1367,0.3778,0.3927,0.5331,0.7592,0.7738,0.7753,0.7611,0.7458,0.7231,0.6933,0.69,0.6844,0.6705,0.6552,0.6436,0.6255,0.5945,0.0,0.0,0.0,0.0,0.0,0.0,0.0,0.0,0.0,0.0,0.0,0.0,0.0,0.0,0.0,0.0,0.0,0.0,0.0,0.0,0.0,0.0,0.0,0.0,0.2044,0.1779,0.0567,0.1437,0.2087,0.1827,0.1902,0.2013,0.2013,0.2013,0.1567,0.0494,0.1388,0.2057,0.2192,0.3215,0.0,0.0,0.0,0.3794,0.3794,0.3659,0.3659,0.3792,0.2592,0.1924,0.1745,0.0673,0.0135,0.0,0.0,0.0,0.0,0.0,0.0,0.0,0.0,0.0,0.0,0.0,0.0,0.0,0.0,0.0,0.0,0.0,0.0,0.0,0.0,0.0,0.0,0.0,0.0,0.0,0.0,0.0,0.0,0.0,0.0,0.0,0.0,0.0,0.0,0.0,0.0,0.0,0.0,0.0,0.0,0.0,0.0,0.0,0.0,0.0,0.0837,0.2417,0.3493,0.4877,0.6396,0.7493,0.7909,0.7756,0.7614,0.7448,0.7261,0.7021,0.6869,0.6865,0.6712,0.6525,0.6289,0.6231,0.5948,0.5586,0.5555,0.0,0.0,0.0,0.0,0.0,0.0,0.0,0.0,0.0,0.0,0.0,0.0,0.0,0.0,0.0,0.0,0.0,0.0,0.0,0.0,0.3043,0.4034,0.4264,0.3056,0.3949,0.3995,0.2045,0.2674,0.326,0.326,0.326,0.317,0.2903,0.3126,0.366,0.4643,0.4912,0.5045,0.5045,0.5045,0.5045,0.5045,0.4105,0.4105,0.5045,0.3838,0.0,0.179,0.1567,0.0942,0.0,0.0,0.0,0.0,0.0,0.0,0.0,0.0,0.0,0.0,0.0,0.0,0.0,0.0,0.0,0.0,0.0,0.0,0.0,0.0,0.0,0.0,0.0,0.0,0.0,0.0,0.0,0.0,0.0,0.0,0.0,0.0,0.0,0.0,0.0,0.0,0.0,0.0,0.0,0.0,0.0,0.0,0.0,0.0,0.0,0.0738,0.2069,0.3408,0.4751,0.6079,0.7437,0.7944,0.7906,0.7689,0.7553,0.7451,0.7149,0.6991,0.697,0.6868,0.6671,0.6497,0.6351,0.6061,0.5783,0.5637,0.5538,0.5494,0.0,0.0,0.0,0.0,0.0,0.0,0.0,0.0,0.0,0.0,0.0,0.0,0.0,0.0,0.2943,0.0,0.0,0.3752,0.4267,0.4932,0.4983,0.3787,0.4641,0.4956,0.3753,0.4152,0.4508,0.4508,0.4508,0.4239,0.3659,0.415,0.4776,0.5359,0.5938,0.6248,0.6248,0.6248,0.6248,0.6248,0.5664,0.5354,0.5403,0.4194,0.2948,0.179,0.1165,0.0584,0.0,0.0,0.0,0.0,0.0,0.0,0.0,0.0,0.0,0.0,0.0,0.0,0.0,0.0,0.0,0.0,0.0,0.0,0.0,0.0,0.0,0.0,0.0,0.0,0.0,0.0,0.0,0.0,0.0,0.0,0.0,0.0,0.0,0.0,0.0,0.0,0.0,0.0,0.0,0.0,0.0,0.0,0.0,0.0,0.0,0.0738,0.2069,0.3408,0.4751,0.6079,0.7437,0.7971,0.7924,0.7706,0.7584,0.7526,0.7203,0.7095,0.7082,0.6967,0.6854,0.6664,0.6467,0.6207,0.5946,0.5715,0.5613,0.5566,0.5477,0.544,0.0,0.0,0.0,0.0,0.0,0.0,0.0,0.0,0.0,0.3709,0.3995,0.3943,0.4224,0.5243,0.5423,0.5437,0.548,0.5605,0.5401,0.4417,0.5132,0.5714,0.5714,0.5714,0.5714,0.5714,0.5714,0.5312,0.4372,0.5176,0.5714,0.5714,0.6381,0.6874,0.7095,0.6874,0.6874,0.7095,0.7095,0.665,0.5714,0.4508,0.3304,0.2102,0.0897,0.0225,0.0,0.0,0.0,0.0,0.0,0.0,0.0,0.0,0.0,0.0,0.0,0.0,0.0,0.0,0.0,0.0,0.0,0.0,0.0,0.0,0.0,0.0,0.0,0.0,0.0,0.0,0.0,0.0,0.0,0.0,0.0,0.0,0.0,0.0,0.0,0.0,0.0,0.0,0.0,0.0,0.0,0.0,0.0,0.0,0.0,0.0738,0.2069,0.3408,0.4751,0.6079,0.7437,0.7911,0.7824,0.7662,0.7519,0.7377,0.7162,0.7095,0.7095,0.7078,0.6896,0.6695,0.6661,0.6373,0.5963,0.583,0.5691,0.5586,0.5569,0.0,0.5593,0.5718,0.5101,0.4599,0.5301,0.4405,0.3797,0.0,0.0,0.5162,0.6141,0.5572,0.528,0.6488,0.6002,0.5739,0.6716,0.6905,0.6871,0.6738,0.6827,0.6918,0.6918,0.6918,0.6918,0.6918,0.6918,0.6874,0.6735,0.6827,0.6918,0.6918,0.6071,0.6071,0.7051,0.6115,0.6071,0.7095,0.7095,0.7051,0.6915,0.5758,0.4552,0.3349,0.2147,0.1031,0.0,0.0,0.0,0.0,0.0,0.0,0.0,0.0,0.0,0.0,0.0,0.0,0.0,0.0,0.0,0.0,0.0,0.0,0.0,0.0,0.0,0.0,0.0,0.0,0.0,0.0,0.0,0.0,0.0,0.0,0.0,0.0,0.0,0.0,0.0,0.0,0.0,0.0,0.0,0.0,0.0,0.0,0.0,0.0,0.0799,0.1476,0.2069,0.4234,0.5436,0.5979,0.7312,0.7821,0.7675,0.7526,0.7431,0.7392,0.7109,0.6974,0.6974,0.6974,0.6881,0.0,0.0,0.6329,0.5966,0.5847,0.5762,0.5698,0.5613,0.5647,0.0,0.5786,0.5607,0.5507,0.0,0.5634,0.5454,0.6318,0.634,0.6289,0.6736,0.6513,0.643,0.6917,0.6656,0.6561,0.0,0.7095,0.7095,0.7095,0.7095,0.7095,0.7095,0.7095,0.7095,0.7095,0.6517,0.6115,0.6115,0.5442,0.5354,0.6071,0.4999,0.4907,0.6071,0.5669,0.5625,0.6115,0.6115,0.6115,0.6115,0.4907,0.3705,0.2547,0.2013,0.1121,0.0,0.0,0.0,0.0,0.0,0.0,0.0,0.0,0.0,0.0,0.0,0.0,0.0,0.0,0.0,0.0,0.0,0.0,0.0,0.0,0.0,0.0,0.0,0.0,0.0,0.0,0.0,0.0,0.0,0.0,0.0,0.0,0.0,0.0,0.0,0.0,0.0,0.0,0.0,0.0,0.0,0.0,0.0155,0.0517,0.1498,0.2305,0.3082,0.5048,0.6064,0.6347,0.7315,0.7668,0.7529,0.746,0.7368,0.7227,0.701,0.6832,0.6807,0.6851,0.6742,0.0,0.0,0.6274,0.5973,0.5898,0.5864,0.5844,0.5742,0.584,0.5986,0.5986,0.6098,0.624,0.6392,0.6491,0.6627,0.6736,0.6878,0.6943,0.6943,0.7024,0.7095,0.7095,0.7095,0.7095,0.7095,0.7095,0.7095,0.7095,0.7095,0.7095,0.7095,0.7095,0.6962,0.665,0.5891,0.527,0.4912,0.4419,0.4463,0.5359,0.4239,0.415,0.5359,0.4734,0.4554,0.491,0.491,0.491,0.491,0.366,0.2637,0.179,0.1433,0.0807,0.0,0.0,0.0,0.0,0.0,0.0,0.0,0.0,0.0,0.0,0.0,0.0,0.0,0.0,0.0,0.0,0.0,0.0,0.0,0.0,0.0,0.0,0.0,0.0,0.0,0.0,0.0,0.0,0.0,0.0,0.0,0.0,0.0,0.0,0.0,0.0,0.0,0.0,0.0,0.0,0.0,0.0,0.0621,0.1767,0.1767,0.3144,0.5511,0.5559,0.6319,0.7557,0.7607,0.7516,0.7426,0.7419,0.72,0.69,0.6889,0.6746,0.6545,0.6654,0.0,0.0,0.0,0.6274,0.5993,0.5986,0.5986,0.0,0.5979,0.6224,0.6491,0.6491,0.6563,0.6681,0.6685,0.6803,0.6873,0.6876,0.6987,0.7088,0.7088,0.7092,0.7095,0.7095,0.7095,0.7095,0.7095,0.7095,0.7095,0.7095,0.7095,0.7095,0.7095,0.7095,0.665,0.0,0.5403,0.4912,0.3748,0.4688,0.5359,0.5403,0.4239,0.415,0.5359,0.3129,0.2458,0.3659,0.3659,0.3659,0.3659,0.2413,0.1835,0.1745,0.0583,0.0045,0.0,0.0,0.0,0.0,0.0,0.0,0.0,0.0,0.0,0.0,0.0,0.0,0.0,0.0,0.0,0.0,0.0,0.0,0.0,0.0,0.0,0.0,0.0,0.0,0.0,0.0,0.0,0.0,0.0,0.0,0.0,0.0,0.0,0.0,0.0,0.0,0.0,0.0,0.0,0.0,0.0,0.0,0.0619,0.1808,0.2709,0.4033,0.564,0.6543,0.7116,0.7448,0.7448,0.7305,0.7078,0.7078,0.6895,0.6617,0.6522,0.6359,0.6173,0.0,0.0,0.0,0.6044,0.5898,0.5752,0.5847,0.5878,0.5935,0.6234,0.6393,0.6535,0.6597,0.6736,0.6851,0.6851,0.6916,0.7024,0.7024,0.7061,0.7095,0.7095,0.7095,0.7095,0.7095,0.7095,0.7095,0.7095,0.7095,0.7095,0.7095,0.7095,0.7095,0.7095,0.7095,0.0,0.0,0.0,0.0,0.3614,0.3217,0.3708,0.5314,0.4239,0.3792,0.4194,0.3438,0.317,0.3614,0.2814,0.3217,0.4776,0.2771,0.179,0.1745,0.0539,0.0,0.0,0.0,0.0,0.0,0.0,0.0,0.0,0.0,0.0,0.0,0.0,0.0,0.0,0.0,0.0,0.0,0.0,0.0,0.0,0.0,0.0,0.0,0.0,0.0,0.0,0.0,0.0,0.0,0.0,0.0,0.0,0.0,0.0,0.0,0.0,0.0,0.0,0.0,0.0,0.0,0.0,0.0363,0.1185,0.2414,0.3638,0.4818,0.604,0.6911,0.7224,0.7132,0.7132,0.7021,0.6844,0.6787,0.6617,0.6419,0.6234,0.6051,0.0,0.0,0.0,0.0,0.58,0.5708,0.5623,0.582,0.5956,0.6098,0.6426,0.6549,0.6658,0.6756,0.6892,0.696,0.696,0.7028,0.7095,0.7095,0.7095,0.7095,0.7095,0.7095,0.7095,0.7095,0.7095,0.7095,0.7095,0.7095,0.7095,0.7095,0.7095,0.7095,0.7095,0.7095,0.665,0.0,0.0,0.0,0.3614,0.3261,0.3753,0.5314,0.4688,0.4239,0.4239,0.3838,0.3614,0.3614,0.2815,0.3217,0.4732,0.2325,0.1389,0.1745,0.0539,0.0,0.0,0.0,0.0,0.0,0.0,0.0,0.0,0.0,0.0,0.0,0.0,0.0,0.0,0.0,0.0,0.0,0.0,0.0,0.0,0.0,0.0,0.0,0.0,0.0,0.0,0.0,0.0,0.0,0.0,0.0,0.0,0.0,0.0,0.0,0.0,0.0,0.0039,0.0081,0.0081,0.0082,0.0126,0.1171,0.2255,0.3465,0.4426,0.551,0.6678,0.6678,0.6678,0.6678,0.6678,0.6675,0.6654,0.6508,0.6399,0.6248,0.6064,0.0,0.0,0.0,0.0,0.0,0.0,0.0,0.0,0.5892,0.6227,0.6515,0.6521,0.6695,0.6886,0.6896,0.6994,0.7095,0.7095,0.7095,0.7095,0.7095,0.7092,0.7085,0.7085,0.7078,0.7071,0.0,0.0,0.7085,0.7085,0.7092,0.7095,0.7095,0.7095,0.7095,0.0,0.0,0.0,0.0,0.0,0.0,0.3894,0.0,0.5455,0.5502,0.5502,0.5455,0.5403,0.4283,0.3703,0.3703,0.3703,0.3614,0.3481,0.1165,0.0673,0.1656,0.0539,0.0,0.0,0.0,0.0,0.0,0.0,0.0,0.0,0.0,0.0,0.0,0.0,0.0,0.0,0.0,0.0,0.0,0.0,0.0,0.0,0.0,0.0,0.0,0.0,0.0,0.0,0.0,0.0,0.0,0.0,0.0,0.0,0.0,0.0,0.0,0.0,0.0,0.0,0.0,0.0,0.0,0.0,0.0,0.3024,0.4216,0.4493,0.5252,0.6412,0.6412,0.6412,0.6412,0.6412,0.6305,0.6158,0.0,0.5989,0.5755,0.0,0.0,0.0,0.0,0.0,0.0,0.0,0.0,0.0,0.0,0.6142,0.6535,0.661,0.6776,0.691,0.7014,0.7068,0.7095,0.7095,0.7095,0.7095,0.7095,0.7014,0.694,0.694,0.6892,0.6814,0.0,0.0,0.0,0.694,0.7028,0.0,0.7095,0.7095,0.0,0.7095,0.0,0.705,0.6889,0.6902,0.0,0.0,0.5947,0.5943,0.6853,0.6902,0.6445,0.545,0.509,0.4956,0.4956,0.4956,0.4018,0.2236,0.1657,0.1031,0.0449,0.0135,0.0,0.0,0.0,0.0,0.0,0.0,0.0,0.0,0.0,0.0,0.0,0.0,0.0,0.0,0.0,0.0,0.0,0.0,0.0,0.0,0.0,0.0,0.0,0.0,0.0,0.0,0.0,0.0,0.0,0.0,0.0,0.0,0.0,0.0,0.0,0.0,0.0,0.0,0.0,0.0,0.0,0.0,0.0,0.0,0.0,0.4841,0.5448,0.6098,0.6098,0.6098,0.6098,0.6098,0.0,0.0,0.0,0.0,0.0,0.0,0.0,0.0,0.0,0.0,0.0,0.0,0.0,0.5813,0.5881,0.621,0.6603,0.6756,0.0,0.6997,0.7075,0.7095,0.7095,0.7095,0.7095,0.7082,0.7018,0.6943,0.6866,0.6844,0.6759,0.0,0.6702,0.677,0.0,0.0,0.0,0.0,0.7088,0.7095,0.7095,0.0,0.7156,0.0,0.7409,0.7434,0.7533,0.0,0.6942,0.6743,0.7373,0.7415,0.7028,0.6166,0.616,0.616,0.616,0.5669,0.4956,0.4107,0.3081,0.2504,0.2372,0.1836,0.1299,0.0807,0.0807,0.0494,0.0,0.0,0.0,0.0,0.0,0.0,0.0,0.0,0.0,0.0,0.0,0.0,0.0,0.0,0.0,0.0,0.0,0.0,0.0,0.0,0.0,0.0,0.0,0.0,0.0,0.0,0.0,0.0,0.0,0.0,0.0,0.0,0.0,0.0,0.0,0.0,0.0,0.0,0.0,0.0,0.0,0.0,0.0,0.0,0.0,0.0,0.0,0.0,0.0,0.0,0.0,0.0,0.0,0.0,0.0,0.0,0.0,0.0,0.0,0.0,0.559,0.5827,0.5946,0.6339,0.6729,0.6839,0.6987,0.7095,0.7095,0.7095,0.7095,0.7095,0.7095,0.7058,0.6916,0.6869,0.6854,0.6702,0.0,0.6641,0.6641,0.6658,0.6719,0.6832,0.0,0.6933,0.7078,0.7095,0.7095,0.7095,0.7258,0.7356,0.7443,0.7522,0.7665,0.7828,0.7709,0.756,0.7456,0.7446,0.7322,0.7102,0.7095,0.7095,0.7095,0.6115,0.6027,0.683,0.4816,0.4285,0.5134,0.4061,0.2948,0.179,0.1969,0.1344,0.0225,0.0225,0.0225,0.0225,0.0045,0.0,0.0,0.0,0.0,0.0,0.0,0.0,0.0,0.0,0.0,0.0,0.0,0.0,0.0,0.0,0.0,0.0,0.0,0.0,0.0,0.0,0.0,0.0,0.0,0.0,0.0,0.0,0.0,0.0,0.0,0.0,0.0,0.0,0.0,0.0,0.0,0.0,0.0,0.0,0.0,0.0,0.0,0.0,0.0,0.0,0.0,0.0,0.0,0.0,0.0,0.0,0.0,0.0,0.0,0.0,0.559,0.5827,0.5946,0.6339,0.6729,0.6839,0.6987,0.7095,0.7095,0.7095,0.7095,0.7095,0.7095,0.7058,0.6916,0.6831,0.0,0.0,0.646,0.6375,0.6375,0.6474,0.6563,0.6715,0.0,0.0,0.0,0.0,0.7095,0.0,0.0,0.0,0.0,0.7584,0.0,0.0,0.7862,0.7712,0.7567,0.756,0.7431,0.7105,0.7095,0.7095,0.7095,0.6918,0.6428,0.5672,0.5267,0.4688,0.3926,0.3703,0.2948,0.1835,0.2858,0.2592,0.1478,0.1478,0.1478,0.1389,0.0404,0.0,0.0,0.0,0.0,0.0,0.0,0.0,0.0,0.0,0.0,0.0,0.0,0.0,0.0,0.0,0.0895,0.0844,0.0,0.0,0.0,0.0,0.0,0.0,0.0,0.0,0.0,0.0,0.0,0.0,0.0,0.0,0.2811,0.3204,0.0,0.0,0.0,0.5131,0.5131,0.0,0.0,0.0,0.0,0.0,0.0,0.0,0.0,0.0,0.0,0.0,0.0,0.0,0.0,0.0,0.0,0.0,0.5542,0.5732,0.5922,0.6339,0.6729,0.6839,0.6987,0.7095,0.7095,0.7095,0.7095,0.7095,0.7041,0.695,0.6844,0.0,0.0,0.0,0.6347,0.63,0.63,0.6358,0.0,0.0,0.0,0.0,0.0,0.0,0.0,0.0,0.0,0.0,0.0,0.7553,0.7658,0.7801,0.7743,0.7672,0.7604,0.7448,0.7247,0.7102,0.7095,0.7095,0.7095,0.7095,0.6827,0.6293,0.6293,0.598,0.5442,0.5549,0.4871,0.3666,0.3702,0.3337,0.2681,0.2057,0.179,0.1746,0.1165,0.0539,0.0,0.0,0.0,0.0,0.0,0.0,0.0,0.0,0.0,0.0,0.0,0.0615,0.109,0.109,0.173,0.1758,0.0588,0.0476,0.0,0.0,0.0,0.0,0.0,0.0,0.0,0.0,0.0,0.0,0.0,0.0,0.0,0.2489,0.4116,0.0,0.0,0.0,0.0,0.0,0.4887,0.4887,0.0,0.0,0.0,0.0,0.0,0.4887,0.0,0.0,0.0,0.0,0.0,0.0,0.0,0.0,0.5498,0.563,0.5864,0.6244,0.6651,0.6822,0.6964,0.7058,0.7088,0.7095,0.7088,0.7058,0.6967,0.6836,0.6695,0.6559,0.0,0.0,0.63,0.63,0.63,0.0,0.6347,0.0,0.6573,0.0,0.0,0.0,0.0,0.0,0.0,0.0,0.0,0.7482,0.0,0.7597,0.757,0.755,0.755,0.7247,0.7095,0.7095,0.7095,0.7095,0.7095,0.7095,0.7095,0.7095,0.7095,0.7095,0.7098,0.7265,0.6622,0.5364,0.4768,0.4303,0.3927,0.2949,0.2549,0.2549,0.2281,0.1433,0.0404,0.0404,0.0225,0.0,0.0,0.0,0.0,0.0,0.0,0.0,0.0,0.0615,0.109,0.109,0.173,0.2147,0.2009,0.2009,0.0,0.0,0.0,0.0,0.0,0.0,0.0,0.0,0.0,0.0,0.0,0.0,0.0,0.2489,0.4116,0.0,0.0,0.0,0.0,0.0,0.0,0.4887,0.4887,0.4887,0.0,0.0,0.0,0.0,0.0,0.0,0.0,0.0,0.0,0.0,0.0,0.0,0.0,0.5596,0.5623,0.5975,0.6422,0.6807,0.0,0.0,0.7061,0.7095,0.7065,0.6937,0.6896,0.6851,0.6559,0.0,0.0,0.633,0.63,0.63,0.63,0.63,0.6347,0.0,0.0,0.6597,0.0,0.0,0.0,0.0,0.0,0.0,0.0,0.7429,0.7451,0.759,0.7472,0.7439,0.7439,0.7231,0.7095,0.7095,0.7095,0.7095,0.7095,0.7095,0.7095,0.7095,0.7095,0.7095,0.7095,0.7109,0.6485,0.5447,0.6393,0.6213,0.5223,0.5134,0.509,0.4956,0.3883,0.2681,0.1657,0.1657,0.0942,0.0,0.0,0.0,0.0,0.0,0.0,0.0,0.0,0.1981,0.2482,0.2425,0.3093,0.3594,0.3594,0.3594,0.3093,0.0,0.0,0.0,0.0,0.0,0.0,0.0,0.0,0.0,0.0,0.0,0.2548,0.2987,0.4119,0.0,0.0,0.0,0.0,0.0,0.0,0.4646,0.4646,0.0,0.0,0.0,0.0,0.0,0.0,0.0,0.0,0.0,0.0,0.0,0.0,0.0,0.0,0.0,0.5532,0.5715,0.0,0.0,0.6654,0.6803,0.6861,0.6875,0.6861,0.6807,0.6722,0.662,0.6542,0.0,0.6368,0.6313,0.63,0.63,0.63,0.63,0.6317,0.6375,0.0,0.0,0.0,0.0,0.0,0.0,0.0,0.0,0.0,0.0,0.7258,0.7274,0.7265,0.7231,0.7231,0.7129,0.7095,0.7095,0.7095,0.7095,0.7095,0.7095,0.7095,0.7095,0.7095,0.7095,0.7098,0.7238,0.6959,0.6432,0.6245,0.6278,0.6384,0.5672,0.5403,0.5359,0.4865,0.3929,0.2903,0.2903,0.2592,0.2147,0.0,0.0,0.0,0.0,0.0,0.0,0.2202,0.2871,0.3345,0.3314,0.4012,0.4491,0.4491,0.4491,0.4027,0.2888,0.0,0.0,0.0,0.0,0.0,0.0,0.0,0.0,0.0,0.0,0.2788,0.3345,0.4125,0.4491,0.0,0.0,0.4491,0.4491,0.0,0.0,0.0,0.0,0.0,0.0,0.0,0.0,0.0,0.0,0.0,0.0,0.0,0.0,0.0,0.0,0.0,0.0,0.0,0.0,0.0,0.0,0.645,0.659,0.6678,0.6702,0.6688,0.6644,0.6522,0.6436,0.0,0.0,0.6173,0.6221,0.6193,0.6245,0.6289,0.6262,0.6245,0.0,0.0,0.641,0.6607,0.0,0.0,0.0,0.0,0.7095,0.0,0.7095,0.7095,0.7095,0.7095,0.7095,0.7095,0.7095,0.7095,0.7095,0.7095,0.7095,0.7095,0.7095,0.7095,0.7095,0.7095,0.7095,0.7098,0.7255,0.7244,0.7058,0.6349,0.6427,0.0,0.6248,0.5894,0.5894,0.5894,0.5176,0.415,0.415,0.3926,0.3614,0.0,0.0,0.0,0.0,0.0,0.0,0.0,0.2815,0.3287,0.3287,0.4012,0.4491,0.4491,0.4491,0.4406,0.421,0.0,0.0,0.0,0.0,0.0,0.0,0.0,0.0,0.0,0.0,0.0,0.34,0.4125,0.4491,0.4491,0.4491,0.4491,0.4491,0.0,0.0,0.0,0.0,0.0,0.0,0.0,0.0,0.0,0.0,0.0,0.0,0.0,0.0,0.0,0.0,0.0,0.0,0.0,0.0,0.0,0.0,0.6303,0.6368,0.662,0.6702,0.6664,0.6552,0.6409,0.6262,0.0,0.0,0.5847,0.5966,0.5993,0.6078,0.6272,0.6135,0.6084,0.6276,0.6132,0.0,0.6474,0.0,0.0,0.0,0.0,0.7095,0.7095,0.7095,0.7095,0.7095,0.7095,0.0,0.7095,0.7095,0.7095,0.7095,0.7095,0.7095,0.7095,0.7095,0.7095,0.7095,0.7095,0.7095,0.7095,0.7098,0.7098,0.7095,0.7098,0.7098,0.0,0.7095,0.7095,0.7095,0.7095,0.6381,0.5403,0.5403,0.4641,0.3614,0.0,0.0,0.0,0.0,0.0,0.0,0.0,0.3959,0.4125,0.4125,0.4213,0.4291,0.4291,0.4222,0.4141,0.4068,0.0,0.0,0.0,0.0,0.0,0.0,0.0,0.0,0.0,0.0,0.0,0.382,0.4055,0.4158,0.4158,0.4158,0.4216,0.4291,0.4291,0.4372,0.0,0.0,0.0,0.0,0.0,0.0,0.0,0.0,0.0,0.0,0.0,0.0,0.0,0.0,0.0,0.0,0.0,0.0,0.0,0.5764,0.5871,0.5989,0.619,0.6202,0.6192,0.6183,0.6135,0.6061,0.5908,0.0,0.5817,0.5864,0.5874,0.5888,0.5939,0.5908,0.5925,0.6078,0.6023,0.0,0.0,0.0,0.0,0.0,0.7011,0.7095,0.0,0.0,0.7095,0.7095,0.7095,0.7095,0.7095,0.7095,0.7095,0.7095,0.7095,0.7095,0.7095,0.7095,0.7095,0.7095,0.7095,0.7095,0.7095,0.7095,0.7095,0.7095,0.7095,0.7095,0.7095,0.7095,0.7095,0.7095,0.7095,0.6874,0.6561,0.6561,0.6337,0.5977,0.0,0.0,0.0,0.0,0.0,0.0,0.0,0.4382,0.4362,0.4331,0.419,0.4136,0.4136,0.4051,0.3971,0.3938,0.0,0.0,0.0,0.0,0.0,0.0,0.0,0.0,0.0,0.3315,0.3567,0.4082,0.4082,0.4109,0.4185,0.4185,0.4183,0.4197,0.4197,0.424,0.0,0.0,0.0,0.0,0.0,0.0,0.4491,0.0,0.0,0.0,0.0,0.0,0.0,0.0,0.0,0.0,0.0,0.0,0.0,0.0,0.56,0.5681,0.0,0.5905,0.5905,0.5905,0.5901,0.0,0.0,0.0,0.565,0.5708,0.5722,0.5739,0.5789,0.5755,0.5789,0.5959,0.5942,0.0,0.0,0.0,0.0,0.694,0.0,0.0,0.0,0.7095,0.7095,0.7095,0.7095,0.7095,0.7095,0.7095,0.7095,0.7095,0.7095,0.7095,0.7095,0.7095,0.7095,0.7095,0.7095,0.7095,0.7095,0.7095,0.7095,0.7095,0.7095,0.7095,0.0,0.7095,0.7095,0.7095,0.7095,0.7095,0.7095,0.7095,0.7095,0.7095,0.0,0.0,0.0,0.0,0.0,0.0,0.0,0.0,0.0,0.0,0.3987,0.3981,0.3981,0.3971,0.3931,0.0,0.0,0.0,0.0,0.0,0.0,0.0,0.0,0.0,0.0,0.3974,0.4048,0.4164,0.4174,0.4274,0.4457,0.4457,0.4365,0.4197,0.4184,0.4129,0.3994,0.3994,0.4078,0.418,0.419,0.4301,0.0,0.0,0.0,0.0,0.0,0.0,0.0,0.0,0.0,0.0,0.0,0.0,0.0,0.0,0.0,0.0,0.0,0.0,0.0,0.0,0.0,0.0,0.0,0.0,0.0,0.5545,0.5576,0.5613,0.5745,0.5671,0.5684,0.5932,0.0,0.0,0.0,0.6614,0.0,0.0,0.7095,0.0,0.7095,0.7095,0.7095,0.7095,0.7095,0.7095,0.7095,0.7095,0.7095,0.7095,0.7095,0.7095,0.7095,0.7095,0.7095,0.7095,0.7095,0.7095,0.7095,0.7095,0.7095,0.7095,0.7095,0.7095,0.7095,0.7095,0.7095,0.7095,0.7095,0.7095,0.7095,0.7095,0.7095,0.7095,0.0,0.0,0.0,0.0,0.0,0.0,0.0,0.0,0.0,0.0,0.0,0.3846,0.3846,0.3748,0.0,0.0,0.0,0.0,0.0,0.0,0.0,0.0,0.0,0.0,0.0,0.3788,0.3863,0.3897,0.3991,0.4065,0.4124,0.4124,0.4142,0.419,0.4099,0.4028,0.3994,0.3994,0.4014,0.4058,0.415,0.4214,0.0,0.0,0.0,0.0,0.4491,0.4491,0.0,0.0,0.0,0.0,0.0,0.0,0.0,0.0,0.527,0.5412,0.5481,0.0,0.564,0.564,0.5613,0.0,0.0,0.0,0.0,0.0,0.0,0.0,0.0,0.0,0.0,0.0,0.0,0.0,0.6467,0.0,0.0,0.7075,0.7095,0.7095,0.7095,0.7095,0.7095,0.7095,0.7095,0.7095,0.7095,0.7095,0.7095,0.7095,0.7095,0.7095,0.7095,0.7095,0.7095,0.7095,0.7095,0.7095,0.7095,0.7095,0.7095,0.7095,0.7095,0.7095,0.7095,0.7095,0.7095,0.7095,0.7095,0.7095,0.7095,0.7095,0.7095,0.7095,0.0,0.0,0.0,0.0,0.0,0.0,0.0,0.0,0.0,0.0,0.0,0.0,0.0,0.0,0.0,0.0,0.0,0.0,0.0,0.0,0.0,0.0,0.0,0.0,0.0,0.3751,0.3918,0.4122,0.4182,0.426,0.4328,0.4328,0.4271,0.4184,0.3991,0.388,0.3819,0.3819,0.3856,0.3927,0.4055,0.0,0.0,0.0,0.0,0.0,0.4491,0.4491,0.0,0.4491,0.4545,0.4627,0.0,0.0,0.0,0.0,0.524,0.5395,0.5395,0.5453,0.5518,0.5518,0.5518,0.5498,0.0,0.0,0.0,0.0,0.0,0.0,0.0,0.0,0.0,0.0,0.6037,0.0,0.0,0.0,0.7011,0.7088,0.7095,0.7095,0.0,0.7095,0.7095,0.7095,0.7095,0.7095,0.7095,0.7095,0.7095,0.7095,0.7095,0.7095,0.7095,0.7095,0.7095,0.7095,0.7095,0.7095,0.7095,0.7095,0.7095,0.7095,0.7095,0.7095,0.7095,0.7095,0.7095,0.7095,0.7095,0.7095,0.7095,0.7095,0.7095,0.7095,0.0,0.0,0.0,0.0,0.0,0.0,0.0,0.0,0.0,0.0,0.0,0.0,0.0,0.0,0.0,0.0,0.0,0.0,0.0,0.0,0.0,0.0,0.0,0.3692,0.3788,0.386,0.4105,0.4491,0.4539,0.4627,0.4724,0.4701,0.4518,0.415,0.3941,0.3734,0.3604,0.3604,0.3672,0.3771,0.3924,0.0,0.0,0.0,0.0,0.0,0.0,0.0,0.0,0.4491,0.4491,0.4511,0.4644,0.0,0.0,0.0,0.0,0.0,0.5388,0.5395,0.5395,0.5395,0.5395,0.5395,0.0,0.0,0.0,0.0,0.0,0.0,0.0,0.0,0.0,0.0,0.0,0.0,0.6829,0.7007,0.7095,0.7095,0.7095,0.0,0.7095,0.7095,0.7095,0.7095,0.7095,0.7095,0.7095,0.7095,0.7095,0.7095,0.7095,0.7095,0.7095,0.7095,0.7095,0.7095,0.7095,0.7095,0.7095,0.7095,0.7095,0.7095,0.7095,0.0,0.7095,0.7095,0.7095,0.7095,0.7095,0.7095,0.7095,0.7095,0.7095,0.7095,0.0,0.0,0.0,0.0,0.0,0.0,0.0,0.0,0.0,0.0,0.0,0.0,0.0,0.0,0.0,0.0,0.0,0.0,0.0,0.0,0.0,0.0,0.0,0.3768,0.3792,0.4191,0.4419,0.4491,0.4721,0.486,0.488,0.4752,0.4463,0.4028,0.3981,0.3832,0.3604,0.3604,0.3614,0.3648,0.3768,0.0,0.0,0.0,0.0,0.0,0.0,0.0,0.0,0.4491,0.4491,0.4494,0.4518,0.0,0.0,0.0,0.0,0.0,0.5358,0.5395,0.5395,0.5395,0.5395,0.5395,0.0,0.0,0.0,0.0,0.0,0.0,0.0,0.0,0.5939,0.0,0.0,0.6702,0.0,0.0,0.7095,0.7095,0.0,0.7095,0.7095,0.7095,0.7095,0.7095,0.7095,0.7095,0.7095,0.7095,0.7095,0.7095,0.7095,0.7095,0.7095,0.7095,0.7095,0.7095,0.7095,0.7095,0.7095,0.7095,0.7095,0.7095,0.0,0.7095,0.7095,0.7095,0.7095,0.7095,0.7095,0.7095,0.7095,0.7095,0.7095,0.7095,0.0,0.0,0.0,0.0,0.0,0.0,0.0,0.0,0.0,0.0,0.0,0.0,0.0,0.0,0.0,0.0,0.0,0.0,0.0,0.0,0.0,0.0,0.3795,0.3914,0.3914,0.43,0.4573,0.4707,0.4925,0.5002,0.4999,0.4799,0.4494,0.4112,0.4031,0.3897,0.3713,0.3634,0.3604,0.3621,0.0,0.0,0.0,0.0,0.0,0.0,0.0,0.0,0.0,0.0,0.4491,0.4491,0.4491,0.0,0.0,0.0,0.0,0.0,0.5351,0.5395,0.5395,0.5395,0.5395,0.5416,0.0,0.0,0.0,0.0,0.0,0.0,0.0,0.0,0.607,0.6352,0.0,0.6875,0.6977,0.7055,0.7095,0.0,0.0,0.7095,0.7095,0.7095,0.7095,0.7095,0.7095,0.7095,0.7095,0.7095,0.7095,0.7095,0.7095,0.7095,0.7095,0.7095,0.7095,0.7095,0.7095,0.7095,0.7095,0.7095,0.7095,0.7095,0.0,0.7095,0.7095,0.7095,0.7095,0.7095,0.7095,0.7095,0.7095,0.7095,0.7095,0.7095,0.0,0.0,0.0,0.0,0.0,0.0,0.0,0.0,0.0,0.0,0.0,0.0,0.0,0.0,0.0,0.0,0.0,0.0,0.0,0.0,0.3604,0.3604,0.3863,0.3994,0.3994,0.4382,0.4684,0.4887,0.5066,0.5117,0.5046,0.485,0.4537,0.4187,0.4062,0.3934,0.3782,0.3662,0.3621,0.3672,0.0,0.0,0.0,0.0,0.0,0.0,0.0,0.0,0.0,0.0,0.0,0.0,0.0,0.0,0.0,0.4863,0.4965,0.509,0.5344,0.5395,0.5402,0.544,0.0,0.0,0.0,0.0,0.0,0.0,0.0,0.0,0.0,0.6142,0.0,0.6692,0.6851,0.6933,0.7078,0.7095,0.7095,0.7095,0.7095,0.7095,0.7095,0.7095,0.7095,0.7095,0.7095,0.7095,0.7095,0.7095,0.7095,0.7095,0.7095,0.7095,0.7095,0.7095,0.7095,0.7095,0.7095,0.7095,0.7095,0.7095,0.7095,0.7095,0.7095,0.7095,0.7095,0.7095,0.7095,0.7095,0.7095,0.7095,0.7095,0.7095,0.7095,0.7095,0.0,0.0,0.0,0.0,0.0,0.0,0.0,0.0,0.0,0.0,0.0,0.0,0.0,0.0,0.0,0.0,0.0,0.0,0.0,0.0,0.3604,0.3604,0.3863,0.3994,0.3994,0.456,0.4897,0.4887,0.5206,0.5203,0.4904,0.4881,0.4638,0.4187,0.4062,0.3934,0.3782,0.3662,0.3679,0.3778,0.3799,0.0,0.0,0.0,0.0,0.0,0.0,0.0,0.0,0.0,0.0,0.0,0.0,0.0,0.4563,0.4833,0.4894,0.4996,0.5317,0.5395,0.5429,0.5573,0.0,0.0,0.0,0.0,0.0,0.0,0.0,0.0,0.0,0.6468,0.6709,0.6842,0.6879,0.6933,0.7078,0.0,0.7095,0.7095,0.7095,0.7095,0.7095,0.7095,0.7095,0.7095,0.7095,0.7095,0.7095,0.7095,0.7095,0.7095,0.7095,0.7095,0.7095,0.7095,0.7095,0.7095,0.7095,0.7095,0.7095,0.7095,0.7095,0.7095,0.7095,0.7095,0.7095,0.7095,0.7095,0.7095,0.7095,0.7095,0.7095,0.7095,0.7095,0.7095,0.0,0.0,0.0,0.0,0.0,0.0,0.0,0.0,0.0,0.0,0.0,0.0,0.0,0.0,0.0,0.0,0.0,0.0,0.0,0.0,0.3604,0.3604,0.3863,0.3994,0.3994,0.4581,0.4887,0.4887,0.5248,0.5242,0.4887,0.4887,0.4728,0.4375,0.42,0.4105,0.4041,0.3917,0.3883,0.3941,0.4011,0.4119,0.0,0.0,0.0,0.0,0.0,0.0,0.0,0.0,0.4491,0.4491,0.4491,0.4491,0.4549,0.483,0.4887,0.4986,0.5313,0.5467,0.5552,0.5576,0.0,0.0,0.0,0.0,0.0,0.0,0.0,0.0,0.0,0.0,0.6861,0.6876,0.696,0.7034,0.7088,0.7095,0.7095,0.7095,0.7095,0.7095,0.7095,0.7095,0.7095,0.7095,0.7095,0.7095,0.7095,0.7095,0.7095,0.7095,0.7095,0.7095,0.7095,0.7095,0.7095,0.7095,0.7095,0.7095,0.7095,0.7095,0.7095,0.7095,0.7095,0.7095,0.7095,0.7095,0.7095,0.7095,0.7095,0.7095,0.7095,0.7095,0.7095,0.7095,0.0,0.0,0.0,0.0,0.0,0.0,0.0,0.0,0.0,0.0,0.0,0.0,0.0,0.0,0.0,0.0,0.0,0.0,0.0,0.3604,0.3604,0.3604,0.3863,0.3994,0.3994,0.4562,0.487,0.4887,0.5248,0.5242,0.4887,0.4887,0.4755,0.4484,0.4284,0.4197,0.4184,0.4058,0.4021,0.4075,0.4153,0.4247,0.0,0.0,0.0,0.0,0.0,0.0,0.0,0.0,0.4491,0.4491,0.4491,0.4491,0.4549,0.483,0.4887,0.4986,0.5313,0.5508,0.5599,0.0,0.0,0.0,0.0,0.0,0.0,0.0,0.0,0.0,0.0,0.0,0.0,0.0,0.7034,0.7095,0.7095,0.7095,0.7095,0.7095,0.7095,0.7095,0.7095,0.7095,0.7095,0.7095,0.7095,0.7095,0.7095,0.7095,0.7095,0.7095,0.7095,0.7095,0.7095,0.7095,0.7095,0.7095,0.7095,0.7095,0.7095,0.7095,0.7095,0.7095,0.7095,0.7095,0.7095,0.7095,0.7095,0.7095,0.7095,0.7095,0.7095,0.7095,0.7095,0.7095,0.0,0.0,0.0,0.0,0.0,0.0,0.0,0.0,0.0,0.0,0.0,0.0,0.0,0.0,0.0,0.0,0.0,0.0,0.0,0.3604,0.3604,0.3604,0.3863,0.3994,0.3994,0.446,0.4765,0.4887,0.5245,0.5238,0.4887,0.4887,0.0,0.0,0.0,0.4197,0.4187,0.4062,0.4085,0.4197,0.4197,0.4308,0.4491,0.0,0.0,0.0,0.0,0.0,0.0,0.0,0.4491,0.4491,0.4491,0.4491,0.4549,0.483,0.4887,0.4986,0.5313,0.5508,0.5627,0.0,0.0,0.0,0.0,0.0,0.0,0.0,0.0,0.6886,0.6886,0.0,0.0,0.7095,0.7095,0.7095,0.7095,0.7095,0.7095,0.7095,0.7095,0.7095,0.7095,0.7095,0.7095,0.7095,0.7095,0.7095,0.7095,0.7095,0.7095,0.7095,0.7095,0.7095,0.7095,0.7095,0.7095,0.7095,0.7095,0.7095,0.7095,0.7095,0.7095,0.7095,0.7095,0.7095,0.7095,0.7095,0.7095,0.7095,0.7095,0.7095,0.7095,0.7095,0.7095,0.7095,0.0,0.0,0.0,0.0,0.0,0.0,0.0,0.0,0.0,0.0,0.0,0.0,0.0,0.0,0.0,0.0,0.0,0.0,0.0,0.3604,0.3604,0.3604,0.3758,0.391,0.3994,0.446,0.4765,0.4887,0.5006,0.4948,0.4758,0.0,0.0,0.4487,0.0,0.4399,0.4395,0.4378,0.4385,0.4399,0.4399,0.4453,0.4491,0.0,0.0,0.0,0.0,0.0,0.0,0.0,0.0,0.0,0.4491,0.4491,0.4549,0.483,0.4887,0.4986,0.5313,0.5579,0.0,0.0,0.0,0.0,0.0,0.0,0.0,0.0,0.0,0.6916,0.7014,0.0,0.0,0.7095,0.7095,0.7095,0.7095,0.7095,0.7095,0.7095,0.7095,0.7095,0.7095,0.7095,0.7095,0.7095,0.7095,0.7095,0.7095,0.7095,0.7095,0.7095,0.7095,0.7095,0.7095,0.7095,0.7095,0.7095,0.7095,0.7095,0.7095,0.7095,0.7095,0.7095,0.7095,0.7095,0.7095,0.7095,0.7095,0.7095,0.7095,0.7095,0.7095,0.7095,0.7095,0.7095,0.0,0.0,0.0,0.0,0.0,0.0,0.0,0.0,0.0,0.0,0.0,0.0,0.0,0.0,0.0,0.0,0.0,0.0,0.0,0.0,0.3604,0.3604,0.374,0.3863,0.3991,0.4318,0.453,0.4624,0.48,0.484,0.0,0.0,0.4638,0.4491,0.0,0.4491,0.4491,0.4491,0.4491,0.4491,0.4491,0.4491,0.4491,0.0,0.0,0.0,0.0,0.0,0.0,0.0,0.0,0.0,0.4491,0.0,0.4631,0.4847,0.4928,0.5039,0.5402,0.5623,0.0,0.0,0.0,0.0,0.0,0.0,0.0,0.0,0.0,0.6994,0.7082,0.7095,0.0,0.7095,0.7095,0.7095,0.7095,0.7095,0.7095,0.7095,0.7095,0.7095,0.7095,0.7095,0.7095,0.7095,0.7095,0.7095,0.7095,0.7095,0.7095,0.7095,0.7095,0.7095,0.7095,0.7095,0.7095,0.7095,0.7095,0.7095,0.7095,0.7095,0.7095,0.7095,0.7095,0.7095,0.7095,0.7095,0.7095,0.7095,0.7095,0.7095,0.7095,0.7095,0.7095,0.7095,0.0,0.0,0.0,0.0,0.0,0.0,0.0,0.0,0.0,0.0,0.3604,0.0,0.0,0.0,0.0,0.0,0.0,0.0,0.0,0.0,0.3604,0.3604,0.374,0.3856,0.3971,0.4126,0.418,0.4197,0.4641,0.0,0.0,0.0,0.4624,0.4491,0.0,0.4491,0.4491,0.4491,0.4491,0.4491,0.4491,0.4491,0.4491,0.4491,0.0,0.0,0.0,0.0,0.0,0.0,0.0,0.0,0.4491,0.4597,0.4721,0.4874,0.4988,0.5164,0.5508,0.0,0.0,0.0,0.0,0.0,0.6878,0.0,0.6943,0.7068,0.0,0.7095,0.7095,0.7095,0.7095,0.7095,0.7095,0.7095,0.7095,0.7095,0.7095,0.7095,0.7095,0.7095,0.7095,0.7095,0.7095,0.7095,0.7095,0.7092,0.7078,0.7078,0.7068,0.7055,0.7055,0.7055,0.7055,0.7055,0.7061,0.7078,0.7078,0.7085,0.7095,0.7095,0.7095,0.7095,0.7095,0.7095,0.7095,0.7095,0.7095,0.7095,0.7095,0.7095,0.7095,0.7095,0.7095,0.7095,0.0,0.0,0.0,0.0,0.0,0.0,0.0,0.0,0.0,0.0,0.0,0.0,0.0,0.0,0.0,0.0,0.0,0.0,0.0,0.0,0.3604,0.3604,0.374,0.3809,0.3839,0.3964,0.4102,0.4197,0.4457,0.0,0.0,0.0,0.0,0.4491,0.0,0.4491,0.4491,0.4491,0.4491,0.4491,0.4491,0.4491,0.4491,0.4491,0.4491,0.0,0.0,0.0,0.0,0.0,0.0,0.0,0.4491,0.4597,0.4721,0.4874,0.4988,0.5164,0.0,0.5694,0.0,0.0,0.0,0.0,0.0,0.7051,0.7058,0.7088,0.7095,0.7095,0.7095,0.7095,0.7095,0.7095,0.7095,0.7095,0.7095,0.7095,0.7095,0.7095,0.7095,0.7095,0.7095,0.7095,0.7095,0.7095,0.7095,0.7048,0.6937,0.693,0.6876,0.68,0.6797,0.6797,0.6797,0.6797,0.6854,0.693,0.693,0.6991,0.7095,0.7095,0.7095,0.7095,0.7095,0.7095,0.7095,0.7095,0.7095,0.7095,0.7095,0.7095,0.7095,0.7095,0.7095,0.7095,0.0,0.0,0.0,0.0,0.0,0.0,0.0,0.0,0.0,0.0,0.0,0.0,0.0,0.0,0.0,0.0,0.0,0.0,0.0,0.0,0.0,0.0,0.3672,0.3713,0.3713,0.3836,0.396,0.4112,0.0,0.0,0.0,0.0,0.0,0.4491,0.0,0.4532,0.4597,0.4522,0.4532,0.4593,0.4518,0.4491,0.4491,0.4491,0.4491,0.4491,0.4491,0.0,0.0,0.0,0.0,0.0,0.0,0.0,0.4816,0.4867,0.5074,0.5291,0.0,0.0,0.0,0.0,0.0,0.0,0.0,0.7048,0.7095,0.7095,0.7095,0.7095,0.7095,0.7095,0.7095,0.7095,0.7095,0.7095,0.7095,0.7095,0.7095,0.7095,0.7095,0.7095,0.7095,0.7034,0.6997,0.6997,0.6927,0.6898,0.6824,0.682,0.6783,0.6702,0.6702,0.6702,0.6702,0.6702,0.6986,0.7525,0.7689,0.8107,0.8746,0.7617,0.7705,0.8746,0.8189,0.8273,0.879,0.879,0.879,0.879,0.879,0.879,0.879,0.879,0.879,0.879,0.0,0.0,0.0,0.0,0.0,0.0,0.0,0.0,0.0,0.0,0.0,0.0,0.0,0.0,0.0,0.0,0.0,0.0,0.0,0.0,0.0,0.0,0.3604,0.3604,0.3604,0.3716,0.3843,0.0,0.0,0.0,0.0,0.0,0.0,0.4491,0.0,0.46,0.4684,0.461,0.4644,0.4718,0.4621,0.4569,0.4569,0.4569,0.4569,0.4569,0.4569,0.4552,0.4528,0.4528,0.0,0.0,0.0,0.0,0.4887,0.4887,0.5128,0.5429,0.0,0.0,0.0,0.0,0.0,0.0,0.0,0.6974,0.7065,0.7092,0.7095,0.7095,0.7095,0.7095,0.7095,0.7095,0.7095,0.7095,0.7095,0.7095,0.7095,0.7095,0.7075,0.7058,0.7058,0.693,0.6849,0.6849,0.6773,0.6688,0.6661,0.6661,0.673,0.6869,0.6907,0.6989,0.7148,0.7148,0.7564,0.8444,0.8789,0.9616,1.077,0.8646,0.8746,1.0567,0.9623,0.971,1.0611,1.0611,1.0611,1.0611,1.0611,1.0611,1.0611,1.0611,1.0611,1.0611,0.0,0.0,0.0,0.0,0.0,0.0,0.0,0.0,0.0,0.0,0.0,0.0,0.0,0.0,0.0,0.0,0.0,0.0,0.0,0.0,0.0,0.0,0.3604,0.3604,0.3604,0.3621,0.3744,0.0,0.0,0.0,0.0,0.0,0.0,0.4494,0.0,0.0,0.4697,0.4809,0.487,0.4857,0.4867,0.4857,0.4857,0.4857,0.0,0.4857,0.4857,0.4772,0.466,0.466,0.46,0.0,0.0,0.0,0.4887,0.4887,0.5128,0.5429,0.0,0.0,0.0,0.0,0.0,0.0,0.0,0.0,0.695,0.0,0.7095,0.7095,0.7095,0.7095,0.7095,0.7095,0.7095,0.7095,0.7095,0.7095,0.7095,0.7095,0.6987,0.6913,0.6913,0.682,0.6729,0.6729,0.6712,0.6644,0.6549,0.6542,0.6878,0.7631,0.7665,0.8086,0.8928,0.8966,0.9092,0.935,0.9797,1.059,1.1708,1.0605,1.0308,1.0611,1.0438,1.0481,1.0611,1.0611,1.0611,1.0611,1.0611,1.0611,1.0611,1.0611,1.0611,1.0611,0.0,0.0,0.0,0.0,0.0,0.0,0.0,0.0,0.0,0.0,0.0,0.0,0.0,0.0,0.0,0.0,0.0,0.0,0.0,0.0,0.0,0.0,0.0,0.3826,0.3826,0.3826,0.3906,0.0,0.0,0.0,0.0,0.4491,0.4491,0.0,0.0,0.0,0.0,0.0,0.4935,0.4999,0.4921,0.4887,0.0,0.0,0.0,0.0,0.0,0.0,0.4819,0.4819,0.4772,0.4718,0.4718,0.0,0.0,0.0,0.5192,0.0,0.5549,0.0,0.0,0.0,0.0,0.0,0.0,0.0,0.6903,0.6964,0.7041,0.7095,0.7095,0.7095,0.7095,0.7095,0.7095,0.7095,0.7095,0.7028,0.6977,0.6977,0.6892,0.68,0.68,0.6661,0.6573,0.6573,0.6498,0.6463,0.6399,0.6934,0.7402,0.7783,0.8351,0.8846,0.9296,0.9296,0.9675,1.0445,1.1253,1.2079,1.2842,1.2457,1.2379,1.2516,1.1858,1.1949,1.2565,1.2565,1.2565,1.2565,1.2565,1.2565,1.2565,1.2565,1.2565,1.2565,0.0,0.0,0.0,0.0,0.0,0.0,0.0,0.0,0.0,0.0,0.0,0.0,0.0,0.0,0.0,0.0,0.0,0.0,0.0,0.0,0.0,0.0,0.0,0.3994,0.3994,0.3994,0.0,0.0,0.0,0.0,0.4491,0.4491,0.4511,0.0,0.468,0.0,0.0,0.0,0.0,0.0,0.0,0.0,0.0,0.0,0.0,0.0,0.0,0.0,0.0,0.0,0.4918,0.4887,0.4887,0.4985,0.0,0.0,0.0,0.0,0.0,0.0,0.0,0.0,0.0,0.0,0.0,0.0,0.6824,0.0,0.6913,0.6984,0.6984,0.7045,0.7095,0.7095,0.7095,0.7085,0.7048,0.6953,0.6873,0.6832,0.6736,0.6644,0.6644,0.6549,0.646,0.646,0.6361,0.63,0.63,0.7253,0.7936,0.8161,0.914,0.982,1.0045,1.0045,1.0555,1.1478,1.24,1.3018,1.338,1.3533,1.3726,1.3933,1.3129,1.3288,1.4088,1.4088,1.4088,1.4088,1.4088,1.4088,1.4088,1.4088,1.4088,1.4088,0.0,0.0,0.0,0.0,0.0,0.0,0.0,0.0,0.0,0.0,0.0,0.0,0.0,0.0,0.0,0.3971,0.0,0.0,0.0,0.0,0.0,0.0,0.0,0.0,0.0,0.0,0.0,0.0,0.0,0.0,0.4491,0.4491,0.4566,0.4684,0.484,0.4955,0.5096,0.0,0.0,0.0,0.0,0.0,0.0,0.0,0.0,0.0,0.0,0.0,0.0,0.0,0.0,0.0,0.0,0.4985,0.51,0.0,0.0,0.0,0.0,0.0,0.0,0.0,0.0,0.0,0.0,0.0,0.6536,0.6681,0.6719,0.6722,0.6722,0.691,0.7095,0.7095,0.7095,0.7048,0.6916,0.6889,0.6832,0.6729,0.6576,0.6525,0.6525,0.6395,0.631,0.631,0.6303,0.63,0.63,0.7253,0.8237,0.9183,1.019,1.1162,1.2114,1.215,1.2194,1.2257,1.2612,1.2804,1.2851,1.3387,1.3613,1.364,1.3919,1.4039,1.4088,1.4088,1.4088,1.4088,1.4088,1.4088,1.4088,1.4088,1.4088,1.4088,0.0,0.0,0.0,0.0,0.0,0.0,0.0,0.0,0.0,0.0,0.0,0.0,0.0,0.3938,0.3974,0.4129,0.425,0.0,0.0,0.0,0.0,0.0,0.0,0.0,0.0,0.0,0.0,0.0,0.0,0.444,0.4491,0.4491,0.4624,0.484,0.4864,0.4968,0.511,0.5327,0.0,0.0,0.0,0.0,0.0,0.0,0.0,0.0,0.0,0.0,0.0,0.0,0.0,0.0,0.0,0.0,0.0,0.0,0.0,0.0,0.0,0.0,0.0,0.0,0.0,0.602,0.6162,0.6335,0.6528,0.6542,0.663,0.6702,0.6702,0.6787,0.6858,0.6858,0.6858,0.6841,0.679,0.6698,0.6617,0.6559,0.6463,0.6375,0.6375,0.633,0.63,0.63,0.6911,0.7249,0.7249,0.8832,0.989,1.0265,1.1242,1.1922,1.2305,1.2305,1.2305,1.2305,1.2412,1.2596,1.279,1.3005,1.328,1.3613,1.3713,1.3908,1.4088,1.4088,1.4088,1.4088,1.4088,1.4088,1.4088,1.4088,1.4088,1.4088,0.0,0.0,0.0,0.0,0.0,0.0,0.0,0.0,0.0,0.0,0.0,0.0,0.0,0.0,0.4132,0.4281,0.4433,0.4491,0.4491,0.4491,0.0,0.0,0.0,0.0,0.0,0.0,0.0,0.0,0.0,0.0,0.0,0.4542,0.4674,0.4891,0.4938,0.5039,0.0,0.0,0.0,0.5399,0.0,0.0,0.5477,0.0,0.0,0.0,0.0,0.0,0.0,0.0,0.0,0.0,0.0,0.0,0.0,0.0,0.0,0.0,0.0,0.0,0.0,0.0,0.0,0.5872,0.5969,0.0,0.6339,0.6429,0.6521,0.6552,0.6552,0.6552,0.6586,0.6685,0.6702,0.6681,0.663,0.6536,0.6494,0.6446,0.6358,0.63,0.63,0.63,0.6451,0.6795,0.7442,0.7936,0.8275,0.989,1.0938,1.1279,1.1959,1.2305,1.2305,1.2305,1.2305,1.2305,1.2305,1.2405,1.2643,1.2737,1.3005,1.3347,1.3413,1.3721,1.4088,1.4088,1.4088,1.4088,1.4088,1.4088,1.4088,1.4088,1.4088,1.4088,0.0,0.0,0.0,0.0,0.0,0.0,0.0,0.0,0.0,0.0,0.0,0.0,0.0,0.0,0.0,0.4477,0.4491,0.4491,0.4491,0.4491,0.0,0.0,0.0,0.0,0.0,0.0,0.0,0.0,0.0,0.0,0.0,0.0,0.4772,0.4894,0.5036,0.5216,0.5395,0.0,0.5395,0.5416,0.0,0.5627,0.5679,0.0,0.0,0.0,0.5871,0.5871,0.0,0.5748,0.0,0.0,0.0,0.0,0.0,0.0,0.0,0.0,0.0,0.0,0.0,0.0,0.0,0.0,0.5915,0.0,0.6064,0.6255,0.6289,0.6293,0.6293,0.6296,0.6392,0.6641,0.6688,0.6634,0.6525,0.6504,0.6453,0.6317,0.63,0.63,0.6338,0.6338,0.6756,0.7783,0.7859,0.8313,0.9296,1.0303,1.1279,1.2268,1.2305,1.2305,1.2305,1.2305,1.2305,1.2305,1.2305,1.2305,1.2311,1.2643,1.2777,1.2804,1.3066,1.3527,1.4062,1.4068,1.4082,1.4088,1.4088,1.4088,1.4088,1.4088,1.4088,1.4088,0.0,0.0,0.0,0.0,0.0,0.0,0.0,0.0,0.0,0.0,0.0,0.0,0.0,0.0,0.4447,0.4487,0.4491,0.4491,0.4491,0.4491,0.4491,0.4491,0.4491,0.0,0.0,0.0,0.0,0.0,0.0,0.0,0.0,0.0,0.0,0.0,0.5036,0.5216,0.5395,0.5395,0.0,0.5566,0.5572,0.6097,0.0,0.0,0.0,0.0,0.0,0.7981,0.7976,0.0,0.7363,0.6545,0.0,0.0,0.0,0.0,0.0,0.0,0.5395,0.0,0.0,0.0,0.0,0.0,0.5694,0.5789,0.5878,0.5918,0.6017,0.6095,0.6095,0.6183,0.6327,0.6409,0.6422,0.6409,0.6364,0.6358,0.6344,0.6306,0.63,0.6606,0.7326,0.7403,0.7821,0.0,0.955,1.0072,1.0378,1.1354,1.1996,1.2298,1.2305,1.2305,1.2305,1.2305,1.2305,1.2305,1.2305,1.2305,1.2305,1.2385,1.2583,1.279,1.2878,1.3132,1.3467,1.3681,1.3895,1.4088,1.4088,1.4088,1.4088,1.4088,1.4088,1.4088,0.0,0.0,0.0,0.0,0.0,0.0,0.0,0.0,0.0,0.0,0.0,0.0,0.0,0.0,0.0,0.4586,0.4644,0.4682,0.4682,0.4682,0.4682,0.4682,0.4621,0.0,0.0,0.0,0.0,0.0,0.0,0.0,0.0,0.0,0.0,0.0,0.0,0.0,0.0,0.0,0.0,0.0,0.6101,0.0,0.0,0.7961,0.8503,0.0,0.0,0.0,0.8452,0.8791,0.81,0.0,0.0,0.0,0.0,0.0,0.0,0.0,0.0,0.0,0.0,0.0,0.0,0.0,0.5576,0.5654,0.5728,0.5789,0.5871,0.6042,0.6408,0.6266,0.6218,0.6589,0.633,0.6153,0.6282,0.63,0.63,0.63,0.6242,0.6391,0.6988,0.7335,0.7917,0.8945,0.9885,1.0611,1.1014,1.1755,1.2124,1.2124,1.2238,1.2305,1.2305,1.2305,1.2305,1.2305,1.2305,1.2305,1.2305,1.2305,1.2398,1.2596,1.2596,1.277,1.3065,1.32,1.352,1.3915,1.4041,1.4088,1.4088,1.4088,1.4088,1.4088,0.0,0.0,0.0,0.0,0.0,0.0,0.0,0.0,0.0,0.0,0.0,0.0,0.0,0.0,0.0,0.0,0.484,0.4887,0.4887,0.4887,0.0,0.0,0.4789,0.4714,0.0,0.0,0.0,0.0,0.0,0.0,0.0,0.0,0.0,0.0,0.0,0.0,0.0,0.0,0.0,0.5728,0.675,0.7356,0.0,0.0,0.9448,0.9636,0.9636,0.9069,0.8391,0.9038,0.8487,0.0,0.0,0.0,0.0,0.0,0.5557,0.0,0.0,0.0,0.0,0.0,0.5395,0.0,0.5569,0.5566,0.5599,0.5725,0.5766,0.6026,0.6801,0.6322,0.6051,0.6829,0.6297,0.5898,0.6207,0.6248,0.6248,0.6248,0.6088,0.604,0.6148,0.6744,0.7571,0.8699,0.9568,1.0475,1.1354,1.1677,1.1873,1.1906,1.2118,1.2271,1.2305,1.2305,1.2305,1.2305,1.2305,1.2305,1.2305,1.2305,1.2305,1.2305,1.2305,1.2452,1.2737,1.277,1.3086,1.358,1.3888,1.3988,1.3988,1.3988,1.4008,1.4041,0.0,0.0,0.0,0.0,0.0,0.0,0.0,0.0,0.0,0.0,0.0,0.0,0.0,0.0,0.0,0.0,0.487,0.4887,0.4887,0.4887,0.0,0.4887,0.486,0.4874,0.4874,0.0,0.0,0.0,0.0,0.0,0.0,0.0,0.0,0.0,0.0,0.0,0.0,0.0,0.0,0.5772,0.6105,0.0,0.8972,0.9205,1.0314,1.17,1.17,1.1589,1.1317,1.058,1.0139,0.9695,0.0,0.0,0.0,0.67,0.0,0.0,0.0,0.0,0.0,0.0,0.5395,0.0,0.5433,0.544,0.5446,0.5477,0.5579,0.57,0.5874,0.5831,0.5871,0.6015,0.5907,0.5823,0.5881,0.5891,0.5891,0.5891,0.5864,0.6165,0.698,0.7162,0.795,0.9678,1.062,1.1183,1.1389,1.1449,1.1623,1.1899,1.196,1.2064,1.2298,1.2305,1.2305,1.2305,1.2305,1.2305,1.2305,1.2305,1.2305,1.2305,1.2305,1.2338,1.2405,1.2683,1.3005,1.326,1.336,1.338,1.338,1.338,1.3527,1.3686,0.0,0.0,0.0,0.0,0.0,0.0,0.0,0.0,0.0,0.0,0.0,0.0,0.0,0.0,0.0,0.0,0.0,0.0,0.0,0.0,0.0,0.5142,0.5067,0.4992,0.4992,0.4924,0.4887,0.0,0.0,0.0,0.0,0.0,0.0,0.0,0.0,0.0,0.0,0.0,0.5779,0.5991,0.7094,0.0,0.941,1.0426,1.1434,1.2305,1.2305,1.2305,1.2131,1.1052,1.067,0.0,0.9722,0.9098,0.8475,0.0,0.7555,0.7437,0.0,0.0,0.0,0.6695,0.0,0.0,0.0,0.6371,0.6174,0.6597,0.6738,0.694,0.7374,0.7148,0.7039,0.7482,0.7176,0.6903,0.6903,0.6265,0.58,0.58,0.5739,0.5906,0.6386,0.6785,0.7749,0.9549,1.052,1.0995,1.0995,1.1129,1.1283,1.1464,1.1752,1.1973,1.2084,1.2231,1.2305,1.2305,1.2305,1.2305,1.2305,1.2305,1.2305,1.2305,1.2305,1.2305,1.2311,1.2465,1.2619,1.2786,1.3093,1.3213,1.3213,1.3213,1.3307,1.3387,0.4491,0.0,0.0,0.0,0.0,0.0,0.0,0.0,0.0,0.0,0.0,0.0,0.0,0.0,0.0,0.0,0.0,0.0,0.0,0.0,0.0,0.0,0.0,0.5143,0.5143,0.5064,0.5003,0.5003,0.0,0.0,0.0,0.0,0.0,0.0,0.0,0.0,0.0,0.0,0.0,0.6474,0.0,0.9097,0.9221,1.1025,1.1848,1.2033,1.2224,1.2305,1.2187,1.1354,1.1028,1.0924,1.0869,1.0195,0.0,0.0,0.0,0.0,0.0,0.0,0.0,0.0,0.0,0.7144,0.0,0.0,0.0,0.7859,0.7994,0.8221,0.0,0.0,0.0,0.8847,0.0,0.0,0.0,0.6929,0.0,0.6237,0.5821,0.5679,0.6017,0.6751,0.7795,0.9204,1.011,1.0593,1.0593,1.0814,1.0935,1.0995,1.1484,1.1792,1.1906,1.2098,1.2245,1.2305,1.2305,1.2305,1.2305,1.2305,1.2305,1.2305,1.2305,1.2305,1.2305,1.2305,1.2305,1.2351,1.2846,1.3039,1.3039,1.3039,1.3073,1.312,0.4491,0.4491,0.0,0.0,0.0,0.0,0.0,0.0,0.0,0.0,0.0,0.0,0.0,0.0,0.0,0.0,0.0,0.0,0.5395,0.0,0.0,0.0,0.0,0.0,0.5368,0.5351,0.5344,0.5344,0.0,0.0,0.0,0.0,0.0,0.0,0.6268,0.0,0.0,0.0,0.711,0.0,0.8763,0.8746,0.0,0.9221,1.019,1.1087,1.1959,1.2305,1.2261,0.0,1.2124,1.2058,0.0,1.1666,1.1327,1.0235,0.0,0.0,0.0,0.0,0.0,0.0,0.7929,0.0,0.7962,0.0,0.7897,0.7994,0.0,0.8027,0.0,0.0,0.0,0.0,0.0,0.0,0.76,0.7656,0.7738,0.7738,0.6382,0.6043,0.7578,0.8501,0.9075,0.9274,1.011,1.0593,1.0593,1.0626,1.076,1.0982,1.1062,1.1343,1.1899,1.194,1.2044,1.2305,1.2305,1.2305,1.2305,1.2305,1.2305,1.2305,1.2305,1.2305,1.2305,1.2305,1.2305,1.2311,1.2378,1.2405,1.2405,1.2405,1.2572,1.2837,0.4525,0.4563,0.0,0.0,0.0,0.0,0.0,0.0,0.0,0.0,0.0,0.0,0.0,0.0,0.0,0.0,0.0,0.5616,0.0,0.0,0.0,0.0,0.0,0.0,0.0,0.5395,0.5395,0.5395,0.5395,0.0,0.0,0.0,0.0,0.0,0.671,0.0,0.7324,0.0,0.745,0.0,0.0,0.0,0.0,1.0196,1.1285,1.1731,1.215,1.2305,1.2305,0.0,1.2305,0.0,0.0,0.0,0.0,1.134,0.0,0.0,0.0,0.0,0.0,0.0,0.0,0.0,0.939,0.0,0.8909,0.939,0.0,0.0,0.0,0.0,0.0,0.0,0.9414,0.939,0.0,0.0,0.8349,0.8044,0.0,0.0,0.7929,0.878,0.9306,0.9306,1.011,1.0593,1.0593,1.0593,1.0646,1.0767,1.0909,1.1196,1.161,1.1784,1.2011,1.2305,1.2305,1.2305,1.2305,1.2305,1.2592,1.3091,1.3091,1.3455,1.3983,1.3983,1.3983,1.3983,1.3983,1.3629,1.3164,1.3774,1.4074,1.4196,0.4658,0.0,0.0,0.0,0.0,0.0,0.0,0.0,0.0,0.0,0.0,0.0,0.5633,0.5647,0.0,0.0,0.58,0.58,0.0,0.0,0.5787,0.0,0.0,0.0,0.0,0.0,0.0,0.0,0.0,0.0,0.0,0.0,0.0,0.0,0.0,0.7767,0.8298,0.0,0.8417,0.8609,0.8609,0.8799,0.9258,1.1253,1.2105,1.2311,1.2392,1.2371,1.2305,1.2305,1.2305,1.2305,1.2305,1.2305,1.2265,0.0,0.0,0.0,1.1603,0.0,0.0,0.0,0.0,0.0,0.0,0.0,0.0,0.0,1.0593,0.0,0.0,0.0,0.0,0.0,0.0,1.0459,0.0,0.9503,0.0,0.0,0.0,0.0,0.0,0.8957,0.9516,0.9516,1.0192,1.0593,1.0593,1.0593,1.0593,1.0593,1.0801,1.1049,1.1389,1.1637,1.1937,1.2305,1.2305,1.2445,1.2666,1.2666,1.32,1.4099,1.4099,1.4522,1.5199,1.5199,1.5199,1.5234,1.5482,1.5128,1.4557,1.5021,1.5199,1.5199,0.4877,0.4877,0.0,0.0,0.0,0.0,0.0,0.0,0.0,0.0,0.0,0.0,0.0,0.0,0.0,0.0,0.0,0.58,0.58,0.0,0.6219,0.0,0.0,0.6174,0.0,0.0,0.0,0.0,0.0,0.0,0.0,0.0,0.0,0.0,0.7545,0.8046,0.7666,0.9529,1.0475,1.0708,1.0708,1.1279,1.2109,0.0,1.167,1.2338,1.2663,0.0,0.0,1.2305,1.2305,1.2305,1.2305,0.0,0.0,0.0,0.0,0.0,0.0,0.0,0.0,1.1062,0.0,0.0,0.0,0.0,1.0561,0.0,0.0,0.0,0.0,0.0,0.0,0.0,0.0,0.0,0.0,0.0,0.0,0.9681,0.9648,0.0,0.0,0.9408,1.0066,1.0066,1.0394,1.0593,1.0593,1.0593,1.0593,1.0593,1.06,1.0881,1.1382,1.1402,1.1695,1.2305,1.2305,1.2776,1.3673,1.3673,1.4207,1.5163,1.5163,1.5163,1.5199,1.5199,1.5199,1.5305,1.621,1.6532,1.6384,1.5517,1.5199,1.5199,0.0,0.0,0.0,0.0,0.0,0.0,0.0,0.5446,0.0,0.0,0.5671,0.0,0.0,0.5915,0.5993,0.0,0.0,0.711,0.711,0.7653,0.0,0.0,0.0,0.7918,0.0,0.0,0.0,0.0,0.0,0.0,0.0,0.0,0.0,0.0,0.0,0.8457,0.0,0.0,0.0,0.0,0.0,1.154,1.2605,0.0,1.2412,1.2677,1.2946,1.2891,1.263,1.263,1.2465,1.2305,1.2305,1.2305,1.2305,1.2305,1.2231,1.2151,1.2151,1.1944,1.1697,1.1631,1.1316,1.0969,0.0,0.0,0.0,0.0,0.0,0.0,0.0,0.0,0.0,0.0,0.0,0.0,0.0,0.0,0.9212,0.9112,0.9446,0.0,0.0,0.0,0.9913,1.01,1.0207,1.0385,1.0579,1.0593,1.0593,1.0593,1.0593,1.078,1.1136,1.1295,1.1929,1.297,1.3143,1.3738,1.47,1.47,1.5234,1.6149,1.6149,1.6472,1.7044,1.7044,1.7044,1.7079,1.7398,1.7535,1.7501,1.7182,1.7044,1.7044,0.5395,0.0,0.0,0.0,0.0,0.0,0.0,0.0,0.0,0.0,0.5827,0.0,0.6162,0.0,0.6861,0.0,0.8016,0.8482,0.8051,0.8827,0.0,0.9227,0.9087,0.9108,0.0,0.0,0.0,0.0,0.0,0.6731,0.0,0.0,0.0,0.0,0.0,0.9035,1.0633,1.0054,1.0415,0.0,0.0,1.203,0.0,0.0,1.3038,1.2991,1.3253,1.3166,1.2931,1.2817,1.2656,1.2445,1.2338,1.2305,1.2305,1.2305,1.2305,1.2305,1.2305,1.2164,1.2033,1.1933,1.1618,1.1276,1.1169,1.0922,1.0747,0.0,0.0,0.0,0.0,0.0,0.0,0.0,0.0,0.0,0.0,0.9178,0.8804,0.8804,0.9145,0.0,0.0,0.9466,0.9606,0.9764,0.997,1.02,1.0425,1.0533,1.0593,1.0593,1.0593,1.0734,1.0989,1.1283,1.2047,1.3302,1.3552,1.4414,1.5685,1.5685,1.6219,1.7104,1.7104,1.7432,1.8008,1.8008,1.8008,1.8008,1.8008,1.8008,1.8008,1.8008,1.8008,1.8008,0.5395,0.0,0.0,0.0,0.5532,0.0,0.0,0.0,0.594,0.0,0.6159,0.6311,0.665,0.7633,0.8338,0.8466,0.9588,0.9791,0.8642,0.9393,0.0,0.0,0.9543,0.9852,1.0683,0.0,0.0,0.0,0.0,0.0,0.0,0.0,0.0,0.0,0.9119,0.0,1.0858,1.082,1.1391,1.2325,1.2663,1.2797,1.2871,1.338,1.344,1.3293,1.3527,1.344,1.3186,1.2931,1.2811,1.2737,1.2412,1.2311,1.2305,1.2305,1.2305,1.2305,1.2305,1.2305,1.2238,1.1993,1.1913,1.1832,1.151,1.1223,1.1009,0.0,0.0,0.0,0.0,0.0,0.0,0.0,0.0,0.0,0.0,0.0,0.8824,0.8804,0.8804,0.8804,0.0,0.9031,0.9198,0.9211,0.9737,1.01,1.0083,1.0432,1.0593,1.0593,1.0593,1.0727,1.0969,1.131,1.2109,1.3341,1.3688,1.4835,1.6671,1.6671,1.7173,1.8008,1.8008,1.8008,1.8008,1.8008,1.8008,1.8008,1.8008,1.8008,1.8008,1.8008,1.8008,1.8008,0.5395,0.5487,0.5562,0.0,0.5633,0.5627,0.0,0.0,0.0,0.0,0.8205,0.8857,0.92,0.951,0.9691,0.9746,1.0686,0.0,0.0,0.0,0.0,1.2247,1.201,1.2018,1.2218,1.1019,1.0322,1.029,0.0,0.0,0.9016,0.0,0.0,0.0,0.0,0.0,1.1885,1.1124,1.1391,1.2325,1.2663,1.2924,1.3133,0.0,1.3693,1.3874,1.3948,1.3781,1.348,1.344,1.3113,1.277,1.2697,1.2516,1.2305,1.2305,1.2305,1.2305,1.2305,1.2305,1.2285,1.2204,1.2067,1.1886,1.177,1.153,1.1249,1.1035,1.0935,1.0847,1.0633,0.0,0.0,0.0,0.0,0.0,0.0,0.0,0.0,0.8831,0.8804,0.8804,0.8804,0.8851,0.8984,0.9198,0.9586,0.9886,1.0077,1.0432,1.0593,1.0593,1.0593,1.0626,1.0707,1.1902,1.3047,1.4064,1.5273,1.6463,1.7647,1.7647,1.7759,1.8008,1.8008,1.8008,1.8008,1.8008,1.8008,1.8008,1.8008,1.8008,1.8008,1.8008,1.8008,1.8008,0.6903,0.6579,0.0,0.5947,0.0,0.0,0.6531,0.6824,0.0,0.7914,0.8642,0.0,0.9499,1.0429,1.1046,1.1103,1.2123,0.0,1.1993,0.0,0.0,1.265,1.2864,1.2924,1.279,1.2074,0.0,1.1465,0.0,0.0,1.0504,0.0,0.0,0.0,0.0,1.0832,1.2261,1.1694,1.1768,1.2338,1.2772,1.3053,0.0,1.3674,1.3941,1.4088,1.4088,1.3981,1.3814,1.3646,1.3333,1.2965,1.2831,1.2583,1.2305,1.2305,1.2305,1.2305,1.2305,1.2305,1.2305,1.2305,1.2178,1.2166,1.2591,1.2452,1.2185,1.205,1.2087,1.1955,1.1397,1.1192,0.0,0.0,0.0,0.0,0.0,0.0,0.0,0.0,0.8804,0.8804,0.8804,0.8804,0.8878,0.9011,0.9297,0.9619,0.9913,1.0207,1.0459,1.0586,1.0593,1.0776,1.1108,1.2313,1.3535,1.4844,1.6018,1.7104,1.8008,1.8008,1.8008,1.8008,1.8008,1.8008,1.8008,1.8008,1.8008,1.8008,1.8008,1.8008,1.8008,1.8008,1.8008,1.8008,0.883,0.0,0.0,0.0,0.0,0.0,0.8007,0.751,0.7473,0.8427,0.0,0.917,0.9377,1.1171,1.2397,1.2529,1.3512,1.3646,1.2589,1.324,1.3229,1.2248,1.2877,1.314,1.2904,1.2824,1.2656,0.0,0.0,0.0,0.0,0.0,0.0,0.0,0.0,0.0,0.0,1.2305,1.2305,1.2358,1.2966,1.3213,1.328,1.3861,1.4088,1.4088,1.4088,1.4088,1.4048,1.3746,1.344,1.3166,1.2931,1.261,1.2305,1.2305,1.2305,1.2305,1.2305,1.2305,1.2342,1.2445,1.2482,1.2732,1.3665,1.3706,1.3557,1.3476,1.3626,1.3452,1.2555,1.2146,0.0,0.0,0.0,0.0,0.0,0.0,0.0,0.0,0.0,0.0,0.8811,0.8804,0.8804,0.8804,0.9051,0.9344,0.9666,0.0,1.0254,1.0579,1.0713,1.1045,1.1648,1.2699,1.3958,1.5362,1.6324,1.7217,1.8008,1.8008,1.8008,1.8008,1.8008,1.8008,1.8008,1.8008,1.8008,1.8008,1.8008,1.8008,1.8008,1.8008,1.8008,1.8008,0.9006,0.0,0.0,0.0,0.0,0.8714,1.0667,1.0639,1.0627,1.1275,1.2157,1.2791,1.3115,1.349,1.3769,1.3773,1.3997,0.0,0.0,0.0,0.0,1.3707,1.3597,1.35,1.3447,1.3038,1.2757,0.0,0.0,0.0,0.0,0.0,0.0,0.0,0.0,0.0,1.2305,1.2305,0.0,1.2358,1.2966,1.3213,1.328,1.3861,1.4088,1.4088,1.4088,1.4088,1.4082,1.4028,1.3654,1.32,1.3146,1.2752,1.2305,1.2305,1.2305,1.2305,1.2305,1.2305,1.2482,1.3273,1.3455,1.3709,1.47,1.4901,1.4806,1.4504,1.4477,1.4272,1.3484,1.3054,0.0,0.0,0.0,0.0,0.0,0.0,0.0,0.0,0.0,0.9834,0.8877,0.8804,0.8804,0.8804,0.9051,0.9344,0.9666,0.0,1.0254,0.0,1.1226,1.1351,0.0,1.3622,1.4867,1.455,1.6723,1.7828,1.8008,1.8008,1.8008,1.8008,1.8008,1.8008,1.8008,1.8008,1.8008,1.8008,1.8008,1.8008,1.8008,1.8008,1.8008,1.8008,1.0064,0.0,0.0,0.0,0.0,0.0,1.17,1.2206,1.2339,1.2046,1.2534,1.2968,1.3148,1.373,1.4088,1.4088,1.4088,1.4088,1.4088,1.4088,1.4088,1.4088,1.3948,1.376,1.3606,1.336,1.3099,1.2784,0.0,0.0,0.0,0.0,0.0,0.0,0.0,1.2305,0.0,0.0,1.2305,1.2358,1.2966,1.3213,1.328,1.3861,1.4088,1.4088,1.4088,1.4088,1.4088,1.4088,1.3694,1.3213,1.3213,1.2792,1.2305,1.2305,1.2305,1.2305,1.2305,1.2305,1.2519,1.3455,1.3709,1.4099,1.5579,1.5939,1.5887,1.5713,1.5897,1.5722,1.4504,1.3926,1.3364,1.2543,1.242,0.0,0.0,0.0,1.166,0.0,0.0,0.0,0.0,0.9683,0.9432,0.8844,0.8911,0.9212,0.9688,0.0,1.0298,0.0,0.0,0.0,1.2451,0.0,1.5523,1.5542,1.7212,1.8008,1.8008,1.8008,1.8008,1.8008,1.8008,1.8008,1.8008,1.8008,1.8008,1.8008,1.8008,1.8008,1.8008,1.8008,1.8008,1.8008,0.0,1.1322,0.0,0.0,1.1244,1.1955,1.2467,1.3185,1.3391,1.2497,1.2548,1.2674,1.2674,1.3512,1.4088,1.4088,1.4088,1.4088,1.4088,1.4088,1.4088,1.4088,1.4088,1.3975,1.37,1.3633,1.3407,0.0,0.0,1.263,1.2305,0.0,0.0,0.0,0.0,0.0,0.0,1.2305,1.2338,1.2445,1.2993,1.3247,1.336,1.3888,1.4088,1.4088,1.4088,1.4088,1.4117,1.426,1.3804,1.3213,1.3213,1.2907,1.2592,1.2592,1.2732,1.2908,1.2908,1.2908,1.3127,1.4091,1.4307,1.4772,1.6498,1.6888,1.6897,1.6915,1.7163,1.6902,1.5322,1.4793,1.4312,1.3411,1.3252,1.3181,0.0,0.0,1.2775,0.0,0.0,0.0,1.0962,1.0685,1.0198,0.9321,0.9012,0.9234,0.9995,0.0,0.0,0.0,1.2228,1.2873,1.4059,0.0,1.6038,1.6568,1.7537,1.8008,1.8008,1.8008,1.8008,1.8008,1.8008,1.8008,1.8008,1.8008,1.8008,1.8008,1.8008,1.8008,1.8008,1.8008,1.8008,1.8008,0.0,0.0,0.0,0.0,1.2581,1.2479,1.3743,1.3999,1.3999,1.3915,1.3935,1.3913,1.3913,1.4046,1.4088,1.4088,1.4088,1.4088,1.4088,1.4088,1.4088,1.4088,1.4088,1.4075,1.4048,1.374,1.3573,0.0,0.0,1.263,1.2305,0.0,0.0,0.0,0.0,1.2305,1.2305,1.2305,1.2496,1.277,1.3073,1.3367,1.3593,1.3961,1.4088,1.4088,1.4088,1.4088,1.421,1.4813,1.4217,1.3213,1.3213,1.3359,1.3564,1.3564,1.4199,1.4914,1.4914,1.4914,1.5155,1.6105,1.6315,1.6602,1.7647,1.7872,1.7872,1.7872,1.7609,1.6998,1.568,1.5713,1.5529,1.4297,1.4094,1.4076,1.404,0.0,1.3682,1.2668,0.0,0.0,1.205,1.1283,1.0818,1.0703,0.975,0.9749,1.1078,0.0,0.0,1.284,1.3606,1.3861,1.3668,1.5609,1.6446,1.616,1.7427,1.8008,1.8008,1.8008,1.8008,1.8008,1.8008,1.8008,1.8008,1.8008,1.8008,1.8008,1.8008,1.8008,1.8008,1.8008,1.8008,1.8008,1.3213,1.302,1.3007,1.3498,1.345,1.3474,1.4026,1.4088,1.4088,1.4088,1.4088,1.4088,1.4088,1.4088,1.4088,1.4088,1.4088,1.4088,1.4088,1.4088,1.4088,1.4088,1.4088,1.4088,1.4088,1.3968,1.378,0.0,0.0,0.0,0.0,0.0,1.2472,1.2305,1.2305,1.2305,1.2311,1.2492,1.2677,1.2831,1.3273,1.35,1.3633,1.3975,1.4088,1.4166,1.4817,1.4898,1.4842,1.5768,1.5151,1.4126,1.4493,1.4622,1.4593,1.4593,1.4879,1.5199,1.5199,1.5199,1.5446,1.6358,1.6602,1.6853,1.7794,1.8008,1.8008,1.8008,1.7676,1.7226,1.6739,1.6336,1.5945,1.543,1.5093,1.4932,1.4932,0.0,0.0,1.4318,0.0,1.4315,1.3231,1.2848,1.2441,1.1962,1.0429,1.002,1.1249,1.1301,0.0,1.3687,0.0,1.4493,1.5078,1.615,1.6741,1.6892,1.7625,1.8008,1.8008,1.8008,1.8008,1.8008,1.8008,1.8008,1.8008,1.8008,1.8008,1.8008,1.8008,1.8008,1.8037,1.8256,1.8354,1.8383,1.3467,1.3634,1.3733,1.3733,1.3948,1.4088,1.4088,1.4088,1.4088,1.4088,1.4088,1.4088,1.4088,1.4088,1.4088,1.4088,1.4088,1.4088,1.4088,1.4088,1.4088,1.4088,1.4088,1.4088,1.4088,1.4088,1.3981,1.3733,1.3646,1.338,1.2918,1.2737,1.2636,1.2565,1.2472,1.2485,1.2585,1.2831,1.2971,1.3085,1.3433,1.3653,1.3753,1.4008,1.4292,1.4657,1.5421,1.565,1.5706,1.6657,1.6231,1.533,1.556,1.5624,1.5614,1.5614,1.5799,1.6018,1.6018,1.6018,1.6193,1.6862,1.6991,1.7182,1.7862,1.8008,1.8008,1.8008,1.7773,1.7529,1.7402,1.6907,1.6398,1.6134,1.5831,1.5557,1.543,1.541,0.0,1.541,1.541,1.509,1.4354,1.4067,1.3683,1.31,1.1572,1.1101,1.2085,1.216,1.2898,1.4501,1.454,1.5098,1.626,1.6541,1.698,1.7568,1.7871,1.8008,1.8008,1.8008,1.8008,1.8008,1.8008,1.8008,1.8018,1.8144,1.8193,1.8203,1.834,1.8389,1.8453,1.9018,1.9243,1.9319,1.4075,1.4082,1.4082,1.4082,1.4082,1.4088,1.4088,1.4088,1.4088,1.4088,1.4088,1.4088,1.4088,1.4088,1.4088,1.4088,1.4088,1.4088,1.4088,1.4088,1.4088,1.4088,1.4088,1.4088,1.4088,1.4088,1.4088,1.4082,0.0,1.3453,1.3193,1.2592,1.2625,1.3186,1.2918,1.2951,1.32,1.32,1.3367,1.3593,1.36,1.378,1.4082,1.4088,1.4776,1.5696,1.5696,1.6129,1.6801,1.7459,1.7376,1.6819,1.5883,1.6055,1.6567,1.6567,1.7251,1.7974,1.7974,1.7974,1.7974,1.7974,1.7974,1.7974,1.8008,1.8008,1.8008,1.8008,1.8008,1.7871,1.7461,1.7406,1.7112,1.6232,1.6085,1.5938,1.5469,1.541,0.0,1.541,1.541,1.5381,1.5371,1.4649,1.4204,1.4174,1.3416,1.3326,1.4115,1.4174,1.454,1.5352,1.5381,1.58,1.6687,1.6697,1.7126,1.8008,1.8008,1.8008,1.8008,1.8008,1.8008,1.8008,1.8008,1.8008,1.8047,1.8422,1.8598,1.8637,1.9102,1.9268,1.9413,2.04,2.0779,2.0921,1.4088,1.4088,1.4088,1.4088,1.4088,1.4088,1.4088,1.4088,1.4088,1.4088,1.4088,1.4088,1.4088,1.4088,1.4088,1.4088,1.4088,1.4088,1.4088,1.4088,1.4088,1.4088,1.4088,1.4088,1.4088,1.4088,1.4088,1.4088,1.3988,1.3794,1.3453,1.3106,1.3026,1.3206,1.3106,1.312,1.3227,1.3387,1.3986,1.4764,1.4981,1.5531,1.6288,1.6288,1.6486,1.6854,1.7332,1.7433,1.7479,1.8098,1.8017,1.7641,1.7309,1.7398,1.7535,1.7535,1.7759,1.8008,1.8008,1.8008,1.8008,1.8008,1.8008,1.8008,1.8008,1.8008,1.8008,1.8008,1.8008,1.7969,1.7832,1.7578,1.7187,1.6611,1.629,1.5938,1.5469,1.541,1.541,1.541,1.541,1.541,1.541,1.5177,1.5021,1.5021,1.4776,1.451,1.4213,1.4213,1.4569,1.5381,1.5703,1.6143,1.6697,1.7031,1.7461,1.8008,1.8008,1.8008,1.8008,1.8008,1.8008,1.8027,1.8276,1.8809,1.9483,1.9937,2.0499,2.1079,2.1231,2.1261,2.1339,2.1982,2.222,2.23,1.4088,1.4088,1.4088,1.4088,1.4088,1.4088,1.4088,1.4088,1.4088,1.4088,1.4088,1.4088,1.4088,1.4088,1.4088,1.4088,1.4088,1.4088,1.4088,1.4088,1.4088,1.4088,1.4088,1.4088,1.4088,1.4088,1.4088,1.4088,1.4088,1.3988,1.376,1.3473,1.3621,1.4119,1.4041,1.4247,1.4769,1.4925,1.5404,1.6059,1.6228,1.6683,1.7302,1.7302,1.7453,1.774,1.8133,1.8207,1.8108,1.8473,1.8325,1.8008,1.8008,1.8008,1.8008,1.8008,1.8008,1.8008,1.8008,1.8008,1.8008,1.8008,1.8008,1.8008,1.8008,1.8008,1.8008,1.8008,1.8008,1.8008,1.8008,1.7793,1.748,1.7051,1.6602,1.6162,1.5723,1.5508,1.541,1.541,1.541,1.541,1.541,1.541,1.541,1.541,1.541,1.5167,1.4688,1.4658,1.4969,1.5644,1.5948,1.6388,1.6973,1.7246,1.7598,1.8008,1.8008,1.8008,1.8018,1.8174,1.8449,1.8801,1.9243,1.9975,2.093,2.1417,2.1919,2.25,2.2645,2.2677,2.2781,2.3428,2.3696,2.3766,1.4088,1.4088,1.4088,1.4088,1.4088,1.4088,1.4088,1.4088,1.4088,1.4088,1.4088,1.4088,1.4088,1.4088,1.4088,1.4088,1.4088,1.4088,1.4088,1.4088,1.4088,1.4088,1.4088,1.4088,1.4088,1.4088,1.4088,1.4088,1.4088,1.4088,1.4082,1.376,1.4378,1.5688,1.5423,1.6059,1.7302,1.7302,1.7342,1.7415,1.7415,1.7455,1.7536,1.7536,1.7907,1.84,1.8373,1.8471,1.8598,1.8568,1.8295,1.8008,1.8008,1.8008,1.8008,1.8008,1.8008,1.8008,1.8008,1.8008,1.8008,1.8008,1.8008,1.8008,1.8008,1.8008,1.8008,1.8008,1.8008,1.8008,1.8008,1.8008,1.7871,1.7484,1.7041,1.6611,1.6163,1.5713,1.5449,1.5391,1.541,1.541,1.541,1.541,1.541,1.541,0.0,1.5459,1.5459,1.5488,1.5674,1.6085,1.6153,1.6584,1.7373,1.7445,1.7627,1.8008,1.8008,1.8027,1.8066,1.8422,1.9123,2.0054,2.0607,2.1396,2.2285,2.2828,2.3102,2.3183,2.3564,2.3697,2.3818,2.4743,2.5111,2.5229,1.4088,1.4088,1.4088,1.4088,1.4088,1.4088,1.4088,1.4088,1.4088,1.4088,1.4088,1.4088,1.4088,1.4088,1.4088,1.4088,1.4088,1.4088,1.4088,1.4088,1.4088,1.4088,1.4088,1.4088,1.4088,1.4088,1.4088,1.4088,1.4088,1.4088,1.4088,1.4015,1.458,1.5696,1.5621,1.6236,1.7302,1.7302,1.7779,1.8598,1.8598,1.9076,1.9835,1.9835,1.9696,1.9487,1.9171,1.8865,1.8549,1.8237,1.8086,1.8008,1.8008,1.8008,1.8008,1.8008,1.8008,1.8008,1.8008,1.8008,1.8008,1.8008,1.8008,1.8008,1.8008,1.8008,1.8008,1.8008,1.8008,1.8008,1.8008,1.8008,1.7871,1.7484,1.7295,1.6953,1.6202,1.6007,1.5811,1.5449,1.541,1.541,1.541,1.541,1.541,1.541,0.0,1.5938,1.5938,1.623,1.6309,1.6105,1.675,1.72,1.7383,1.7705,1.791,1.8008,1.8008,1.8174,1.8461,1.8559,1.8925,1.9547,2.0757,2.1811,2.2839,2.4025,2.4967,2.5654,2.5742,2.5791,2.5826,2.606,2.6129,2.6176,1.4088,1.4088,1.4088,1.4088,1.4088,1.4088,1.4088,1.4088,1.4088,1.4088,1.4088,1.4088,1.4088,1.4088,1.4088,1.4088,1.4088,1.4088,1.4088,1.4088,1.4088,1.4088,1.4088,1.4088,1.4088,1.4088,1.4088,1.4088,1.4088,1.4088,1.413,1.4615,1.5379,1.6437,1.696,1.7811,1.8829,1.8829,1.9155,1.9717,1.9717,2.0079,2.0605,2.0605,2.0293,1.9853,1.9434,1.9014,1.8539,1.8154,1.8008,1.8008,1.8008,1.8008,1.8008,1.8008,1.8008,1.8008,1.8008,1.8008,1.8008,1.8008,1.8008,1.8008,1.8008,1.8008,1.8008,1.8008,1.8008,1.8008,1.8008,1.8008,1.7939,1.7705,1.751,1.7217,1.677,1.6525,1.6279,1.6015,1.5985,1.5985,1.5985,1.5985,1.5985,1.5985,1.623,1.6367,1.6367,1.6787,1.6914,1.6711,1.7161,1.7471,1.7666,1.79,1.8008,1.8008,1.8203,1.8616,1.9298,1.9702,2.0498,2.1631,2.2623,2.3635,2.46,2.5355,2.6025,2.6499,2.6499,2.6499,2.6499,2.6499,2.6499,2.6499,1.4088,1.4088,1.4088,1.4088,1.4088,1.4088,1.4088,1.4088,1.4088,1.4088,1.4088,1.4088,1.4088,1.4088,1.4088,1.4088,1.4088,1.4088,1.4088,1.4088,1.4088,1.4088,1.4088,1.4088,1.4088,1.4088,1.4088,1.4088,1.425,1.4328,1.437,1.5421,1.6519,1.7585,1.855,1.9599,2.0605,2.0605,2.0605,2.0605,2.0605,2.0605,2.0605,2.0605,2.0293,1.9853,1.9434,1.9014,1.8539,1.8154,1.8008,1.8008,1.8008,1.8008,1.8008,1.8008,1.8008,1.8008,1.8008,1.8008,1.8008,1.8008,1.8008,1.8008,1.8008,1.8008,1.8008,1.8008,1.8008,1.8008,1.8008,1.8008,1.8008,1.8008,1.7705,1.7461,1.7393,1.7061,1.6775,1.6707,1.6697,1.6697,1.6697,1.6697,1.6697,1.6697,1.6765,1.6804,1.6804,1.7246,1.748,1.748,1.748,1.7646,1.8008,1.8008,1.8047,1.8105,1.8432,1.9219,2.0326,2.1071,2.2416,2.4211,2.4767,2.5476,2.628,2.643,2.6499,2.6499,2.6499,2.6499,2.6499,2.6499,2.6499,2.6499,1.4088,1.4088,1.4088,1.4088,1.4088,1.4088,1.4088,1.4088,1.4088,1.4088,1.4088,1.4088,1.4088,1.4088,1.4088,1.4088,1.4088,1.4088,1.4088,1.4088,1.4088,1.4088,1.4088,1.4088,1.4088,1.4088,1.4088,1.4088,1.5019,1.5455,1.5496,1.656,1.7658,1.8758,1.8917,1.9599,2.0605,2.0605,2.0605,2.0605,2.0605,2.0605,2.0605,2.0605,2.0293,1.9853,1.9434,1.9014,1.8539,1.8154,1.8008,1.8008,1.8008,1.8008,1.8008,1.8008,1.8008,1.8008,1.8008,1.8008,1.8008,1.8008,1.8008,1.8008,1.8008,1.8008,1.8008,1.8008,1.8008,1.8008,1.8008,1.8008,1.8008,1.8008,1.7959,1.7793,1.7432,1.7324,1.7148,1.6746,1.6697,1.6697,1.6697,1.6697,1.6697,1.6697,1.708,1.7285,1.7285,1.7686,1.791,1.791,1.791,1.7939,1.8008,1.8008,1.8184,1.851,1.8568,1.9494,2.1192,2.1329,2.2215,2.3693,2.4601,2.5087,2.53,2.6129,2.6499,2.6499,2.6499,2.6499,2.6499,2.6499,2.6499,2.6499,1.4088,1.4088,1.4088,1.4088,1.4088,1.4088,1.4088,1.4088,1.4088,1.4088,1.4088,1.4088,1.4088,1.4088,1.4088,1.4088,1.4615,1.4977,1.4977,1.4412,1.437,1.4936,1.4977,1.522,1.5801,1.5835,1.5835,1.5835,1.6322,1.656,1.6601,1.7698,1.8519,1.9045,1.9599,2.0118,2.0605,2.0605,2.0605,2.0605,2.0605,2.0605,2.0605,2.0605,2.0478,2.0215,1.9775,1.9346,1.8926,1.8461,1.8159,1.8008,1.8008,1.8008,1.8008,1.8008,1.8008,1.8008,1.8008,1.8008,1.8008,1.8008,1.8008,1.8008,1.8008,1.8008,1.8008,1.8008,1.8008,1.8008,1.8008,1.8008,1.8008,1.8008,1.8008,1.7939,1.7744,1.8138,1.8344,1.8131,1.8509,1.8605,1.8143,1.811,1.811,1.811,1.8304,1.8613,1.9092,1.9292,1.9398,1.9398,1.8496,1.8008,1.8008,1.8761,1.9212,1.9416,2.0414,2.1637,2.2987,2.3198,2.3998,2.5134,2.5616,2.5804,2.5838,2.6314,2.6499,2.6499,2.6499,2.6499,2.6499,2.6499,2.6499,2.6499,1.4088,1.4088,1.4088,1.4088,1.4088,1.4088,1.4088,1.4088,1.4088,1.4088,1.4328,1.4447,1.4447,1.4699,1.4817,1.4817,1.5587,1.6067,1.6067,1.5304,1.5228,1.6034,1.6067,1.6478,1.7302,1.7302,1.7302,1.7302,1.7585,1.7698,1.7698,1.8838,1.9362,1.9402,2.0235,2.0605,2.0605,2.0605,2.0605,2.0605,2.0605,2.0605,2.0605,2.0605,2.0605,2.0546,2.0068,1.9707,1.9355,1.8783,1.8383,1.81,1.8037,1.8008,1.8008,1.8008,1.8008,1.8008,1.8008,1.8008,1.8008,1.8008,1.8008,1.8008,1.8008,1.8008,1.8008,1.8008,1.8008,1.8008,1.8008,1.8008,1.8008,1.8008,1.8168,1.8303,1.8303,1.9044,1.9595,1.9595,2.0204,2.0333,1.9661,1.9595,1.9595,1.9595,1.9595,1.9879,2.0558,2.059,2.059,2.059,1.9299,1.8671,1.8772,1.9847,2.0542,2.0767,2.2229,2.3455,2.4478,2.4849,2.5558,2.6499,2.6499,2.6499,2.6499,2.6499,2.6499,2.6499,2.6499,2.6499,2.6499,2.6499,2.6499,2.6499,1.4088,1.4088,1.4088,1.4088,1.4088,1.4088,1.4088,1.4088,1.4088,1.4088,1.4977,1.5579,1.5579,1.6478,1.705,1.705,1.7131,1.7172,1.7172,1.7098,1.709,1.7172,1.7172,1.722,1.7302,1.7302,1.7302,1.7302,1.835,1.8877,1.8917,1.9962,2.0479,2.0489,2.0566,2.0605,2.0605,2.0605,2.0605,2.0605,2.0605,2.0605,2.0605,2.0605,2.0605,2.0546,2.0068,1.9893,1.9746,1.888,1.8578,1.849,1.8135,1.8008,1.8008,1.8008,1.8008,1.8008,1.8008,1.8008,1.8008,1.8008,1.8008,1.8008,1.8008,1.8008,1.8008,1.8008,1.8008,1.8008,1.8008,1.8008,1.8008,1.8008,1.8687,1.921,1.921,1.9944,2.0494,2.0494,2.0558,2.0558,2.0526,2.0494,2.0494,2.0494,2.0494,2.0526,2.059,2.059,2.059,2.059,2.0462,2.0652,2.113,2.1241,2.1789,2.2697,2.2835,2.3615,2.4945,2.4992,2.5558,2.6499,2.6499,2.6499,2.6499,2.6499,2.6499,2.6499,2.6499,2.6499,2.6499,2.6499,2.6499,2.6499,1.4088,1.4088,1.4292,1.4977,1.5095,1.5304,1.6,1.6083,1.6083,1.6083,1.6445,1.6683,1.6683,1.705,1.7302,1.7302,1.7948,1.835,1.835,1.8988,1.9036,1.839,1.8997,1.9353,1.9353,1.9353,1.9353,1.9353,1.9795,2.0001,2.0001,2.0401,2.0605,2.0605,2.0605,2.0605,2.0605,2.0605,2.0605,2.0605,2.0605,2.0605,2.0605,2.0605,2.0605,2.0586,2.0419,2.0146,1.9863,1.9541,1.9046,1.8568,1.8412,1.8188,1.8008,1.8008,1.8008,1.8008,1.8008,1.8008,1.8008,1.8008,1.8008,1.8008,1.8008,1.8008,1.8008,1.8008,1.8008,1.8178,1.8721,1.8361,1.8361,1.9431,1.9431,1.9497,2.0042,2.0846,2.1396,2.1396,2.1834,2.1959,2.1459,2.1396,2.1396,2.1396,2.1396,2.1616,2.2113,2.2144,2.2332,2.2713,2.2725,2.23,2.1418,2.259,2.3372,2.3769,2.4715,2.5422,2.5921,2.5921,2.6129,2.6499,2.6499,2.6499,2.6499,2.6499,2.6499,2.6499,2.6499,2.6499,2.6499,2.6499,2.6499,2.6499,1.4088,1.437,1.481,1.5579,1.5985,1.6437,1.7172,1.7302,1.7302,1.7302,1.7617,1.7827,1.7827,1.8141,1.835,1.835,1.9036,1.9481,1.9481,2.0196,2.0284,1.952,2.0206,2.0605,2.0605,2.0605,2.0605,2.0605,2.0605,2.0605,2.0605,2.0605,2.0605,2.0605,2.0605,2.0605,2.0605,2.0605,2.0605,2.0605,2.0605,2.0605,2.0605,2.0605,2.0605,2.0605,2.0605,2.041,2.0098,1.9961,1.9485,1.8978,1.8851,1.851,1.8149,1.8047,1.8008,1.8008,1.8008,1.8008,1.8008,1.8008,1.8008,1.8008,1.8008,1.8008,1.8008,1.8008,1.8008,1.8269,1.9144,1.8821,1.8877,2.0365,2.0333,2.0333,2.091,2.1741,2.2292,2.2292,2.2763,2.2884,2.2322,2.2292,2.2292,2.2292,2.2292,2.2506,2.3078,2.3283,2.359,2.3991,2.433,2.3911,2.2718,2.403,2.4781,2.4998,2.6012,2.6499,2.6499,2.6499,2.6499,2.6499,2.6499,2.6499,2.6499,2.6499,2.6499,2.6499,2.6499,2.6499,2.6499,2.6499,2.6499,2.6499,1.413,1.4977,1.5703,1.5737,1.6601,1.7334,1.7334,1.7342,1.7342,1.7342,1.831,1.8997,1.8997,1.9962,2.0605,2.0605,2.0605,2.0605,2.0605,2.0605,2.0605,2.0605,2.0605,2.0605,2.0605,2.0605,2.0605,2.0605,2.0605,2.0605,2.0605,2.0605,2.0605,2.0605,2.0605,2.0605,2.0605,2.0605,2.0605,2.0605,2.0605,2.0605,2.0605,2.0605,2.0605,2.0605,2.0605,2.0605,2.0537,2.0068,1.9912,1.9844,1.9424,1.8994,1.852,1.8144,1.8018,1.8018,1.8018,1.8018,1.8008,1.8008,1.8008,1.8008,1.8008,1.8008,1.8008,1.8008,1.8008,1.8269,1.9177,1.9299,1.9595,2.0494,2.1333,2.1908,2.1908,2.261,2.3108,2.3108,2.3108,2.3108,2.3108,2.3108,2.3108,2.3108,2.3108,2.3108,2.3108,2.369,2.4004,2.4004,2.5034,2.5598,2.5598,2.5598,2.5921,2.6499,2.6499,2.6499,2.6499,2.6499,2.6499,2.6499,2.6499,2.6499,2.6499,2.6499,2.6499,2.6499,2.6499,2.6499,2.6499,2.6499,2.6499,2.6499,1.5054,1.5496,1.6191,1.7738,1.827,1.8749,1.9511,1.9638,1.9638,1.9638,1.9923,2.0118,2.0118,2.0401,2.0605,2.0605,2.0605,2.0605,2.0605,2.0605,2.0605,2.0605,2.0605,2.0605,2.0605,2.0605,2.0605,2.0605,2.0605,2.0605,2.0605,2.0605,2.0605,2.0605,2.0605,2.0605,2.0605,2.0605,2.0605,2.0605,2.0605,2.0605,2.0605,2.0605,2.0605,2.0605,2.0605,2.0605,2.0586,2.0458,2.0166,1.9844,1.9424,1.9199,1.9072,1.8945,1.8906,1.8906,1.8906,1.9119,1.9107,1.8213,1.8008,1.8008,1.8008,1.8008,1.8168,1.8787,1.8911,1.9365,2.0846,2.0623,2.0675,2.2113,2.2094,2.2094,2.2659,2.2944,2.3108,2.3108,2.3108,2.3108,2.3108,2.3108,2.3108,2.3108,2.3108,2.3283,2.3715,2.3904,2.4343,2.5096,2.5423,2.5787,2.6235,2.6235,2.6323,2.6499,2.6499,2.6499,2.6499,2.6499,2.6499,2.6499,2.6499,2.6499,2.6499,2.6499,2.6499,2.6499,2.6499,2.6499,2.6499,2.6499,2.6499,2.6499,1.5504,1.6026,1.6879,1.8669,1.9362,1.9835,2.0489,2.0605,2.0605,2.0605,2.0605,2.0605,2.0605,2.0605,2.0605,2.0605,2.0605,2.0605,2.0605,2.0605,2.0605,2.0605,2.0605,2.0605,2.0605,2.0605,2.0605,2.0605,2.0605,2.0605,2.0605,2.0605,2.0605,2.0605,2.0605,2.0605,2.0605,2.0605,2.0605,2.0605,2.0605,2.0605,2.0605,2.0605,2.0605,2.0605,2.0605,2.0605,2.0605,2.0605,2.0429,2.0174,2.0139,1.9852,1.9639,2.0273,2.0196,1.9991,2.0364,2.0603,2.0617,1.985,1.9347,1.9044,1.9044,1.9044,1.9177,1.9726,1.9814,2.0236,2.1659,2.1459,2.1553,2.2884,2.2702,2.2537,2.3035,2.3108,2.3108,2.3108,2.3108,2.3108,2.3108,2.3108,2.3108,2.3108,2.3321,2.3627,2.3979,2.4406,2.4921,2.5573,2.5824,2.6135,2.6499,2.6499,2.6499,2.6499,2.6499,2.6499,2.6499,2.6499,2.6499,2.6499,2.6499,2.6499,2.6499,2.6499,2.6499,2.6499,2.6499,2.6499,2.6499,2.6499,2.6499,2.6499,1.5786,1.6764,1.7827,1.8957,1.9962,2.0605,2.0605,2.0605,2.0605,2.0605,2.0605,2.0605,2.0605,2.0605,2.0605,2.0605,2.0605,2.0605,2.0605,2.0605,2.0605,2.0605,2.0605,2.0605,2.0605,2.0605,2.0605,2.0605,2.0605,2.0605,2.0605,2.0605,2.0605,2.0605,2.0605,2.0605,2.0605,2.0605,2.0605,2.0605,2.0605,2.0605,2.0605,2.0605,2.0605,2.0605,2.0605,2.0605,2.0605,2.0605,2.0605,2.0681,2.1259,2.0839,2.0359,2.1897,2.1706,2.1225,2.2077,2.2365,2.2366,2.2366,2.1686,2.0918,2.0789,2.0757,2.0746,2.0797,2.0786,2.1031,2.1858,2.2002,2.2261,2.2975,2.3108,2.3108,2.3108,2.3108,2.3108,2.3108,2.3108,2.3108,2.3108,2.3145,2.3183,2.3183,2.374,2.4092,2.4142,2.5071,2.5624,2.5674,2.6223,2.6499,2.6499,2.6499,2.6499,2.6499,2.6499,2.6499,2.6499,2.6499,2.6499,2.6499,2.6499,2.6499,2.6499,2.6499,2.6499,2.6499,2.6499,2.6499,2.6499,2.6499,2.6499,2.6499,1.806,1.847,1.8957,2.004,2.045,2.0605,2.0605,2.0605,2.0605,2.0605,2.0605,2.0605,2.0605,2.0605,2.0605,2.0605,2.0605,2.0605,2.0605,2.0605,2.0605,2.0605,2.0605,2.0605,2.0605,2.0605,2.0605,2.0605,2.0605,2.0605,2.0605,2.0605,2.0605,2.0605,2.0605,2.0605,2.0605,2.0605,2.0605,2.0605,2.0605,2.0605,2.0605,2.0605,2.0605,2.0605,2.0605,2.0605,2.0605,2.0605,2.0605,2.0741,2.1583,2.1741,2.1757,2.2907,2.3056,2.2947,2.3165,2.35,2.3779,2.3779,2.3824,2.3539,2.2149,2.1846,2.1935,2.2201,2.2259,2.2353,2.2776,2.2823,2.2884,2.3078,2.3108,2.3108,2.3108,2.3108,2.3108,2.3108,2.3108,2.3108,2.3108,2.3521,2.3803,2.3803,2.433,2.482,2.5222,2.5473,2.5799,2.6298,2.6424,2.6499,2.6499,2.6499,2.6499,2.6499,2.6499,2.6499,2.6499,2.6499,2.6499,2.6499,2.6499,2.6499,2.6499,2.6499,2.6499,2.6499,2.6499,2.6499,2.6499,2.6499,2.6499,2.6499,1.8798,1.8997,1.9362,2.0401,2.0605,2.0605,2.0605,2.0605,2.0605,2.0605,2.0605,2.0605,2.0605,2.0605,2.0605,2.0605,2.0605,2.0605,2.0605,2.0605,2.0605,2.0605,2.0605,2.0605,2.0605,2.0605,2.0605,2.0605,2.0605,2.0605,2.0605,2.0605,2.0605,2.0605,2.0605,2.0605,2.0605,2.0605,2.0605,2.0605,2.0605,2.0605,2.0605,2.0605,2.0605,2.0605,2.0605,2.0605,2.0673,2.1116,2.126,2.1517,2.2962,2.311,2.2999,2.4505,2.4588,2.4337,2.4803,2.5118,2.5318,2.5318,2.5462,2.5215,2.3754,2.3435,2.3496,2.3668,2.3704,2.3747,2.3898,2.391,2.391,2.391,2.391,2.391,2.391,2.391,2.391,2.391,2.391,2.391,2.391,2.4217,2.4393,2.4393,2.4895,2.531,2.5586,2.585,2.6185,2.6487,2.6499,2.6499,2.6499,2.6499,2.6499,2.6499,2.6499,2.6499,2.6499,2.6499,2.6499,2.6499,2.6499,2.6499,2.6499,2.6499,2.6499,2.6499,2.6499,2.6499,2.6499,2.6499,2.6499,2.6499,1.9076,1.9274,1.9559,2.044,2.0605,2.0605,2.0605,2.0605,2.0605,2.0605,2.0605,2.0605,2.0605,2.0605,2.0605,2.0605,2.0605,2.0605,2.0605,2.0605,2.0605,2.0605,2.0605,2.0605,2.0605,2.0605,2.0605,2.0605,2.0605,2.0605,2.0605,2.0605,2.0605,2.0605,2.0605,2.0605,2.0605,2.0605,2.0605,2.0605,2.0605,2.0605,2.0605,2.0605,2.0605,2.0605,2.0605,2.0712,2.0972,2.1735,2.2103,2.259,2.4409,2.4409,2.4108,2.5943,2.5908,2.5441,2.628,2.6499,2.6499,2.6499,2.6499,2.6248,2.531,2.5096,2.5071,2.4938,2.4958,2.4888,2.4813,2.4788,2.4788,2.4788,2.4788,2.4788,2.4788,2.4788,2.4788,2.4788,2.4788,2.4788,2.4788,2.4863,2.4958,2.4958,2.5435,2.5737,2.5737,2.6235,2.6499,2.6499,2.6499,2.6499,2.6499,2.6499,2.6499,2.6499,2.6499,2.6499,2.6499,2.6499,2.6499,2.6499,2.6499,2.6499,2.6499,2.6499,2.6499,2.6499,2.6499,2.6499,2.6499,2.6499,2.6499,2.6521,2.0362,2.0362,2.045,2.0566,2.0605,2.0605,2.0605,2.0605,2.0605,2.0605,2.0605,2.0605,2.0605,2.0605,2.0605,2.0605,2.0605,2.0605,2.0605,2.0605,2.0605,2.0605,2.0605,2.0605,2.0605,2.0605,2.0605,2.0605,2.0605,2.0605,2.0605,2.0605,2.0605,2.0605,2.0605,2.0605,2.0605,2.0605,2.0605,2.0605,2.0605,2.0605,2.0605,2.0605,2.0605,2.0605,2.0605,2.1116,2.1849,2.1952,2.259,2.3514,2.4636,2.4898,2.5004,2.6164,2.6383,2.6314,2.6452,2.6499,2.6499,2.6499,2.6499,2.6449,2.6311,2.6273,2.6135,2.5598,2.5485,2.536,2.4876,2.4788,2.4788,2.4788,2.4788,2.4788,2.4788,2.4788,2.4788,2.4788,2.4788,2.4788,2.4788,2.5222,2.5485,2.5485,2.6047,2.6373,2.6373,2.6449,2.6499,2.6499,2.6499,2.6499,2.6499,2.6499,2.6499,2.6499,2.6499,2.6499,2.6499,2.6499,2.6499,2.6499,2.6499,2.6499,2.6499,2.6499,2.6499,2.6499,2.6499,2.6499,2.6499,2.6499,2.6499,2.6589,2.0605,2.0605,2.0605,2.0605,2.0605,2.0605,2.0605,2.0605,2.0605,2.0605,2.0605,2.0605,2.0605,2.0605,2.0605,2.0605,2.0605,2.0605,2.0605,2.0605,2.0605,2.0605,2.0605,2.0605,2.0605,2.0605,2.0605,2.0605,2.0605,2.0605,2.0605,2.0605,2.0605,2.0605,2.0605,2.0605,2.0605,2.0605,2.0605,2.0605,2.0605,2.0605,2.0605,2.0605,2.0605,2.0605,2.0605,2.1193,2.2103,2.2664,2.3526,2.4516,2.5511,2.5838,2.5921,2.6383,2.6499,2.6499,2.6499,2.6499,2.6499,2.6499,2.6499,2.6499,2.6499,2.6499,2.6424,2.6172,2.6109,2.6047,2.5774,2.5737,2.5737,2.5737,2.5737,2.5737,2.5737,2.5737,2.5737,2.5737,2.5737,2.5737,2.5737,2.5971,2.6109,2.6109,2.6348,2.6499,2.6499,2.6499,2.6499,2.6499,2.6499,2.6499,2.6499,2.6499,2.6499,2.6499,2.6499,2.6499,2.6499,2.6499,2.6499,2.6499,2.6499,2.6499,2.6499,2.6499,2.6499,2.6499,2.6499,2.6499,2.6499,2.6499,2.6499,2.6624]}]]